<?xml version="1.0" encoding="UTF-8" standalone="no" ?>
<gpx xmlns="http://www.topografix.com/GPX/1/1" xmlns:xsi="http://www.w3.org/2001/XMLSchema-instance" xsi:schemaLocation="http://www.topografix.com/GPX/1/1 http://www.topografix.com/GPX/1/1/gpx.xsd" version="1.1" creator="VisuGPX - https://www.visugpx.com">
  <metadata>
    <name>2017 03 09 Chateaux du Lebous et Montferrand au départ de St Jean de Cuculles 12,5 km 550 m.</name>
    <desc><![CDATA[Bel itinéraire varié, ombragé et sportif.]]></desc>
  </metadata>
  <trk>
    <name><![CDATA[2017-03-09 18:26:57]]></name>
    <trkseg>
      <trkpt lat="43.75396" lon="3.83523">
        <ele>138.57</ele>
        <time>2017-03-09T13:29:30Z</time>
      </trkpt>
      <trkpt lat="43.75406" lon="3.83529">
        <ele>138.57</ele>
        <time>2017-03-09T13:29:48Z</time>
      </trkpt>
      <trkpt lat="43.75421" lon="3.83537">
        <ele>140.01</ele>
        <time>2017-03-09T13:30:02Z</time>
      </trkpt>
      <trkpt lat="43.75437" lon="3.83544">
        <ele>140.97</ele>
        <time>2017-03-09T13:30:17Z</time>
      </trkpt>
      <trkpt lat="43.7544" lon="3.83544">
        <ele>140.97</ele>
        <time>2017-03-09T13:30:19Z</time>
      </trkpt>
      <trkpt lat="43.75451" lon="3.8355">
        <ele>140.49</ele>
        <time>2017-03-09T13:30:30Z</time>
      </trkpt>
      <trkpt lat="43.75465" lon="3.83557">
        <ele>141.45</ele>
        <time>2017-03-09T13:30:45Z</time>
      </trkpt>
      <trkpt lat="43.75468" lon="3.83556">
        <ele>140.97</ele>
        <time>2017-03-09T13:30:47Z</time>
      </trkpt>
      <trkpt lat="43.75472" lon="3.8355">
        <ele>140.49</ele>
        <time>2017-03-09T13:30:52Z</time>
      </trkpt>
      <trkpt lat="43.75478" lon="3.83542">
        <ele>140.49</ele>
        <time>2017-03-09T13:31:10Z</time>
      </trkpt>
      <trkpt lat="43.75479" lon="3.8354">
        <ele>141.93</ele>
        <time>2017-03-09T13:31:30Z</time>
      </trkpt>
      <trkpt lat="43.75492" lon="3.8354">
        <ele>143.85</ele>
        <time>2017-03-09T13:31:44Z</time>
      </trkpt>
      <trkpt lat="43.75506" lon="3.83531">
        <ele>145.3</ele>
        <time>2017-03-09T13:31:59Z</time>
      </trkpt>
      <trkpt lat="43.75522" lon="3.83523">
        <ele>147.7</ele>
        <time>2017-03-09T13:32:17Z</time>
      </trkpt>
      <trkpt lat="43.75532" lon="3.83513">
        <ele>148.18</ele>
        <time>2017-03-09T13:32:31Z</time>
      </trkpt>
      <trkpt lat="43.75539" lon="3.83505">
        <ele>148.18</ele>
        <time>2017-03-09T13:32:41Z</time>
      </trkpt>
      <trkpt lat="43.75539" lon="3.83505">
        <ele>148.66</ele>
        <time>2017-03-09T13:32:42Z</time>
      </trkpt>
      <trkpt lat="43.75549" lon="3.83493">
        <ele>152.03</ele>
        <time>2017-03-09T13:32:53Z</time>
      </trkpt>
      <trkpt lat="43.75555" lon="3.83482">
        <ele>153.95</ele>
        <time>2017-03-09T13:33:04Z</time>
      </trkpt>
      <trkpt lat="43.75563" lon="3.83467">
        <ele>156.35</ele>
        <time>2017-03-09T13:33:20Z</time>
      </trkpt>
      <trkpt lat="43.75569" lon="3.83465">
        <ele>159.24</ele>
        <time>2017-03-09T13:33:30Z</time>
      </trkpt>
      <trkpt lat="43.7557" lon="3.83459">
        <ele>160.2</ele>
        <time>2017-03-09T13:33:39Z</time>
      </trkpt>
      <trkpt lat="43.75576" lon="3.83449">
        <ele>162.12</ele>
        <time>2017-03-09T13:33:50Z</time>
      </trkpt>
      <trkpt lat="43.7558" lon="3.83445">
        <ele>163.56</ele>
        <time>2017-03-09T13:33:56Z</time>
      </trkpt>
      <trkpt lat="43.75582" lon="3.83429">
        <ele>165.96</ele>
        <time>2017-03-09T13:34:07Z</time>
      </trkpt>
      <trkpt lat="43.75583" lon="3.83418">
        <ele>167.89</ele>
        <time>2017-03-09T13:34:16Z</time>
      </trkpt>
      <trkpt lat="43.75586" lon="3.83414">
        <ele>169.81</ele>
        <time>2017-03-09T13:34:27Z</time>
      </trkpt>
      <trkpt lat="43.75584" lon="3.83415">
        <ele>169.33</ele>
        <time>2017-03-09T13:34:30Z</time>
      </trkpt>
      <trkpt lat="43.75581" lon="3.83418">
        <ele>169.33</ele>
        <time>2017-03-09T13:34:34Z</time>
      </trkpt>
      <trkpt lat="43.7558" lon="3.83422">
        <ele>169.33</ele>
        <time>2017-03-09T13:34:37Z</time>
      </trkpt>
      <trkpt lat="43.75581" lon="3.83436">
        <ele>168.37</ele>
        <time>2017-03-09T13:34:47Z</time>
      </trkpt>
      <trkpt lat="43.75581" lon="3.83437">
        <ele>167.89</ele>
        <time>2017-03-09T13:34:48Z</time>
      </trkpt>
      <trkpt lat="43.75575" lon="3.83447">
        <ele>166.45</ele>
        <time>2017-03-09T13:34:57Z</time>
      </trkpt>
      <trkpt lat="43.75567" lon="3.83457">
        <ele>164.52</ele>
        <time>2017-03-09T13:35:08Z</time>
      </trkpt>
      <trkpt lat="43.75567" lon="3.83457">
        <ele>164.52</ele>
        <time>2017-03-09T13:35:09Z</time>
      </trkpt>
      <trkpt lat="43.75568" lon="3.83462">
        <ele>164.04</ele>
        <time>2017-03-09T13:35:13Z</time>
      </trkpt>
      <trkpt lat="43.75571" lon="3.83463">
        <ele>164.04</ele>
        <time>2017-03-09T13:35:15Z</time>
      </trkpt>
      <trkpt lat="43.75579" lon="3.83464">
        <ele>164.52</ele>
        <time>2017-03-09T13:35:24Z</time>
      </trkpt>
      <trkpt lat="43.75583" lon="3.83465">
        <ele>165</ele>
        <time>2017-03-09T13:35:28Z</time>
      </trkpt>
      <trkpt lat="43.75596" lon="3.83463">
        <ele>165.48</ele>
        <time>2017-03-09T13:35:39Z</time>
      </trkpt>
      <trkpt lat="43.75597" lon="3.83462">
        <ele>165.48</ele>
        <time>2017-03-09T13:35:40Z</time>
      </trkpt>
      <trkpt lat="43.75607" lon="3.83461">
        <ele>165.48</ele>
        <time>2017-03-09T13:35:51Z</time>
      </trkpt>
      <trkpt lat="43.75614" lon="3.83456">
        <ele>166.45</ele>
        <time>2017-03-09T13:35:59Z</time>
      </trkpt>
      <trkpt lat="43.7562" lon="3.83455">
        <ele>167.41</ele>
        <time>2017-03-09T13:36:05Z</time>
      </trkpt>
      <trkpt lat="43.75628" lon="3.83452">
        <ele>170.29</ele>
        <time>2017-03-09T13:36:15Z</time>
      </trkpt>
      <trkpt lat="43.75631" lon="3.83453">
        <ele>169.81</ele>
        <time>2017-03-09T13:36:18Z</time>
      </trkpt>
      <trkpt lat="43.75635" lon="3.83458">
        <ele>170.29</ele>
        <time>2017-03-09T13:36:24Z</time>
      </trkpt>
      <trkpt lat="43.7564" lon="3.8346">
        <ele>170.29</ele>
        <time>2017-03-09T13:36:29Z</time>
      </trkpt>
      <trkpt lat="43.75646" lon="3.83458">
        <ele>171.73</ele>
        <time>2017-03-09T13:36:39Z</time>
      </trkpt>
      <trkpt lat="43.75656" lon="3.83456">
        <ele>172.21</ele>
        <time>2017-03-09T13:36:53Z</time>
      </trkpt>
      <trkpt lat="43.75658" lon="3.83456">
        <ele>171.73</ele>
        <time>2017-03-09T13:36:56Z</time>
      </trkpt>
      <trkpt lat="43.7566" lon="3.83455">
        <ele>171.73</ele>
        <time>2017-03-09T13:36:58Z</time>
      </trkpt>
      <trkpt lat="43.75663" lon="3.83453">
        <ele>171.73</ele>
        <time>2017-03-09T13:37:02Z</time>
      </trkpt>
      <trkpt lat="43.75666" lon="3.83447">
        <ele>172.69</ele>
        <time>2017-03-09T13:37:08Z</time>
      </trkpt>
      <trkpt lat="43.75667" lon="3.83433">
        <ele>174.62</ele>
        <time>2017-03-09T13:37:18Z</time>
      </trkpt>
      <trkpt lat="43.75667" lon="3.83418">
        <ele>177.02</ele>
        <time>2017-03-09T13:37:28Z</time>
      </trkpt>
      <trkpt lat="43.75667" lon="3.83417">
        <ele>177.02</ele>
        <time>2017-03-09T13:37:29Z</time>
      </trkpt>
      <trkpt lat="43.75665" lon="3.83399">
        <ele>176.54</ele>
        <time>2017-03-09T13:37:40Z</time>
      </trkpt>
      <trkpt lat="43.75665" lon="3.83393">
        <ele>176.54</ele>
        <time>2017-03-09T13:37:44Z</time>
      </trkpt>
      <trkpt lat="43.75673" lon="3.83382">
        <ele>178.94</ele>
        <time>2017-03-09T13:37:55Z</time>
      </trkpt>
      <trkpt lat="43.75677" lon="3.83377">
        <ele>179.9</ele>
        <time>2017-03-09T13:38:00Z</time>
      </trkpt>
      <trkpt lat="43.75684" lon="3.83372">
        <ele>182.79</ele>
        <time>2017-03-09T13:38:08Z</time>
      </trkpt>
      <trkpt lat="43.75686" lon="3.8337">
        <ele>183.27</ele>
        <time>2017-03-09T13:38:11Z</time>
      </trkpt>
      <trkpt lat="43.75692" lon="3.83364">
        <ele>184.23</ele>
        <time>2017-03-09T13:38:19Z</time>
      </trkpt>
      <trkpt lat="43.75703" lon="3.83359">
        <ele>186.63</ele>
        <time>2017-03-09T13:38:30Z</time>
      </trkpt>
      <trkpt lat="43.75708" lon="3.83357">
        <ele>187.59</ele>
        <time>2017-03-09T13:38:34Z</time>
      </trkpt>
      <trkpt lat="43.75711" lon="3.83356">
        <ele>188.08</ele>
        <time>2017-03-09T13:38:37Z</time>
      </trkpt>
      <trkpt lat="43.75721" lon="3.83352">
        <ele>189.04</ele>
        <time>2017-03-09T13:38:48Z</time>
      </trkpt>
      <trkpt lat="43.75732" lon="3.83354">
        <ele>192.88</ele>
        <time>2017-03-09T13:39:00Z</time>
      </trkpt>
      <trkpt lat="43.75742" lon="3.83356">
        <ele>191.44</ele>
        <time>2017-03-09T13:39:09Z</time>
      </trkpt>
      <trkpt lat="43.75752" lon="3.83355">
        <ele>190</ele>
        <time>2017-03-09T13:39:20Z</time>
      </trkpt>
      <trkpt lat="43.75755" lon="3.83356">
        <ele>189.52</ele>
        <time>2017-03-09T13:39:23Z</time>
      </trkpt>
      <trkpt lat="43.7577" lon="3.83355">
        <ele>190</ele>
        <time>2017-03-09T13:39:34Z</time>
      </trkpt>
      <trkpt lat="43.75779" lon="3.83357">
        <ele>190.96</ele>
        <time>2017-03-09T13:39:43Z</time>
      </trkpt>
      <trkpt lat="43.75788" lon="3.83357">
        <ele>190.96</ele>
        <time>2017-03-09T13:39:52Z</time>
      </trkpt>
      <trkpt lat="43.75799" lon="3.83362">
        <ele>190</ele>
        <time>2017-03-09T13:40:03Z</time>
      </trkpt>
      <trkpt lat="43.75811" lon="3.83369">
        <ele>189.04</ele>
        <time>2017-03-09T13:40:14Z</time>
      </trkpt>
      <trkpt lat="43.75817" lon="3.83374">
        <ele>189.04</ele>
        <time>2017-03-09T13:40:21Z</time>
      </trkpt>
      <trkpt lat="43.75827" lon="3.83382">
        <ele>189.52</ele>
        <time>2017-03-09T13:40:33Z</time>
      </trkpt>
      <trkpt lat="43.75829" lon="3.83385">
        <ele>190.48</ele>
        <time>2017-03-09T13:40:36Z</time>
      </trkpt>
      <trkpt lat="43.75836" lon="3.83396">
        <ele>192.4</ele>
        <time>2017-03-09T13:40:46Z</time>
      </trkpt>
      <trkpt lat="43.75839" lon="3.83401">
        <ele>193.36</ele>
        <time>2017-03-09T13:40:52Z</time>
      </trkpt>
      <trkpt lat="43.7584" lon="3.83406">
        <ele>193.36</ele>
        <time>2017-03-09T13:40:56Z</time>
      </trkpt>
      <trkpt lat="43.75843" lon="3.83411">
        <ele>194.32</ele>
        <time>2017-03-09T13:41:00Z</time>
      </trkpt>
      <trkpt lat="43.75849" lon="3.83417">
        <ele>194.8</ele>
        <time>2017-03-09T13:41:07Z</time>
      </trkpt>
      <trkpt lat="43.75853" lon="3.83427">
        <ele>195.28</ele>
        <time>2017-03-09T13:41:15Z</time>
      </trkpt>
      <trkpt lat="43.75859" lon="3.83438">
        <ele>196.25</ele>
        <time>2017-03-09T13:41:24Z</time>
      </trkpt>
      <trkpt lat="43.75864" lon="3.83453">
        <ele>197.21</ele>
        <time>2017-03-09T13:41:34Z</time>
      </trkpt>
      <trkpt lat="43.75865" lon="3.83454">
        <ele>197.21</ele>
        <time>2017-03-09T13:41:35Z</time>
      </trkpt>
      <trkpt lat="43.75869" lon="3.83458">
        <ele>196.73</ele>
        <time>2017-03-09T13:41:39Z</time>
      </trkpt>
      <trkpt lat="43.7588" lon="3.83459">
        <ele>195.28</ele>
        <time>2017-03-09T13:41:49Z</time>
      </trkpt>
      <trkpt lat="43.75884" lon="3.83459">
        <ele>195.77</ele>
        <time>2017-03-09T13:41:53Z</time>
      </trkpt>
      <trkpt lat="43.75893" lon="3.83468">
        <ele>198.65</ele>
        <time>2017-03-09T13:42:04Z</time>
      </trkpt>
      <trkpt lat="43.75901" lon="3.83479">
        <ele>202.01</ele>
        <time>2017-03-09T13:42:15Z</time>
      </trkpt>
      <trkpt lat="43.75906" lon="3.83489">
        <ele>202.49</ele>
        <time>2017-03-09T13:42:24Z</time>
      </trkpt>
      <trkpt lat="43.75908" lon="3.83493">
        <ele>202.49</ele>
        <time>2017-03-09T13:42:28Z</time>
      </trkpt>
      <trkpt lat="43.75911" lon="3.83498">
        <ele>202.98</ele>
        <time>2017-03-09T13:42:33Z</time>
      </trkpt>
      <trkpt lat="43.7591" lon="3.83515">
        <ele>206.34</ele>
        <time>2017-03-09T13:42:45Z</time>
      </trkpt>
      <trkpt lat="43.75907" lon="3.83535">
        <ele>207.3</ele>
        <time>2017-03-09T13:42:59Z</time>
      </trkpt>
      <trkpt lat="43.75907" lon="3.8354">
        <ele>208.26</ele>
        <time>2017-03-09T13:43:03Z</time>
      </trkpt>
      <trkpt lat="43.7591" lon="3.83567">
        <ele>206.82</ele>
        <time>2017-03-09T13:43:20Z</time>
      </trkpt>
      <trkpt lat="43.75913" lon="3.83572">
        <ele>206.82</ele>
        <time>2017-03-09T13:43:30Z</time>
      </trkpt>
      <trkpt lat="43.75918" lon="3.83584">
        <ele>206.82</ele>
        <time>2017-03-09T13:43:42Z</time>
      </trkpt>
      <trkpt lat="43.75918" lon="3.83585">
        <ele>207.3</ele>
        <time>2017-03-09T13:43:43Z</time>
      </trkpt>
      <trkpt lat="43.75927" lon="3.83601">
        <ele>209.22</ele>
        <time>2017-03-09T13:43:55Z</time>
      </trkpt>
      <trkpt lat="43.75933" lon="3.83617">
        <ele>210.67</ele>
        <time>2017-03-09T13:44:05Z</time>
      </trkpt>
      <trkpt lat="43.7594" lon="3.83633">
        <ele>210.67</ele>
        <time>2017-03-09T13:44:15Z</time>
      </trkpt>
      <trkpt lat="43.75942" lon="3.83635">
        <ele>210.19</ele>
        <time>2017-03-09T13:44:17Z</time>
      </trkpt>
      <trkpt lat="43.75951" lon="3.83652">
        <ele>210.19</ele>
        <time>2017-03-09T13:44:29Z</time>
      </trkpt>
      <trkpt lat="43.75954" lon="3.83656">
        <ele>210.19</ele>
        <time>2017-03-09T13:44:33Z</time>
      </trkpt>
      <trkpt lat="43.75959" lon="3.83664">
        <ele>209.7</ele>
        <time>2017-03-09T13:44:39Z</time>
      </trkpt>
      <trkpt lat="43.75961" lon="3.83667">
        <ele>209.7</ele>
        <time>2017-03-09T13:44:41Z</time>
      </trkpt>
      <trkpt lat="43.7597" lon="3.83681">
        <ele>209.22</ele>
        <time>2017-03-09T13:44:53Z</time>
      </trkpt>
      <trkpt lat="43.75971" lon="3.83685">
        <ele>209.22</ele>
        <time>2017-03-09T13:44:56Z</time>
      </trkpt>
      <trkpt lat="43.75976" lon="3.83692">
        <ele>209.22</ele>
        <time>2017-03-09T13:45:08Z</time>
      </trkpt>
      <trkpt lat="43.75979" lon="3.83711">
        <ele>207.78</ele>
        <time>2017-03-09T13:45:20Z</time>
      </trkpt>
      <trkpt lat="43.75987" lon="3.83729">
        <ele>208.26</ele>
        <time>2017-03-09T13:45:32Z</time>
      </trkpt>
      <trkpt lat="43.75992" lon="3.83735">
        <ele>206.82</ele>
        <time>2017-03-09T13:45:37Z</time>
      </trkpt>
      <trkpt lat="43.76005" lon="3.83747">
        <ele>206.34</ele>
        <time>2017-03-09T13:45:51Z</time>
      </trkpt>
      <trkpt lat="43.76019" lon="3.83767">
        <ele>206.34</ele>
        <time>2017-03-09T13:46:08Z</time>
      </trkpt>
      <trkpt lat="43.76027" lon="3.83779">
        <ele>206.34</ele>
        <time>2017-03-09T13:46:19Z</time>
      </trkpt>
      <trkpt lat="43.76027" lon="3.83781">
        <ele>206.34</ele>
        <time>2017-03-09T13:46:20Z</time>
      </trkpt>
      <trkpt lat="43.7603" lon="3.83787">
        <ele>206.82</ele>
        <time>2017-03-09T13:46:25Z</time>
      </trkpt>
      <trkpt lat="43.76028" lon="3.83793">
        <ele>205.86</ele>
        <time>2017-03-09T13:46:31Z</time>
      </trkpt>
      <trkpt lat="43.76016" lon="3.83798">
        <ele>204.9</ele>
        <time>2017-03-09T13:46:42Z</time>
      </trkpt>
      <trkpt lat="43.76015" lon="3.83798">
        <ele>204.9</ele>
        <time>2017-03-09T13:46:43Z</time>
      </trkpt>
      <trkpt lat="43.76011" lon="3.83807">
        <ele>204.42</ele>
        <time>2017-03-09T13:46:50Z</time>
      </trkpt>
      <trkpt lat="43.7601" lon="3.83814">
        <ele>204.42</ele>
        <time>2017-03-09T13:46:54Z</time>
      </trkpt>
      <trkpt lat="43.76008" lon="3.83834">
        <ele>202.98</ele>
        <time>2017-03-09T13:47:06Z</time>
      </trkpt>
      <trkpt lat="43.76009" lon="3.83851">
        <ele>203.46</ele>
        <time>2017-03-09T13:47:16Z</time>
      </trkpt>
      <trkpt lat="43.76008" lon="3.83852">
        <ele>202.98</ele>
        <time>2017-03-09T13:47:17Z</time>
      </trkpt>
      <trkpt lat="43.76007" lon="3.8387">
        <ele>202.01</ele>
        <time>2017-03-09T13:47:28Z</time>
      </trkpt>
      <trkpt lat="43.76008" lon="3.83888">
        <ele>200.57</ele>
        <time>2017-03-09T13:47:39Z</time>
      </trkpt>
      <trkpt lat="43.76011" lon="3.83906">
        <ele>199.61</ele>
        <time>2017-03-09T13:47:50Z</time>
      </trkpt>
      <trkpt lat="43.76015" lon="3.83921">
        <ele>196.25</ele>
        <time>2017-03-09T13:47:59Z</time>
      </trkpt>
      <trkpt lat="43.76016" lon="3.83928">
        <ele>195.28</ele>
        <time>2017-03-09T13:48:03Z</time>
      </trkpt>
      <trkpt lat="43.7602" lon="3.83945">
        <ele>193.84</ele>
        <time>2017-03-09T13:48:14Z</time>
      </trkpt>
      <trkpt lat="43.76024" lon="3.83953">
        <ele>193.36</ele>
        <time>2017-03-09T13:48:19Z</time>
      </trkpt>
      <trkpt lat="43.76033" lon="3.83968">
        <ele>190.48</ele>
        <time>2017-03-09T13:48:30Z</time>
      </trkpt>
      <trkpt lat="43.76034" lon="3.83969">
        <ele>190</ele>
        <time>2017-03-09T13:48:31Z</time>
      </trkpt>
      <trkpt lat="43.7604" lon="3.83984">
        <ele>190</ele>
        <time>2017-03-09T13:48:41Z</time>
      </trkpt>
      <trkpt lat="43.76044" lon="3.83991">
        <ele>189.04</ele>
        <time>2017-03-09T13:48:48Z</time>
      </trkpt>
      <trkpt lat="43.76056" lon="3.84001">
        <ele>186.63</ele>
        <time>2017-03-09T13:48:59Z</time>
      </trkpt>
      <trkpt lat="43.76057" lon="3.84002">
        <ele>186.15</ele>
        <time>2017-03-09T13:49:00Z</time>
      </trkpt>
      <trkpt lat="43.76067" lon="3.84012">
        <ele>185.19</ele>
        <time>2017-03-09T13:49:11Z</time>
      </trkpt>
      <trkpt lat="43.76071" lon="3.84026">
        <ele>185.67</ele>
        <time>2017-03-09T13:49:20Z</time>
      </trkpt>
      <trkpt lat="43.76075" lon="3.84042">
        <ele>183.75</ele>
        <time>2017-03-09T13:49:31Z</time>
      </trkpt>
      <trkpt lat="43.76078" lon="3.8405">
        <ele>182.79</ele>
        <time>2017-03-09T13:49:36Z</time>
      </trkpt>
      <trkpt lat="43.76081" lon="3.84069">
        <ele>181.83</ele>
        <time>2017-03-09T13:49:48Z</time>
      </trkpt>
      <trkpt lat="43.76081" lon="3.8408">
        <ele>179.9</ele>
        <time>2017-03-09T13:49:55Z</time>
      </trkpt>
      <trkpt lat="43.76082" lon="3.84088">
        <ele>179.9</ele>
        <time>2017-03-09T13:49:59Z</time>
      </trkpt>
      <trkpt lat="43.76087" lon="3.84102">
        <ele>179.42</ele>
        <time>2017-03-09T13:50:07Z</time>
      </trkpt>
      <trkpt lat="43.76088" lon="3.84104">
        <ele>178.94</ele>
        <time>2017-03-09T13:50:09Z</time>
      </trkpt>
      <trkpt lat="43.76089" lon="3.84115">
        <ele>177.5</ele>
        <time>2017-03-09T13:50:16Z</time>
      </trkpt>
      <trkpt lat="43.76089" lon="3.84132">
        <ele>176.54</ele>
        <time>2017-03-09T13:50:27Z</time>
      </trkpt>
      <trkpt lat="43.76084" lon="3.8414">
        <ele>174.14</ele>
        <time>2017-03-09T13:50:35Z</time>
      </trkpt>
      <trkpt lat="43.76081" lon="3.84142">
        <ele>173.66</ele>
        <time>2017-03-09T13:50:37Z</time>
      </trkpt>
      <trkpt lat="43.7607" lon="3.84149">
        <ele>172.69</ele>
        <time>2017-03-09T13:50:48Z</time>
      </trkpt>
      <trkpt lat="43.76059" lon="3.84162">
        <ele>171.25</ele>
        <time>2017-03-09T13:50:59Z</time>
      </trkpt>
      <trkpt lat="43.76053" lon="3.84174">
        <ele>170.29</ele>
        <time>2017-03-09T13:51:08Z</time>
      </trkpt>
      <trkpt lat="43.76048" lon="3.84181">
        <ele>168.85</ele>
        <time>2017-03-09T13:51:14Z</time>
      </trkpt>
      <trkpt lat="43.76034" lon="3.84182">
        <ele>167.41</ele>
        <time>2017-03-09T13:51:26Z</time>
      </trkpt>
      <trkpt lat="43.76026" lon="3.84187">
        <ele>166.45</ele>
        <time>2017-03-09T13:51:34Z</time>
      </trkpt>
      <trkpt lat="43.76011" lon="3.842">
        <ele>165</ele>
        <time>2017-03-09T13:51:47Z</time>
      </trkpt>
      <trkpt lat="43.76" lon="3.84209">
        <ele>164.52</ele>
        <time>2017-03-09T13:51:58Z</time>
      </trkpt>
      <trkpt lat="43.75998" lon="3.8421">
        <ele>164.04</ele>
        <time>2017-03-09T13:52:00Z</time>
      </trkpt>
      <trkpt lat="43.75983" lon="3.84217">
        <ele>160.68</ele>
        <time>2017-03-09T13:52:13Z</time>
      </trkpt>
      <trkpt lat="43.75978" lon="3.84218">
        <ele>159.72</ele>
        <time>2017-03-09T13:52:17Z</time>
      </trkpt>
      <trkpt lat="43.75969" lon="3.84233">
        <ele>156.83</ele>
        <time>2017-03-09T13:52:28Z</time>
      </trkpt>
      <trkpt lat="43.75964" lon="3.84238">
        <ele>156.35</ele>
        <time>2017-03-09T13:52:38Z</time>
      </trkpt>
      <trkpt lat="43.75962" lon="3.8424">
        <ele>156.35</ele>
        <time>2017-03-09T13:52:52Z</time>
      </trkpt>
      <trkpt lat="43.75953" lon="3.84243">
        <ele>155.87</ele>
        <time>2017-03-09T13:53:02Z</time>
      </trkpt>
      <trkpt lat="43.75942" lon="3.84247">
        <ele>155.39</ele>
        <time>2017-03-09T13:53:12Z</time>
      </trkpt>
      <trkpt lat="43.75928" lon="3.84256">
        <ele>155.87</ele>
        <time>2017-03-09T13:53:24Z</time>
      </trkpt>
      <trkpt lat="43.75925" lon="3.8426">
        <ele>155.87</ele>
        <time>2017-03-09T13:53:35Z</time>
      </trkpt>
      <trkpt lat="43.75922" lon="3.84261">
        <ele>156.83</ele>
        <time>2017-03-09T13:54:00Z</time>
      </trkpt>
      <trkpt lat="43.75919" lon="3.84261">
        <ele>156.83</ele>
        <time>2017-03-09T13:54:32Z</time>
      </trkpt>
      <trkpt lat="43.75919" lon="3.84262">
        <ele>156.83</ele>
        <time>2017-03-09T13:54:43Z</time>
      </trkpt>
      <trkpt lat="43.7592" lon="3.84266">
        <ele>156.83</ele>
        <time>2017-03-09T13:54:46Z</time>
      </trkpt>
      <trkpt lat="43.75925" lon="3.84283">
        <ele>157.79</ele>
        <time>2017-03-09T13:54:57Z</time>
      </trkpt>
      <trkpt lat="43.75925" lon="3.84291">
        <ele>157.79</ele>
        <time>2017-03-09T13:55:02Z</time>
      </trkpt>
      <trkpt lat="43.75933" lon="3.8431">
        <ele>158.27</ele>
        <time>2017-03-09T13:55:14Z</time>
      </trkpt>
      <trkpt lat="43.75933" lon="3.84312">
        <ele>157.79</ele>
        <time>2017-03-09T13:55:15Z</time>
      </trkpt>
      <trkpt lat="43.75933" lon="3.84329">
        <ele>157.31</ele>
        <time>2017-03-09T13:55:25Z</time>
      </trkpt>
      <trkpt lat="43.75943" lon="3.84338">
        <ele>156.83</ele>
        <time>2017-03-09T13:55:34Z</time>
      </trkpt>
      <trkpt lat="43.75946" lon="3.84343">
        <ele>156.83</ele>
        <time>2017-03-09T13:55:38Z</time>
      </trkpt>
      <trkpt lat="43.75945" lon="3.84354">
        <ele>156.35</ele>
        <time>2017-03-09T13:55:46Z</time>
      </trkpt>
      <trkpt lat="43.75953" lon="3.84371">
        <ele>153.47</ele>
        <time>2017-03-09T13:55:58Z</time>
      </trkpt>
      <trkpt lat="43.75955" lon="3.84376">
        <ele>153.95</ele>
        <time>2017-03-09T13:56:02Z</time>
      </trkpt>
      <trkpt lat="43.75963" lon="3.84396">
        <ele>154.91</ele>
        <time>2017-03-09T13:56:14Z</time>
      </trkpt>
      <trkpt lat="43.75964" lon="3.84397">
        <ele>155.39</ele>
        <time>2017-03-09T13:56:16Z</time>
      </trkpt>
      <trkpt lat="43.75965" lon="3.84399">
        <ele>155.87</ele>
        <time>2017-03-09T13:56:18Z</time>
      </trkpt>
      <trkpt lat="43.75972" lon="3.84416">
        <ele>154.43</ele>
        <time>2017-03-09T13:56:30Z</time>
      </trkpt>
      <trkpt lat="43.75972" lon="3.84417">
        <ele>154.43</ele>
        <time>2017-03-09T13:56:35Z</time>
      </trkpt>
      <trkpt lat="43.7597" lon="3.84424">
        <ele>155.87</ele>
        <time>2017-03-09T13:56:49Z</time>
      </trkpt>
      <trkpt lat="43.75971" lon="3.84427">
        <ele>153.95</ele>
        <time>2017-03-09T13:57:13Z</time>
      </trkpt>
      <trkpt lat="43.75976" lon="3.84429">
        <ele>152.03</ele>
        <time>2017-03-09T13:57:17Z</time>
      </trkpt>
      <trkpt lat="43.75978" lon="3.84436">
        <ele>149.62</ele>
        <time>2017-03-09T13:57:23Z</time>
      </trkpt>
      <trkpt lat="43.75979" lon="3.84444">
        <ele>147.7</ele>
        <time>2017-03-09T13:57:30Z</time>
      </trkpt>
      <trkpt lat="43.75992" lon="3.84459">
        <ele>148.18</ele>
        <time>2017-03-09T13:57:42Z</time>
      </trkpt>
      <trkpt lat="43.76002" lon="3.84473">
        <ele>145.78</ele>
        <time>2017-03-09T13:57:53Z</time>
      </trkpt>
      <trkpt lat="43.76007" lon="3.84482">
        <ele>143.37</ele>
        <time>2017-03-09T13:57:59Z</time>
      </trkpt>
      <trkpt lat="43.76013" lon="3.84497">
        <ele>140.01</ele>
        <time>2017-03-09T13:58:09Z</time>
      </trkpt>
      <trkpt lat="43.76016" lon="3.84503">
        <ele>138.09</ele>
        <time>2017-03-09T13:58:14Z</time>
      </trkpt>
      <trkpt lat="43.76019" lon="3.84517">
        <ele>136.16</ele>
        <time>2017-03-09T13:58:22Z</time>
      </trkpt>
      <trkpt lat="43.7602" lon="3.84525">
        <ele>135.2</ele>
        <time>2017-03-09T13:58:27Z</time>
      </trkpt>
      <trkpt lat="43.76021" lon="3.84537">
        <ele>136.16</ele>
        <time>2017-03-09T13:58:34Z</time>
      </trkpt>
      <trkpt lat="43.7602" lon="3.84547">
        <ele>137.13</ele>
        <time>2017-03-09T13:58:39Z</time>
      </trkpt>
      <trkpt lat="43.76021" lon="3.8457">
        <ele>139.53</ele>
        <time>2017-03-09T13:58:51Z</time>
      </trkpt>
      <trkpt lat="43.76021" lon="3.84571">
        <ele>139.53</ele>
        <time>2017-03-09T13:58:52Z</time>
      </trkpt>
      <trkpt lat="43.76027" lon="3.84593">
        <ele>140.01</ele>
        <time>2017-03-09T13:59:03Z</time>
      </trkpt>
      <trkpt lat="43.76031" lon="3.84605">
        <ele>140.01</ele>
        <time>2017-03-09T13:59:12Z</time>
      </trkpt>
      <trkpt lat="43.76033" lon="3.84608">
        <ele>138.57</ele>
        <time>2017-03-09T13:59:25Z</time>
      </trkpt>
      <trkpt lat="43.76036" lon="3.8461">
        <ele>136.64</ele>
        <time>2017-03-09T13:59:52Z</time>
      </trkpt>
      <trkpt lat="43.76037" lon="3.84616">
        <ele>136.16</ele>
        <time>2017-03-09T13:59:56Z</time>
      </trkpt>
      <trkpt lat="43.76036" lon="3.84638">
        <ele>132.32</ele>
        <time>2017-03-09T14:00:10Z</time>
      </trkpt>
      <trkpt lat="43.76031" lon="3.84649">
        <ele>133.76</ele>
        <time>2017-03-09T14:00:17Z</time>
      </trkpt>
      <trkpt lat="43.7603" lon="3.84657">
        <ele>134.24</ele>
        <time>2017-03-09T14:00:21Z</time>
      </trkpt>
      <trkpt lat="43.76024" lon="3.84665">
        <ele>133.28</ele>
        <time>2017-03-09T14:00:27Z</time>
      </trkpt>
      <trkpt lat="43.76012" lon="3.8468">
        <ele>130.88</ele>
        <time>2017-03-09T14:00:38Z</time>
      </trkpt>
      <trkpt lat="43.76012" lon="3.84688">
        <ele>129.92</ele>
        <time>2017-03-09T14:00:43Z</time>
      </trkpt>
      <trkpt lat="43.76019" lon="3.84709">
        <ele>125.59</ele>
        <time>2017-03-09T14:00:55Z</time>
      </trkpt>
      <trkpt lat="43.7602" lon="3.84716">
        <ele>122.22</ele>
        <time>2017-03-09T14:01:07Z</time>
      </trkpt>
      <trkpt lat="43.76028" lon="3.84725">
        <ele>120.3</ele>
        <time>2017-03-09T14:01:16Z</time>
      </trkpt>
      <trkpt lat="43.76042" lon="3.84723">
        <ele>116.94</ele>
        <time>2017-03-09T14:01:27Z</time>
      </trkpt>
      <trkpt lat="43.76055" lon="3.84707">
        <ele>111.65</ele>
        <time>2017-03-09T14:01:40Z</time>
      </trkpt>
      <trkpt lat="43.76056" lon="3.84706">
        <ele>111.17</ele>
        <time>2017-03-09T14:01:42Z</time>
      </trkpt>
      <trkpt lat="43.76059" lon="3.84717">
        <ele>111.65</ele>
        <time>2017-03-09T14:01:52Z</time>
      </trkpt>
      <trkpt lat="43.76057" lon="3.84724">
        <ele>112.13</ele>
        <time>2017-03-09T14:01:57Z</time>
      </trkpt>
      <trkpt lat="43.76056" lon="3.84735">
        <ele>114.05</ele>
        <time>2017-03-09T14:02:04Z</time>
      </trkpt>
      <trkpt lat="43.76052" lon="3.84749">
        <ele>115.5</ele>
        <time>2017-03-09T14:02:13Z</time>
      </trkpt>
      <trkpt lat="43.76049" lon="3.84752">
        <ele>115.5</ele>
        <time>2017-03-09T14:02:18Z</time>
      </trkpt>
      <trkpt lat="43.76044" lon="3.84754">
        <ele>115.5</ele>
        <time>2017-03-09T14:02:23Z</time>
      </trkpt>
      <trkpt lat="43.76032" lon="3.84758">
        <ele>114.53</ele>
        <time>2017-03-09T14:02:35Z</time>
      </trkpt>
      <trkpt lat="43.76032" lon="3.84765">
        <ele>111.65</ele>
        <time>2017-03-09T14:02:52Z</time>
      </trkpt>
      <trkpt lat="43.7602" lon="3.8476">
        <ele>110.69</ele>
        <time>2017-03-09T14:03:04Z</time>
      </trkpt>
      <trkpt lat="43.7602" lon="3.84759">
        <ele>110.21</ele>
        <time>2017-03-09T14:03:05Z</time>
      </trkpt>
      <trkpt lat="43.76009" lon="3.84749">
        <ele>107.32</ele>
        <time>2017-03-09T14:03:16Z</time>
      </trkpt>
      <trkpt lat="43.76004" lon="3.84743">
        <ele>106.36</ele>
        <time>2017-03-09T14:03:22Z</time>
      </trkpt>
      <trkpt lat="43.75999" lon="3.84736">
        <ele>105.88</ele>
        <time>2017-03-09T14:03:27Z</time>
      </trkpt>
      <trkpt lat="43.75997" lon="3.84734">
        <ele>105.88</ele>
        <time>2017-03-09T14:03:29Z</time>
      </trkpt>
      <trkpt lat="43.75992" lon="3.84731">
        <ele>105.4</ele>
        <time>2017-03-09T14:03:34Z</time>
      </trkpt>
      <trkpt lat="43.75985" lon="3.84722">
        <ele>105.4</ele>
        <time>2017-03-09T14:03:41Z</time>
      </trkpt>
      <trkpt lat="43.75976" lon="3.84708">
        <ele>107.32</ele>
        <time>2017-03-09T14:03:51Z</time>
      </trkpt>
      <trkpt lat="43.75972" lon="3.84701">
        <ele>107.81</ele>
        <time>2017-03-09T14:03:56Z</time>
      </trkpt>
      <trkpt lat="43.75967" lon="3.84691">
        <ele>107.81</ele>
        <time>2017-03-09T14:04:03Z</time>
      </trkpt>
      <trkpt lat="43.7596" lon="3.84672">
        <ele>110.21</ele>
        <time>2017-03-09T14:04:14Z</time>
      </trkpt>
      <trkpt lat="43.75954" lon="3.84656">
        <ele>112.13</ele>
        <time>2017-03-09T14:04:24Z</time>
      </trkpt>
      <trkpt lat="43.7595" lon="3.84647">
        <ele>112.61</ele>
        <time>2017-03-09T14:04:30Z</time>
      </trkpt>
      <trkpt lat="43.75945" lon="3.84633">
        <ele>114.05</ele>
        <time>2017-03-09T14:04:40Z</time>
      </trkpt>
      <trkpt lat="43.75933" lon="3.84621">
        <ele>113.09</ele>
        <time>2017-03-09T14:04:51Z</time>
      </trkpt>
      <trkpt lat="43.75929" lon="3.84616">
        <ele>112.13</ele>
        <time>2017-03-09T14:04:55Z</time>
      </trkpt>
      <trkpt lat="43.75923" lon="3.84609">
        <ele>112.13</ele>
        <time>2017-03-09T14:05:00Z</time>
      </trkpt>
      <trkpt lat="43.75919" lon="3.84607">
        <ele>111.65</ele>
        <time>2017-03-09T14:05:03Z</time>
      </trkpt>
      <trkpt lat="43.75912" lon="3.84604">
        <ele>109.25</ele>
        <time>2017-03-09T14:05:09Z</time>
      </trkpt>
      <trkpt lat="43.75906" lon="3.84601">
        <ele>106.84</ele>
        <time>2017-03-09T14:05:15Z</time>
      </trkpt>
      <trkpt lat="43.75901" lon="3.846">
        <ele>106.84</ele>
        <time>2017-03-09T14:05:19Z</time>
      </trkpt>
      <trkpt lat="43.75897" lon="3.846">
        <ele>106.84</ele>
        <time>2017-03-09T14:05:22Z</time>
      </trkpt>
      <trkpt lat="43.75894" lon="3.84601">
        <ele>106.84</ele>
        <time>2017-03-09T14:05:24Z</time>
      </trkpt>
      <trkpt lat="43.75879" lon="3.84599">
        <ele>105.88</ele>
        <time>2017-03-09T14:05:36Z</time>
      </trkpt>
      <trkpt lat="43.75866" lon="3.846">
        <ele>103</ele>
        <time>2017-03-09T14:05:45Z</time>
      </trkpt>
      <trkpt lat="43.75853" lon="3.84601">
        <ele>103</ele>
        <time>2017-03-09T14:05:56Z</time>
      </trkpt>
      <trkpt lat="43.75844" lon="3.846">
        <ele>105.88</ele>
        <time>2017-03-09T14:06:07Z</time>
      </trkpt>
      <trkpt lat="43.75836" lon="3.84607">
        <ele>103.96</ele>
        <time>2017-03-09T14:06:22Z</time>
      </trkpt>
      <trkpt lat="43.75831" lon="3.84612">
        <ele>104.92</ele>
        <time>2017-03-09T14:06:36Z</time>
      </trkpt>
      <trkpt lat="43.75826" lon="3.84616">
        <ele>107.32</ele>
        <time>2017-03-09T14:06:49Z</time>
      </trkpt>
      <trkpt lat="43.75829" lon="3.84623">
        <ele>111.65</ele>
        <time>2017-03-09T14:07:02Z</time>
      </trkpt>
      <trkpt lat="43.75833" lon="3.84627">
        <ele>114.05</ele>
        <time>2017-03-09T14:07:15Z</time>
      </trkpt>
      <trkpt lat="43.75833" lon="3.84628">
        <ele>117.42</ele>
        <time>2017-03-09T14:07:41Z</time>
      </trkpt>
      <trkpt lat="43.7583" lon="3.84627">
        <ele>117.42</ele>
        <time>2017-03-09T14:08:09Z</time>
      </trkpt>
      <trkpt lat="43.75829" lon="3.84625">
        <ele>113.09</ele>
        <time>2017-03-09T14:08:24Z</time>
      </trkpt>
      <trkpt lat="43.7583" lon="3.84625">
        <ele>112.61</ele>
        <time>2017-03-09T14:08:38Z</time>
      </trkpt>
      <trkpt lat="43.75825" lon="3.84629">
        <ele>113.09</ele>
        <time>2017-03-09T14:08:54Z</time>
      </trkpt>
      <trkpt lat="43.75823" lon="3.84637">
        <ele>112.61</ele>
        <time>2017-03-09T14:09:10Z</time>
      </trkpt>
      <trkpt lat="43.75823" lon="3.84632">
        <ele>110.69</ele>
        <time>2017-03-09T14:09:33Z</time>
      </trkpt>
      <trkpt lat="43.75828" lon="3.84628">
        <ele>106.84</ele>
        <time>2017-03-09T14:09:45Z</time>
      </trkpt>
      <trkpt lat="43.75834" lon="3.84629">
        <ele>104.92</ele>
        <time>2017-03-09T14:09:59Z</time>
      </trkpt>
      <trkpt lat="43.75837" lon="3.84633">
        <ele>103.96</ele>
        <time>2017-03-09T14:10:13Z</time>
      </trkpt>
      <trkpt lat="43.7584" lon="3.84641">
        <ele>105.88</ele>
        <time>2017-03-09T14:10:26Z</time>
      </trkpt>
      <trkpt lat="43.7584" lon="3.84645">
        <ele>106.84</ele>
        <time>2017-03-09T14:10:34Z</time>
      </trkpt>
      <trkpt lat="43.75842" lon="3.84651">
        <ele>110.21</ele>
        <time>2017-03-09T14:10:47Z</time>
      </trkpt>
      <trkpt lat="43.75846" lon="3.84647">
        <ele>112.61</ele>
        <time>2017-03-09T14:10:59Z</time>
      </trkpt>
      <trkpt lat="43.75851" lon="3.84647">
        <ele>112.13</ele>
        <time>2017-03-09T14:11:12Z</time>
      </trkpt>
      <trkpt lat="43.75852" lon="3.84646">
        <ele>111.65</ele>
        <time>2017-03-09T14:11:14Z</time>
      </trkpt>
      <trkpt lat="43.75858" lon="3.84642">
        <ele>112.13</ele>
        <time>2017-03-09T14:11:28Z</time>
      </trkpt>
      <trkpt lat="43.75862" lon="3.84646">
        <ele>114.53</ele>
        <time>2017-03-09T14:11:41Z</time>
      </trkpt>
      <trkpt lat="43.75869" lon="3.84644">
        <ele>115.5</ele>
        <time>2017-03-09T14:11:55Z</time>
      </trkpt>
      <trkpt lat="43.75875" lon="3.84643">
        <ele>115.5</ele>
        <time>2017-03-09T14:12:06Z</time>
      </trkpt>
      <trkpt lat="43.75877" lon="3.84646">
        <ele>117.42</ele>
        <time>2017-03-09T14:12:21Z</time>
      </trkpt>
      <trkpt lat="43.75877" lon="3.84645">
        <ele>119.82</ele>
        <time>2017-03-09T14:12:43Z</time>
      </trkpt>
      <trkpt lat="43.75875" lon="3.8465">
        <ele>120.3</ele>
        <time>2017-03-09T14:12:59Z</time>
      </trkpt>
      <trkpt lat="43.75872" lon="3.84662">
        <ele>122.22</ele>
        <time>2017-03-09T14:13:14Z</time>
      </trkpt>
      <trkpt lat="43.75874" lon="3.84674">
        <ele>122.71</ele>
        <time>2017-03-09T14:13:27Z</time>
      </trkpt>
      <trkpt lat="43.75875" lon="3.84684">
        <ele>121.26</ele>
        <time>2017-03-09T14:13:38Z</time>
      </trkpt>
      <trkpt lat="43.75878" lon="3.84691">
        <ele>122.71</ele>
        <time>2017-03-09T14:13:53Z</time>
      </trkpt>
      <trkpt lat="43.75877" lon="3.8469">
        <ele>126.55</ele>
        <time>2017-03-09T14:14:08Z</time>
      </trkpt>
      <trkpt lat="43.7588" lon="3.84699">
        <ele>127.99</ele>
        <time>2017-03-09T14:14:27Z</time>
      </trkpt>
      <trkpt lat="43.75884" lon="3.84713">
        <ele>126.55</ele>
        <time>2017-03-09T14:14:39Z</time>
      </trkpt>
      <trkpt lat="43.75884" lon="3.84728">
        <ele>126.55</ele>
        <time>2017-03-09T14:14:52Z</time>
      </trkpt>
      <trkpt lat="43.75886" lon="3.84736">
        <ele>126.55</ele>
        <time>2017-03-09T14:15:01Z</time>
      </trkpt>
      <trkpt lat="43.75882" lon="3.84741">
        <ele>128.95</ele>
        <time>2017-03-09T14:15:05Z</time>
      </trkpt>
      <trkpt lat="43.75881" lon="3.84745">
        <ele>129.92</ele>
        <time>2017-03-09T14:15:08Z</time>
      </trkpt>
      <trkpt lat="43.7589" lon="3.84756">
        <ele>128.95</ele>
        <time>2017-03-09T14:15:21Z</time>
      </trkpt>
      <trkpt lat="43.75894" lon="3.84767">
        <ele>129.43</ele>
        <time>2017-03-09T14:15:30Z</time>
      </trkpt>
      <trkpt lat="43.75895" lon="3.84775">
        <ele>129.43</ele>
        <time>2017-03-09T14:15:35Z</time>
      </trkpt>
      <trkpt lat="43.759" lon="3.84786">
        <ele>127.51</ele>
        <time>2017-03-09T14:15:49Z</time>
      </trkpt>
      <trkpt lat="43.75902" lon="3.84786">
        <ele>127.51</ele>
        <time>2017-03-09T14:15:51Z</time>
      </trkpt>
      <trkpt lat="43.75911" lon="3.84799">
        <ele>129.43</ele>
        <time>2017-03-09T14:16:04Z</time>
      </trkpt>
      <trkpt lat="43.7592" lon="3.84811">
        <ele>128.95</ele>
        <time>2017-03-09T14:16:15Z</time>
      </trkpt>
      <trkpt lat="43.75925" lon="3.84819">
        <ele>128.95</ele>
        <time>2017-03-09T14:16:22Z</time>
      </trkpt>
      <trkpt lat="43.75932" lon="3.84826">
        <ele>128.47</ele>
        <time>2017-03-09T14:16:32Z</time>
      </trkpt>
      <trkpt lat="43.75934" lon="3.84825">
        <ele>127.51</ele>
        <time>2017-03-09T14:16:34Z</time>
      </trkpt>
      <trkpt lat="43.75948" lon="3.84835">
        <ele>127.51</ele>
        <time>2017-03-09T14:16:48Z</time>
      </trkpt>
      <trkpt lat="43.75955" lon="3.8485">
        <ele>131.36</ele>
        <time>2017-03-09T14:17:00Z</time>
      </trkpt>
      <trkpt lat="43.75965" lon="3.84861">
        <ele>132.32</ele>
        <time>2017-03-09T14:17:12Z</time>
      </trkpt>
      <trkpt lat="43.75977" lon="3.84874">
        <ele>134.72</ele>
        <time>2017-03-09T14:17:26Z</time>
      </trkpt>
      <trkpt lat="43.7598" lon="3.84876">
        <ele>135.2</ele>
        <time>2017-03-09T14:17:28Z</time>
      </trkpt>
      <trkpt lat="43.75989" lon="3.84886">
        <ele>136.64</ele>
        <time>2017-03-09T14:17:40Z</time>
      </trkpt>
      <trkpt lat="43.75995" lon="3.84892">
        <ele>137.61</ele>
        <time>2017-03-09T14:17:48Z</time>
      </trkpt>
      <trkpt lat="43.75999" lon="3.84896">
        <ele>137.61</ele>
        <time>2017-03-09T14:17:52Z</time>
      </trkpt>
      <trkpt lat="43.76008" lon="3.84893">
        <ele>137.61</ele>
        <time>2017-03-09T14:18:05Z</time>
      </trkpt>
      <trkpt lat="43.76014" lon="3.84885">
        <ele>137.13</ele>
        <time>2017-03-09T14:18:18Z</time>
      </trkpt>
      <trkpt lat="43.76016" lon="3.84879">
        <ele>138.57</ele>
        <time>2017-03-09T14:18:30Z</time>
      </trkpt>
      <trkpt lat="43.76022" lon="3.8487">
        <ele>137.13</ele>
        <time>2017-03-09T14:18:44Z</time>
      </trkpt>
      <trkpt lat="43.76023" lon="3.84866">
        <ele>139.53</ele>
        <time>2017-03-09T14:18:59Z</time>
      </trkpt>
      <trkpt lat="43.76021" lon="3.84868">
        <ele>142.41</ele>
        <time>2017-03-09T14:19:22Z</time>
      </trkpt>
      <trkpt lat="43.7602" lon="3.84865">
        <ele>145.3</ele>
        <time>2017-03-09T14:19:55Z</time>
      </trkpt>
      <trkpt lat="43.76018" lon="3.84874">
        <ele>145.78</ele>
        <time>2017-03-09T14:20:12Z</time>
      </trkpt>
      <trkpt lat="43.76016" lon="3.84879">
        <ele>146.26</ele>
        <time>2017-03-09T14:20:19Z</time>
      </trkpt>
      <trkpt lat="43.76011" lon="3.8489">
        <ele>147.22</ele>
        <time>2017-03-09T14:20:32Z</time>
      </trkpt>
      <trkpt lat="43.76011" lon="3.84898">
        <ele>146.26</ele>
        <time>2017-03-09T14:20:45Z</time>
      </trkpt>
      <trkpt lat="43.76014" lon="3.84906">
        <ele>145.3</ele>
        <time>2017-03-09T14:20:54Z</time>
      </trkpt>
      <trkpt lat="43.76016" lon="3.84912">
        <ele>143.85</ele>
        <time>2017-03-09T14:20:58Z</time>
      </trkpt>
      <trkpt lat="43.76027" lon="3.84921">
        <ele>138.57</ele>
        <time>2017-03-09T14:21:10Z</time>
      </trkpt>
      <trkpt lat="43.76037" lon="3.84933">
        <ele>137.61</ele>
        <time>2017-03-09T14:21:22Z</time>
      </trkpt>
      <trkpt lat="43.76051" lon="3.84947">
        <ele>137.13</ele>
        <time>2017-03-09T14:21:34Z</time>
      </trkpt>
      <trkpt lat="43.76064" lon="3.84958">
        <ele>135.2</ele>
        <time>2017-03-09T14:21:44Z</time>
      </trkpt>
      <trkpt lat="43.76066" lon="3.8496">
        <ele>134.72</ele>
        <time>2017-03-09T14:21:46Z</time>
      </trkpt>
      <trkpt lat="43.76079" lon="3.84969">
        <ele>134.24</ele>
        <time>2017-03-09T14:21:58Z</time>
      </trkpt>
      <trkpt lat="43.76091" lon="3.8498">
        <ele>134.72</ele>
        <time>2017-03-09T14:22:10Z</time>
      </trkpt>
      <trkpt lat="43.76103" lon="3.84995">
        <ele>134.24</ele>
        <time>2017-03-09T14:22:21Z</time>
      </trkpt>
      <trkpt lat="43.76105" lon="3.84999">
        <ele>134.24</ele>
        <time>2017-03-09T14:22:24Z</time>
      </trkpt>
      <trkpt lat="43.76117" lon="3.85008">
        <ele>130.4</ele>
        <time>2017-03-09T14:22:34Z</time>
      </trkpt>
      <trkpt lat="43.76131" lon="3.85019">
        <ele>127.99</ele>
        <time>2017-03-09T14:22:45Z</time>
      </trkpt>
      <trkpt lat="43.76144" lon="3.85031">
        <ele>127.03</ele>
        <time>2017-03-09T14:22:56Z</time>
      </trkpt>
      <trkpt lat="43.76159" lon="3.85042">
        <ele>128.95</ele>
        <time>2017-03-09T14:23:08Z</time>
      </trkpt>
      <trkpt lat="43.7617" lon="3.85049">
        <ele>131.36</ele>
        <time>2017-03-09T14:23:17Z</time>
      </trkpt>
      <trkpt lat="43.76172" lon="3.85049">
        <ele>131.84</ele>
        <time>2017-03-09T14:23:18Z</time>
      </trkpt>
      <trkpt lat="43.76182" lon="3.85058">
        <ele>133.76</ele>
        <time>2017-03-09T14:23:28Z</time>
      </trkpt>
      <trkpt lat="43.76193" lon="3.85066">
        <ele>134.72</ele>
        <time>2017-03-09T14:23:38Z</time>
      </trkpt>
      <trkpt lat="43.76203" lon="3.85075">
        <ele>135.2</ele>
        <time>2017-03-09T14:23:49Z</time>
      </trkpt>
      <trkpt lat="43.76217" lon="3.85082">
        <ele>136.16</ele>
        <time>2017-03-09T14:23:59Z</time>
      </trkpt>
      <trkpt lat="43.76228" lon="3.8509">
        <ele>136.16</ele>
        <time>2017-03-09T14:24:08Z</time>
      </trkpt>
      <trkpt lat="43.7623" lon="3.85091">
        <ele>136.64</ele>
        <time>2017-03-09T14:24:09Z</time>
      </trkpt>
      <trkpt lat="43.76232" lon="3.85092">
        <ele>136.64</ele>
        <time>2017-03-09T14:24:10Z</time>
      </trkpt>
      <trkpt lat="43.76246" lon="3.85098">
        <ele>136.16</ele>
        <time>2017-03-09T14:24:23Z</time>
      </trkpt>
      <trkpt lat="43.76247" lon="3.85098">
        <ele>136.16</ele>
        <time>2017-03-09T14:24:24Z</time>
      </trkpt>
      <trkpt lat="43.76264" lon="3.85103">
        <ele>136.16</ele>
        <time>2017-03-09T14:24:39Z</time>
      </trkpt>
      <trkpt lat="43.76266" lon="3.85103">
        <ele>136.16</ele>
        <time>2017-03-09T14:24:41Z</time>
      </trkpt>
      <trkpt lat="43.76277" lon="3.85106">
        <ele>134.24</ele>
        <time>2017-03-09T14:24:49Z</time>
      </trkpt>
      <trkpt lat="43.7629" lon="3.85114">
        <ele>131.36</ele>
        <time>2017-03-09T14:25:00Z</time>
      </trkpt>
      <trkpt lat="43.76293" lon="3.85116">
        <ele>132.8</ele>
        <time>2017-03-09T14:25:19Z</time>
      </trkpt>
      <trkpt lat="43.76296" lon="3.85115">
        <ele>136.64</ele>
        <time>2017-03-09T14:25:40Z</time>
      </trkpt>
      <trkpt lat="43.76296" lon="3.85112">
        <ele>135.2</ele>
        <time>2017-03-09T14:26:04Z</time>
      </trkpt>
      <trkpt lat="43.76304" lon="3.85117">
        <ele>135.68</ele>
        <time>2017-03-09T14:26:17Z</time>
      </trkpt>
      <trkpt lat="43.76307" lon="3.85121">
        <ele>135.2</ele>
        <time>2017-03-09T14:26:28Z</time>
      </trkpt>
      <trkpt lat="43.7631" lon="3.85121">
        <ele>134.24</ele>
        <time>2017-03-09T14:26:32Z</time>
      </trkpt>
      <trkpt lat="43.76316" lon="3.85124">
        <ele>134.24</ele>
        <time>2017-03-09T14:26:38Z</time>
      </trkpt>
      <trkpt lat="43.76326" lon="3.85131">
        <ele>133.28</ele>
        <time>2017-03-09T14:26:48Z</time>
      </trkpt>
      <trkpt lat="43.76334" lon="3.85141">
        <ele>132.32</ele>
        <time>2017-03-09T14:26:58Z</time>
      </trkpt>
      <trkpt lat="43.76346" lon="3.85142">
        <ele>132.32</ele>
        <time>2017-03-09T14:27:09Z</time>
      </trkpt>
      <trkpt lat="43.76351" lon="3.85142">
        <ele>132.32</ele>
        <time>2017-03-09T14:27:13Z</time>
      </trkpt>
      <trkpt lat="43.76353" lon="3.85144">
        <ele>132.32</ele>
        <time>2017-03-09T14:27:14Z</time>
      </trkpt>
      <trkpt lat="43.76354" lon="3.85145">
        <ele>132.32</ele>
        <time>2017-03-09T14:27:15Z</time>
      </trkpt>
      <trkpt lat="43.76356" lon="3.85147">
        <ele>132.8</ele>
        <time>2017-03-09T14:27:16Z</time>
      </trkpt>
      <trkpt lat="43.76367" lon="3.85152">
        <ele>131.84</ele>
        <time>2017-03-09T14:27:25Z</time>
      </trkpt>
      <trkpt lat="43.76379" lon="3.85156">
        <ele>130.4</ele>
        <time>2017-03-09T14:27:36Z</time>
      </trkpt>
      <trkpt lat="43.76391" lon="3.85158">
        <ele>129.92</ele>
        <time>2017-03-09T14:27:46Z</time>
      </trkpt>
      <trkpt lat="43.76401" lon="3.85167">
        <ele>128.95</ele>
        <time>2017-03-09T14:27:58Z</time>
      </trkpt>
      <trkpt lat="43.76403" lon="3.85168">
        <ele>130.88</ele>
        <time>2017-03-09T14:28:13Z</time>
      </trkpt>
      <trkpt lat="43.76406" lon="3.85173">
        <ele>131.36</ele>
        <time>2017-03-09T14:28:20Z</time>
      </trkpt>
      <trkpt lat="43.76405" lon="3.85176">
        <ele>132.32</ele>
        <time>2017-03-09T14:28:24Z</time>
      </trkpt>
      <trkpt lat="43.76413" lon="3.85184">
        <ele>131.84</ele>
        <time>2017-03-09T14:28:37Z</time>
      </trkpt>
      <trkpt lat="43.76414" lon="3.85182">
        <ele>131.84</ele>
        <time>2017-03-09T14:28:39Z</time>
      </trkpt>
      <trkpt lat="43.76425" lon="3.85192">
        <ele>129.92</ele>
        <time>2017-03-09T14:28:50Z</time>
      </trkpt>
      <trkpt lat="43.76434" lon="3.85201">
        <ele>129.43</ele>
        <time>2017-03-09T14:28:59Z</time>
      </trkpt>
      <trkpt lat="43.76439" lon="3.852">
        <ele>129.92</ele>
        <time>2017-03-09T14:29:03Z</time>
      </trkpt>
      <trkpt lat="43.76453" lon="3.852">
        <ele>130.88</ele>
        <time>2017-03-09T14:29:14Z</time>
      </trkpt>
      <trkpt lat="43.76458" lon="3.85205">
        <ele>130.88</ele>
        <time>2017-03-09T14:29:19Z</time>
      </trkpt>
      <trkpt lat="43.76471" lon="3.85213">
        <ele>130.88</ele>
        <time>2017-03-09T14:29:29Z</time>
      </trkpt>
      <trkpt lat="43.76483" lon="3.85223">
        <ele>128.95</ele>
        <time>2017-03-09T14:29:39Z</time>
      </trkpt>
      <trkpt lat="43.76492" lon="3.85232">
        <ele>128.47</ele>
        <time>2017-03-09T14:29:49Z</time>
      </trkpt>
      <trkpt lat="43.76504" lon="3.85245">
        <ele>129.92</ele>
        <time>2017-03-09T14:30:04Z</time>
      </trkpt>
      <trkpt lat="43.76505" lon="3.85247">
        <ele>130.4</ele>
        <time>2017-03-09T14:30:06Z</time>
      </trkpt>
      <trkpt lat="43.76511" lon="3.85255">
        <ele>132.32</ele>
        <time>2017-03-09T14:30:15Z</time>
      </trkpt>
      <trkpt lat="43.76511" lon="3.85259">
        <ele>133.28</ele>
        <time>2017-03-09T14:30:19Z</time>
      </trkpt>
      <trkpt lat="43.76508" lon="3.85262">
        <ele>133.28</ele>
        <time>2017-03-09T14:30:35Z</time>
      </trkpt>
      <trkpt lat="43.76511" lon="3.85261">
        <ele>134.24</ele>
        <time>2017-03-09T14:30:43Z</time>
      </trkpt>
      <trkpt lat="43.76514" lon="3.85257">
        <ele>135.68</ele>
        <time>2017-03-09T14:30:48Z</time>
      </trkpt>
      <trkpt lat="43.76525" lon="3.85265">
        <ele>136.64</ele>
        <time>2017-03-09T14:31:00Z</time>
      </trkpt>
      <trkpt lat="43.76526" lon="3.85266">
        <ele>136.16</ele>
        <time>2017-03-09T14:31:01Z</time>
      </trkpt>
      <trkpt lat="43.76531" lon="3.85272">
        <ele>136.64</ele>
        <time>2017-03-09T14:31:06Z</time>
      </trkpt>
      <trkpt lat="43.76534" lon="3.85279">
        <ele>136.64</ele>
        <time>2017-03-09T14:31:11Z</time>
      </trkpt>
      <trkpt lat="43.76535" lon="3.8529">
        <ele>136.64</ele>
        <time>2017-03-09T14:31:23Z</time>
      </trkpt>
      <trkpt lat="43.76537" lon="3.85292">
        <ele>136.64</ele>
        <time>2017-03-09T14:31:27Z</time>
      </trkpt>
      <trkpt lat="43.76538" lon="3.85296">
        <ele>137.13</ele>
        <time>2017-03-09T14:31:30Z</time>
      </trkpt>
      <trkpt lat="43.76534" lon="3.85304">
        <ele>139.05</ele>
        <time>2017-03-09T14:31:39Z</time>
      </trkpt>
      <trkpt lat="43.76531" lon="3.85307">
        <ele>139.05</ele>
        <time>2017-03-09T14:31:43Z</time>
      </trkpt>
      <trkpt lat="43.76527" lon="3.85319">
        <ele>140.01</ele>
        <time>2017-03-09T14:31:54Z</time>
      </trkpt>
      <trkpt lat="43.76523" lon="3.85328">
        <ele>141.45</ele>
        <time>2017-03-09T14:32:04Z</time>
      </trkpt>
      <trkpt lat="43.76519" lon="3.85341">
        <ele>140.97</ele>
        <time>2017-03-09T14:32:14Z</time>
      </trkpt>
      <trkpt lat="43.76518" lon="3.85353">
        <ele>141.93</ele>
        <time>2017-03-09T14:32:22Z</time>
      </trkpt>
      <trkpt lat="43.76515" lon="3.85359">
        <ele>141.45</ele>
        <time>2017-03-09T14:32:34Z</time>
      </trkpt>
      <trkpt lat="43.76514" lon="3.85358">
        <ele>141.45</ele>
        <time>2017-03-09T14:32:35Z</time>
      </trkpt>
      <trkpt lat="43.7651" lon="3.85351">
        <ele>140.49</ele>
        <time>2017-03-09T14:32:44Z</time>
      </trkpt>
      <trkpt lat="43.76508" lon="3.85351">
        <ele>140.97</ele>
        <time>2017-03-09T14:32:58Z</time>
      </trkpt>
      <trkpt lat="43.7651" lon="3.85353">
        <ele>140.49</ele>
        <time>2017-03-09T14:33:13Z</time>
      </trkpt>
      <trkpt lat="43.76516" lon="3.85357">
        <ele>139.05</ele>
        <time>2017-03-09T14:33:23Z</time>
      </trkpt>
      <trkpt lat="43.76517" lon="3.85356">
        <ele>139.05</ele>
        <time>2017-03-09T14:33:24Z</time>
      </trkpt>
      <trkpt lat="43.76518" lon="3.85353">
        <ele>139.53</ele>
        <time>2017-03-09T14:33:27Z</time>
      </trkpt>
      <trkpt lat="43.76519" lon="3.85349">
        <ele>140.49</ele>
        <time>2017-03-09T14:33:30Z</time>
      </trkpt>
      <trkpt lat="43.76521" lon="3.85335">
        <ele>139.53</ele>
        <time>2017-03-09T14:33:41Z</time>
      </trkpt>
      <trkpt lat="43.76523" lon="3.85329">
        <ele>139.53</ele>
        <time>2017-03-09T14:33:47Z</time>
      </trkpt>
      <trkpt lat="43.76529" lon="3.85318">
        <ele>139.05</ele>
        <time>2017-03-09T14:33:57Z</time>
      </trkpt>
      <trkpt lat="43.7653" lon="3.85315">
        <ele>138.57</ele>
        <time>2017-03-09T14:34:00Z</time>
      </trkpt>
      <trkpt lat="43.76532" lon="3.85309">
        <ele>138.09</ele>
        <time>2017-03-09T14:34:05Z</time>
      </trkpt>
      <trkpt lat="43.76535" lon="3.85304">
        <ele>137.13</ele>
        <time>2017-03-09T14:34:11Z</time>
      </trkpt>
      <trkpt lat="43.76537" lon="3.85295">
        <ele>137.13</ele>
        <time>2017-03-09T14:34:20Z</time>
      </trkpt>
      <trkpt lat="43.76535" lon="3.85291">
        <ele>137.13</ele>
        <time>2017-03-09T14:34:24Z</time>
      </trkpt>
      <trkpt lat="43.76526" lon="3.85284">
        <ele>136.64</ele>
        <time>2017-03-09T14:34:34Z</time>
      </trkpt>
      <trkpt lat="43.76521" lon="3.85281">
        <ele>136.64</ele>
        <time>2017-03-09T14:34:44Z</time>
      </trkpt>
      <trkpt lat="43.76518" lon="3.8528">
        <ele>138.57</ele>
        <time>2017-03-09T14:35:03Z</time>
      </trkpt>
      <trkpt lat="43.76516" lon="3.85277">
        <ele>138.57</ele>
        <time>2017-03-09T14:35:14Z</time>
      </trkpt>
      <trkpt lat="43.76511" lon="3.85272">
        <ele>139.53</ele>
        <time>2017-03-09T14:35:27Z</time>
      </trkpt>
      <trkpt lat="43.7651" lon="3.85268">
        <ele>139.05</ele>
        <time>2017-03-09T14:35:31Z</time>
      </trkpt>
      <trkpt lat="43.76502" lon="3.85263">
        <ele>138.09</ele>
        <time>2017-03-09T14:35:41Z</time>
      </trkpt>
      <trkpt lat="43.76497" lon="3.85262">
        <ele>138.57</ele>
        <time>2017-03-09T14:35:50Z</time>
      </trkpt>
      <trkpt lat="43.76497" lon="3.85265">
        <ele>139.53</ele>
        <time>2017-03-09T14:36:13Z</time>
      </trkpt>
      <trkpt lat="43.765" lon="3.85268">
        <ele>136.64</ele>
        <time>2017-03-09T14:36:24Z</time>
      </trkpt>
      <trkpt lat="43.76501" lon="3.85269">
        <ele>136.64</ele>
        <time>2017-03-09T14:36:26Z</time>
      </trkpt>
      <trkpt lat="43.76503" lon="3.8527">
        <ele>136.16</ele>
        <time>2017-03-09T14:36:29Z</time>
      </trkpt>
      <trkpt lat="43.76508" lon="3.85279">
        <ele>134.24</ele>
        <time>2017-03-09T14:36:39Z</time>
      </trkpt>
      <trkpt lat="43.76511" lon="3.85286">
        <ele>133.28</ele>
        <time>2017-03-09T14:36:50Z</time>
      </trkpt>
      <trkpt lat="43.76518" lon="3.8529">
        <ele>133.28</ele>
        <time>2017-03-09T14:37:00Z</time>
      </trkpt>
      <trkpt lat="43.76526" lon="3.85292">
        <ele>133.28</ele>
        <time>2017-03-09T14:37:14Z</time>
      </trkpt>
      <trkpt lat="43.76533" lon="3.85292">
        <ele>133.28</ele>
        <time>2017-03-09T14:37:22Z</time>
      </trkpt>
      <trkpt lat="43.76534" lon="3.85286">
        <ele>133.76</ele>
        <time>2017-03-09T14:37:28Z</time>
      </trkpt>
      <trkpt lat="43.7654" lon="3.85285">
        <ele>139.05</ele>
        <time>2017-03-09T14:37:38Z</time>
      </trkpt>
      <trkpt lat="43.76541" lon="3.85284">
        <ele>140.01</ele>
        <time>2017-03-09T14:37:50Z</time>
      </trkpt>
      <trkpt lat="43.76545" lon="3.85284">
        <ele>140.01</ele>
        <time>2017-03-09T14:37:54Z</time>
      </trkpt>
      <trkpt lat="43.7655" lon="3.85287">
        <ele>139.53</ele>
        <time>2017-03-09T14:38:00Z</time>
      </trkpt>
      <trkpt lat="43.76561" lon="3.8529">
        <ele>138.09</ele>
        <time>2017-03-09T14:38:10Z</time>
      </trkpt>
      <trkpt lat="43.76567" lon="3.85297">
        <ele>137.13</ele>
        <time>2017-03-09T14:38:24Z</time>
      </trkpt>
      <trkpt lat="43.76571" lon="3.853">
        <ele>137.13</ele>
        <time>2017-03-09T14:38:50Z</time>
      </trkpt>
      <trkpt lat="43.76572" lon="3.85301">
        <ele>137.13</ele>
        <time>2017-03-09T14:38:51Z</time>
      </trkpt>
      <trkpt lat="43.76584" lon="3.85309">
        <ele>136.16</ele>
        <time>2017-03-09T14:39:03Z</time>
      </trkpt>
      <trkpt lat="43.76599" lon="3.85315">
        <ele>136.16</ele>
        <time>2017-03-09T14:39:19Z</time>
      </trkpt>
      <trkpt lat="43.76609" lon="3.8532">
        <ele>135.68</ele>
        <time>2017-03-09T14:39:34Z</time>
      </trkpt>
      <trkpt lat="43.76618" lon="3.85327">
        <ele>136.16</ele>
        <time>2017-03-09T14:39:46Z</time>
      </trkpt>
      <trkpt lat="43.76634" lon="3.8533">
        <ele>137.61</ele>
        <time>2017-03-09T14:40:03Z</time>
      </trkpt>
      <trkpt lat="43.76642" lon="3.85331">
        <ele>137.61</ele>
        <time>2017-03-09T14:40:12Z</time>
      </trkpt>
      <trkpt lat="43.76657" lon="3.85313">
        <ele>135.68</ele>
        <time>2017-03-09T14:40:27Z</time>
      </trkpt>
      <trkpt lat="43.76663" lon="3.85301">
        <ele>133.76</ele>
        <time>2017-03-09T14:40:36Z</time>
      </trkpt>
      <trkpt lat="43.76664" lon="3.85298">
        <ele>132.8</ele>
        <time>2017-03-09T14:40:38Z</time>
      </trkpt>
      <trkpt lat="43.76666" lon="3.85295">
        <ele>132.32</ele>
        <time>2017-03-09T14:40:42Z</time>
      </trkpt>
      <trkpt lat="43.76673" lon="3.85282">
        <ele>131.36</ele>
        <time>2017-03-09T14:40:52Z</time>
      </trkpt>
      <trkpt lat="43.76675" lon="3.85271">
        <ele>131.84</ele>
        <time>2017-03-09T14:40:59Z</time>
      </trkpt>
      <trkpt lat="43.76676" lon="3.85262">
        <ele>133.28</ele>
        <time>2017-03-09T14:41:12Z</time>
      </trkpt>
      <trkpt lat="43.76676" lon="3.85261">
        <ele>133.28</ele>
        <time>2017-03-09T14:41:13Z</time>
      </trkpt>
      <trkpt lat="43.76671" lon="3.85244">
        <ele>131.84</ele>
        <time>2017-03-09T14:41:24Z</time>
      </trkpt>
      <trkpt lat="43.7667" lon="3.85235">
        <ele>130.4</ele>
        <time>2017-03-09T14:41:30Z</time>
      </trkpt>
      <trkpt lat="43.76668" lon="3.85226">
        <ele>129.92</ele>
        <time>2017-03-09T14:41:36Z</time>
      </trkpt>
      <trkpt lat="43.76678" lon="3.85211">
        <ele>128.95</ele>
        <time>2017-03-09T14:41:49Z</time>
      </trkpt>
      <trkpt lat="43.76682" lon="3.85204">
        <ele>129.43</ele>
        <time>2017-03-09T14:41:54Z</time>
      </trkpt>
      <trkpt lat="43.76691" lon="3.85189">
        <ele>128.95</ele>
        <time>2017-03-09T14:42:06Z</time>
      </trkpt>
      <trkpt lat="43.76698" lon="3.85179">
        <ele>129.43</ele>
        <time>2017-03-09T14:42:16Z</time>
      </trkpt>
      <trkpt lat="43.76701" lon="3.85175">
        <ele>129.92</ele>
        <time>2017-03-09T14:42:27Z</time>
      </trkpt>
      <trkpt lat="43.76708" lon="3.85162">
        <ele>132.32</ele>
        <time>2017-03-09T14:42:38Z</time>
      </trkpt>
      <trkpt lat="43.76708" lon="3.85158">
        <ele>134.72</ele>
        <time>2017-03-09T14:42:44Z</time>
      </trkpt>
      <trkpt lat="43.76711" lon="3.85147">
        <ele>136.64</ele>
        <time>2017-03-09T14:42:52Z</time>
      </trkpt>
      <trkpt lat="43.76712" lon="3.85138">
        <ele>137.61</ele>
        <time>2017-03-09T14:42:58Z</time>
      </trkpt>
      <trkpt lat="43.76715" lon="3.85121">
        <ele>138.09</ele>
        <time>2017-03-09T14:43:08Z</time>
      </trkpt>
      <trkpt lat="43.76715" lon="3.85113">
        <ele>139.05</ele>
        <time>2017-03-09T14:43:13Z</time>
      </trkpt>
      <trkpt lat="43.76715" lon="3.85109">
        <ele>139.05</ele>
        <time>2017-03-09T14:43:15Z</time>
      </trkpt>
      <trkpt lat="43.76715" lon="3.8509">
        <ele>137.61</ele>
        <time>2017-03-09T14:43:27Z</time>
      </trkpt>
      <trkpt lat="43.76714" lon="3.85089">
        <ele>137.61</ele>
        <time>2017-03-09T14:43:28Z</time>
      </trkpt>
      <trkpt lat="43.76708" lon="3.85073">
        <ele>138.57</ele>
        <time>2017-03-09T14:43:39Z</time>
      </trkpt>
      <trkpt lat="43.76706" lon="3.85065">
        <ele>138.57</ele>
        <time>2017-03-09T14:43:44Z</time>
      </trkpt>
      <trkpt lat="43.76703" lon="3.85045">
        <ele>139.05</ele>
        <time>2017-03-09T14:43:56Z</time>
      </trkpt>
      <trkpt lat="43.76702" lon="3.85042">
        <ele>139.05</ele>
        <time>2017-03-09T14:43:58Z</time>
      </trkpt>
      <trkpt lat="43.76701" lon="3.85033">
        <ele>139.05</ele>
        <time>2017-03-09T14:44:07Z</time>
      </trkpt>
      <trkpt lat="43.76696" lon="3.85021">
        <ele>138.09</ele>
        <time>2017-03-09T14:44:17Z</time>
      </trkpt>
      <trkpt lat="43.76696" lon="3.85015">
        <ele>137.61</ele>
        <time>2017-03-09T14:44:21Z</time>
      </trkpt>
      <trkpt lat="43.76697" lon="3.8501">
        <ele>137.13</ele>
        <time>2017-03-09T14:44:25Z</time>
      </trkpt>
      <trkpt lat="43.76695" lon="3.85004">
        <ele>137.13</ele>
        <time>2017-03-09T14:44:29Z</time>
      </trkpt>
      <trkpt lat="43.76696" lon="3.84999">
        <ele>137.61</ele>
        <time>2017-03-09T14:44:33Z</time>
      </trkpt>
      <trkpt lat="43.76696" lon="3.84984">
        <ele>139.05</ele>
        <time>2017-03-09T14:44:44Z</time>
      </trkpt>
      <trkpt lat="43.76695" lon="3.84973">
        <ele>139.53</ele>
        <time>2017-03-09T14:44:54Z</time>
      </trkpt>
      <trkpt lat="43.76693" lon="3.84959">
        <ele>141.45</ele>
        <time>2017-03-09T14:45:03Z</time>
      </trkpt>
      <trkpt lat="43.76694" lon="3.84956">
        <ele>141.93</ele>
        <time>2017-03-09T14:45:07Z</time>
      </trkpt>
      <trkpt lat="43.76693" lon="3.84953">
        <ele>142.41</ele>
        <time>2017-03-09T14:45:10Z</time>
      </trkpt>
      <trkpt lat="43.7669" lon="3.84936">
        <ele>140.97</ele>
        <time>2017-03-09T14:45:21Z</time>
      </trkpt>
      <trkpt lat="43.76681" lon="3.8492">
        <ele>139.05</ele>
        <time>2017-03-09T14:45:34Z</time>
      </trkpt>
      <trkpt lat="43.76678" lon="3.84912">
        <ele>139.05</ele>
        <time>2017-03-09T14:45:40Z</time>
      </trkpt>
      <trkpt lat="43.76678" lon="3.84908">
        <ele>139.53</ele>
        <time>2017-03-09T14:45:43Z</time>
      </trkpt>
      <trkpt lat="43.76675" lon="3.84897">
        <ele>140.01</ele>
        <time>2017-03-09T14:45:52Z</time>
      </trkpt>
      <trkpt lat="43.76676" lon="3.84889">
        <ele>139.05</ele>
        <time>2017-03-09T14:46:03Z</time>
      </trkpt>
      <trkpt lat="43.76676" lon="3.8488">
        <ele>138.09</ele>
        <time>2017-03-09T14:46:16Z</time>
      </trkpt>
      <trkpt lat="43.76676" lon="3.84868">
        <ele>137.61</ele>
        <time>2017-03-09T14:46:28Z</time>
      </trkpt>
      <trkpt lat="43.76677" lon="3.84866">
        <ele>137.61</ele>
        <time>2017-03-09T14:46:31Z</time>
      </trkpt>
      <trkpt lat="43.76681" lon="3.84859">
        <ele>139.53</ele>
        <time>2017-03-09T14:46:44Z</time>
      </trkpt>
      <trkpt lat="43.76683" lon="3.84861">
        <ele>140.97</ele>
        <time>2017-03-09T14:46:49Z</time>
      </trkpt>
      <trkpt lat="43.7669" lon="3.84863">
        <ele>142.41</ele>
        <time>2017-03-09T14:46:59Z</time>
      </trkpt>
      <trkpt lat="43.76693" lon="3.84859">
        <ele>142.41</ele>
        <time>2017-03-09T14:47:08Z</time>
      </trkpt>
      <trkpt lat="43.76694" lon="3.84852">
        <ele>141.93</ele>
        <time>2017-03-09T14:47:13Z</time>
      </trkpt>
      <trkpt lat="43.76695" lon="3.84847">
        <ele>141.93</ele>
        <time>2017-03-09T14:47:16Z</time>
      </trkpt>
      <trkpt lat="43.76696" lon="3.8485">
        <ele>140.97</ele>
        <time>2017-03-09T14:47:27Z</time>
      </trkpt>
      <trkpt lat="43.76698" lon="3.84855">
        <ele>141.93</ele>
        <time>2017-03-09T14:47:40Z</time>
      </trkpt>
      <trkpt lat="43.767" lon="3.84856">
        <ele>141.93</ele>
        <time>2017-03-09T14:47:45Z</time>
      </trkpt>
      <trkpt lat="43.76706" lon="3.84852">
        <ele>142.41</ele>
        <time>2017-03-09T14:47:55Z</time>
      </trkpt>
      <trkpt lat="43.76712" lon="3.84848">
        <ele>144.82</ele>
        <time>2017-03-09T14:48:05Z</time>
      </trkpt>
      <trkpt lat="43.76714" lon="3.84845">
        <ele>145.3</ele>
        <time>2017-03-09T14:48:09Z</time>
      </trkpt>
      <trkpt lat="43.76716" lon="3.8484">
        <ele>146.26</ele>
        <time>2017-03-09T14:48:15Z</time>
      </trkpt>
      <trkpt lat="43.76715" lon="3.84825">
        <ele>146.26</ele>
        <time>2017-03-09T14:48:25Z</time>
      </trkpt>
      <trkpt lat="43.76719" lon="3.84821">
        <ele>145.78</ele>
        <time>2017-03-09T14:48:36Z</time>
      </trkpt>
      <trkpt lat="43.76725" lon="3.8481">
        <ele>144.34</ele>
        <time>2017-03-09T14:48:48Z</time>
      </trkpt>
      <trkpt lat="43.76725" lon="3.8481">
        <ele>144.34</ele>
        <time>2017-03-09T14:48:56Z</time>
      </trkpt>
      <trkpt lat="43.76723" lon="3.84814">
        <ele>145.3</ele>
        <time>2017-03-09T14:49:00Z</time>
      </trkpt>
      <trkpt lat="43.76725" lon="3.8482">
        <ele>145.3</ele>
        <time>2017-03-09T14:49:10Z</time>
      </trkpt>
      <trkpt lat="43.76729" lon="3.84823">
        <ele>144.34</ele>
        <time>2017-03-09T14:49:18Z</time>
      </trkpt>
      <trkpt lat="43.76733" lon="3.84823">
        <ele>143.85</ele>
        <time>2017-03-09T14:49:24Z</time>
      </trkpt>
      <trkpt lat="43.76735" lon="3.84821">
        <ele>144.34</ele>
        <time>2017-03-09T14:49:27Z</time>
      </trkpt>
      <trkpt lat="43.76738" lon="3.84819">
        <ele>144.82</ele>
        <time>2017-03-09T14:49:30Z</time>
      </trkpt>
      <trkpt lat="43.7674" lon="3.84815">
        <ele>145.78</ele>
        <time>2017-03-09T14:49:34Z</time>
      </trkpt>
      <trkpt lat="43.76742" lon="3.84814">
        <ele>146.26</ele>
        <time>2017-03-09T14:49:37Z</time>
      </trkpt>
      <trkpt lat="43.76744" lon="3.84812">
        <ele>147.22</ele>
        <time>2017-03-09T14:49:48Z</time>
      </trkpt>
      <trkpt lat="43.76745" lon="3.84812">
        <ele>147.7</ele>
        <time>2017-03-09T14:49:53Z</time>
      </trkpt>
      <trkpt lat="43.76746" lon="3.84825">
        <ele>146.26</ele>
        <time>2017-03-09T14:50:03Z</time>
      </trkpt>
      <trkpt lat="43.76746" lon="3.84827">
        <ele>147.22</ele>
        <time>2017-03-09T14:50:17Z</time>
      </trkpt>
      <trkpt lat="43.76749" lon="3.8483">
        <ele>146.74</ele>
        <time>2017-03-09T14:50:31Z</time>
      </trkpt>
      <trkpt lat="43.76749" lon="3.8483">
        <ele>147.22</ele>
        <time>2017-03-09T14:50:47Z</time>
      </trkpt>
      <trkpt lat="43.76749" lon="3.84824">
        <ele>146.74</ele>
        <time>2017-03-09T14:50:57Z</time>
      </trkpt>
      <trkpt lat="43.7675" lon="3.84807">
        <ele>147.22</ele>
        <time>2017-03-09T14:51:09Z</time>
      </trkpt>
      <trkpt lat="43.76751" lon="3.84803">
        <ele>148.18</ele>
        <time>2017-03-09T14:51:19Z</time>
      </trkpt>
      <trkpt lat="43.76755" lon="3.84801">
        <ele>148.66</ele>
        <time>2017-03-09T14:51:24Z</time>
      </trkpt>
      <trkpt lat="43.76768" lon="3.84797">
        <ele>148.66</ele>
        <time>2017-03-09T14:51:35Z</time>
      </trkpt>
      <trkpt lat="43.76781" lon="3.84791">
        <ele>150.1</ele>
        <time>2017-03-09T14:51:46Z</time>
      </trkpt>
      <trkpt lat="43.7679" lon="3.84791">
        <ele>150.58</ele>
        <time>2017-03-09T14:51:53Z</time>
      </trkpt>
      <trkpt lat="43.76807" lon="3.84792">
        <ele>150.58</ele>
        <time>2017-03-09T14:52:06Z</time>
      </trkpt>
      <trkpt lat="43.7681" lon="3.84793">
        <ele>150.58</ele>
        <time>2017-03-09T14:52:08Z</time>
      </trkpt>
      <trkpt lat="43.76829" lon="3.848">
        <ele>151.54</ele>
        <time>2017-03-09T14:52:24Z</time>
      </trkpt>
      <trkpt lat="43.76844" lon="3.84807">
        <ele>151.54</ele>
        <time>2017-03-09T14:52:36Z</time>
      </trkpt>
      <trkpt lat="43.76862" lon="3.84824">
        <ele>152.03</ele>
        <time>2017-03-09T14:52:53Z</time>
      </trkpt>
      <trkpt lat="43.76872" lon="3.84834">
        <ele>150.1</ele>
        <time>2017-03-09T14:53:06Z</time>
      </trkpt>
      <trkpt lat="43.76875" lon="3.84837">
        <ele>150.1</ele>
        <time>2017-03-09T14:53:33Z</time>
      </trkpt>
      <trkpt lat="43.76884" lon="3.84851">
        <ele>147.7</ele>
        <time>2017-03-09T14:53:44Z</time>
      </trkpt>
      <trkpt lat="43.769" lon="3.84871">
        <ele>146.74</ele>
        <time>2017-03-09T14:54:01Z</time>
      </trkpt>
      <trkpt lat="43.7691" lon="3.84883">
        <ele>145.3</ele>
        <time>2017-03-09T14:54:14Z</time>
      </trkpt>
      <trkpt lat="43.76912" lon="3.84884">
        <ele>145.3</ele>
        <time>2017-03-09T14:54:16Z</time>
      </trkpt>
      <trkpt lat="43.76926" lon="3.84893">
        <ele>143.85</ele>
        <time>2017-03-09T14:54:30Z</time>
      </trkpt>
      <trkpt lat="43.76941" lon="3.84901">
        <ele>142.41</ele>
        <time>2017-03-09T14:54:41Z</time>
      </trkpt>
      <trkpt lat="43.76951" lon="3.8491">
        <ele>141.93</ele>
        <time>2017-03-09T14:54:51Z</time>
      </trkpt>
      <trkpt lat="43.76956" lon="3.84916">
        <ele>140.49</ele>
        <time>2017-03-09T14:55:06Z</time>
      </trkpt>
      <trkpt lat="43.76963" lon="3.84921">
        <ele>139.53</ele>
        <time>2017-03-09T14:55:26Z</time>
      </trkpt>
      <trkpt lat="43.76978" lon="3.84918">
        <ele>138.57</ele>
        <time>2017-03-09T14:55:37Z</time>
      </trkpt>
      <trkpt lat="43.7699" lon="3.84919">
        <ele>139.53</ele>
        <time>2017-03-09T14:55:47Z</time>
      </trkpt>
      <trkpt lat="43.77005" lon="3.8492">
        <ele>138.57</ele>
        <time>2017-03-09T14:55:58Z</time>
      </trkpt>
      <trkpt lat="43.77015" lon="3.84919">
        <ele>140.49</ele>
        <time>2017-03-09T14:56:07Z</time>
      </trkpt>
      <trkpt lat="43.77026" lon="3.84917">
        <ele>140.97</ele>
        <time>2017-03-09T14:56:15Z</time>
      </trkpt>
      <trkpt lat="43.77037" lon="3.84921">
        <ele>145.3</ele>
        <time>2017-03-09T14:56:24Z</time>
      </trkpt>
      <trkpt lat="43.77048" lon="3.8493">
        <ele>144.34</ele>
        <time>2017-03-09T14:56:34Z</time>
      </trkpt>
      <trkpt lat="43.77056" lon="3.84933">
        <ele>142.89</ele>
        <time>2017-03-09T14:56:41Z</time>
      </trkpt>
      <trkpt lat="43.77061" lon="3.84936">
        <ele>140.97</ele>
        <time>2017-03-09T14:56:45Z</time>
      </trkpt>
      <trkpt lat="43.77072" lon="3.8494">
        <ele>143.85</ele>
        <time>2017-03-09T14:56:55Z</time>
      </trkpt>
      <trkpt lat="43.77084" lon="3.84944">
        <ele>144.34</ele>
        <time>2017-03-09T14:57:04Z</time>
      </trkpt>
      <trkpt lat="43.77096" lon="3.84953">
        <ele>142.41</ele>
        <time>2017-03-09T14:57:14Z</time>
      </trkpt>
      <trkpt lat="43.77107" lon="3.84963">
        <ele>140.97</ele>
        <time>2017-03-09T14:57:23Z</time>
      </trkpt>
      <trkpt lat="43.7711" lon="3.84965">
        <ele>140.97</ele>
        <time>2017-03-09T14:57:26Z</time>
      </trkpt>
      <trkpt lat="43.77111" lon="3.84965">
        <ele>140.97</ele>
        <time>2017-03-09T14:57:27Z</time>
      </trkpt>
      <trkpt lat="43.77112" lon="3.84966">
        <ele>140.97</ele>
        <time>2017-03-09T14:57:28Z</time>
      </trkpt>
      <trkpt lat="43.77114" lon="3.84967">
        <ele>140.97</ele>
        <time>2017-03-09T14:57:29Z</time>
      </trkpt>
      <trkpt lat="43.77127" lon="3.84971">
        <ele>138.57</ele>
        <time>2017-03-09T14:57:40Z</time>
      </trkpt>
      <trkpt lat="43.77132" lon="3.84974">
        <ele>137.61</ele>
        <time>2017-03-09T14:57:45Z</time>
      </trkpt>
      <trkpt lat="43.77133" lon="3.84975">
        <ele>137.61</ele>
        <time>2017-03-09T14:57:46Z</time>
      </trkpt>
      <trkpt lat="43.77143" lon="3.8498">
        <ele>138.57</ele>
        <time>2017-03-09T14:57:57Z</time>
      </trkpt>
      <trkpt lat="43.77148" lon="3.84973">
        <ele>140.49</ele>
        <time>2017-03-09T14:58:16Z</time>
      </trkpt>
      <trkpt lat="43.77152" lon="3.84971">
        <ele>140.97</ele>
        <time>2017-03-09T14:58:22Z</time>
      </trkpt>
      <trkpt lat="43.77157" lon="3.84966">
        <ele>141.45</ele>
        <time>2017-03-09T14:58:33Z</time>
      </trkpt>
      <trkpt lat="43.77161" lon="3.84962">
        <ele>141.93</ele>
        <time>2017-03-09T14:58:38Z</time>
      </trkpt>
      <trkpt lat="43.77161" lon="3.84958">
        <ele>142.41</ele>
        <time>2017-03-09T14:58:41Z</time>
      </trkpt>
      <trkpt lat="43.7716" lon="3.84952">
        <ele>143.37</ele>
        <time>2017-03-09T14:58:50Z</time>
      </trkpt>
      <trkpt lat="43.77158" lon="3.84929">
        <ele>145.3</ele>
        <time>2017-03-09T14:59:07Z</time>
      </trkpt>
      <trkpt lat="43.77156" lon="3.84912">
        <ele>145.78</ele>
        <time>2017-03-09T14:59:19Z</time>
      </trkpt>
      <trkpt lat="43.77156" lon="3.8491">
        <ele>145.78</ele>
        <time>2017-03-09T14:59:20Z</time>
      </trkpt>
      <trkpt lat="43.77157" lon="3.84908">
        <ele>145.78</ele>
        <time>2017-03-09T14:59:21Z</time>
      </trkpt>
      <trkpt lat="43.77157" lon="3.84905">
        <ele>145.78</ele>
        <time>2017-03-09T14:59:22Z</time>
      </trkpt>
      <trkpt lat="43.77159" lon="3.84898">
        <ele>145.78</ele>
        <time>2017-03-09T14:59:27Z</time>
      </trkpt>
      <trkpt lat="43.77168" lon="3.8489">
        <ele>143.85</ele>
        <time>2017-03-09T14:59:36Z</time>
      </trkpt>
      <trkpt lat="43.77177" lon="3.84877">
        <ele>142.41</ele>
        <time>2017-03-09T14:59:47Z</time>
      </trkpt>
      <trkpt lat="43.77181" lon="3.8487">
        <ele>141.93</ele>
        <time>2017-03-09T14:59:52Z</time>
      </trkpt>
      <trkpt lat="43.77181" lon="3.84868">
        <ele>141.45</ele>
        <time>2017-03-09T14:59:53Z</time>
      </trkpt>
      <trkpt lat="43.77183" lon="3.84856">
        <ele>140.97</ele>
        <time>2017-03-09T14:59:59Z</time>
      </trkpt>
      <trkpt lat="43.77184" lon="3.84854">
        <ele>140.97</ele>
        <time>2017-03-09T15:00:00Z</time>
      </trkpt>
      <trkpt lat="43.77184" lon="3.84846">
        <ele>141.45</ele>
        <time>2017-03-09T15:00:05Z</time>
      </trkpt>
      <trkpt lat="43.77184" lon="3.84834">
        <ele>142.41</ele>
        <time>2017-03-09T15:00:14Z</time>
      </trkpt>
      <trkpt lat="43.77188" lon="3.84819">
        <ele>142.89</ele>
        <time>2017-03-09T15:00:24Z</time>
      </trkpt>
      <trkpt lat="43.77189" lon="3.84811">
        <ele>144.34</ele>
        <time>2017-03-09T15:00:29Z</time>
      </trkpt>
      <trkpt lat="43.77192" lon="3.84796">
        <ele>147.7</ele>
        <time>2017-03-09T15:00:45Z</time>
      </trkpt>
      <trkpt lat="43.77194" lon="3.84786">
        <ele>147.7</ele>
        <time>2017-03-09T15:00:52Z</time>
      </trkpt>
      <trkpt lat="43.77194" lon="3.84784">
        <ele>147.7</ele>
        <time>2017-03-09T15:00:53Z</time>
      </trkpt>
      <trkpt lat="43.77199" lon="3.84788">
        <ele>147.22</ele>
        <time>2017-03-09T15:01:03Z</time>
      </trkpt>
      <trkpt lat="43.77199" lon="3.84786">
        <ele>147.7</ele>
        <time>2017-03-09T15:01:09Z</time>
      </trkpt>
      <trkpt lat="43.77194" lon="3.8477">
        <ele>147.7</ele>
        <time>2017-03-09T15:01:21Z</time>
      </trkpt>
      <trkpt lat="43.77194" lon="3.84769">
        <ele>148.18</ele>
        <time>2017-03-09T15:01:22Z</time>
      </trkpt>
      <trkpt lat="43.77194" lon="3.84767">
        <ele>148.18</ele>
        <time>2017-03-09T15:01:23Z</time>
      </trkpt>
      <trkpt lat="43.77194" lon="3.84753">
        <ele>150.58</ele>
        <time>2017-03-09T15:01:33Z</time>
      </trkpt>
      <trkpt lat="43.77196" lon="3.84746">
        <ele>151.54</ele>
        <time>2017-03-09T15:01:38Z</time>
      </trkpt>
      <trkpt lat="43.77201" lon="3.84736">
        <ele>150.1</ele>
        <time>2017-03-09T15:01:48Z</time>
      </trkpt>
      <trkpt lat="43.77206" lon="3.84724">
        <ele>149.14</ele>
        <time>2017-03-09T15:01:57Z</time>
      </trkpt>
      <trkpt lat="43.77211" lon="3.8471">
        <ele>149.14</ele>
        <time>2017-03-09T15:02:07Z</time>
      </trkpt>
      <trkpt lat="43.77215" lon="3.84702">
        <ele>149.14</ele>
        <time>2017-03-09T15:02:15Z</time>
      </trkpt>
      <trkpt lat="43.77216" lon="3.84698">
        <ele>149.62</ele>
        <time>2017-03-09T15:02:19Z</time>
      </trkpt>
      <trkpt lat="43.77217" lon="3.84697">
        <ele>150.1</ele>
        <time>2017-03-09T15:02:20Z</time>
      </trkpt>
      <trkpt lat="43.77223" lon="3.8469">
        <ele>149.14</ele>
        <time>2017-03-09T15:02:28Z</time>
      </trkpt>
      <trkpt lat="43.77224" lon="3.84688">
        <ele>149.14</ele>
        <time>2017-03-09T15:02:29Z</time>
      </trkpt>
      <trkpt lat="43.77229" lon="3.84679">
        <ele>151.06</ele>
        <time>2017-03-09T15:02:38Z</time>
      </trkpt>
      <trkpt lat="43.77235" lon="3.84675">
        <ele>153.47</ele>
        <time>2017-03-09T15:02:46Z</time>
      </trkpt>
      <trkpt lat="43.77236" lon="3.84675">
        <ele>153.47</ele>
        <time>2017-03-09T15:02:47Z</time>
      </trkpt>
      <trkpt lat="43.77238" lon="3.84674">
        <ele>153.95</ele>
        <time>2017-03-09T15:02:50Z</time>
      </trkpt>
      <trkpt lat="43.77239" lon="3.84672">
        <ele>154.43</ele>
        <time>2017-03-09T15:02:51Z</time>
      </trkpt>
      <trkpt lat="43.77244" lon="3.84663">
        <ele>159.72</ele>
        <time>2017-03-09T15:03:01Z</time>
      </trkpt>
      <trkpt lat="43.77249" lon="3.84649">
        <ele>161.64</ele>
        <time>2017-03-09T15:03:11Z</time>
      </trkpt>
      <trkpt lat="43.77249" lon="3.84647">
        <ele>161.64</ele>
        <time>2017-03-09T15:03:12Z</time>
      </trkpt>
      <trkpt lat="43.77249" lon="3.84645">
        <ele>161.64</ele>
        <time>2017-03-09T15:03:13Z</time>
      </trkpt>
      <trkpt lat="43.7725" lon="3.84641">
        <ele>161.64</ele>
        <time>2017-03-09T15:03:16Z</time>
      </trkpt>
      <trkpt lat="43.7725" lon="3.84639">
        <ele>161.64</ele>
        <time>2017-03-09T15:03:17Z</time>
      </trkpt>
      <trkpt lat="43.7725" lon="3.84634">
        <ele>162.6</ele>
        <time>2017-03-09T15:03:21Z</time>
      </trkpt>
      <trkpt lat="43.7725" lon="3.84632">
        <ele>162.6</ele>
        <time>2017-03-09T15:03:22Z</time>
      </trkpt>
      <trkpt lat="43.77249" lon="3.84622">
        <ele>164.52</ele>
        <time>2017-03-09T15:03:30Z</time>
      </trkpt>
      <trkpt lat="43.77249" lon="3.84616">
        <ele>166.93</ele>
        <time>2017-03-09T15:03:34Z</time>
      </trkpt>
      <trkpt lat="43.7725" lon="3.84606">
        <ele>167.89</ele>
        <time>2017-03-09T15:03:45Z</time>
      </trkpt>
      <trkpt lat="43.77247" lon="3.84601">
        <ele>169.33</ele>
        <time>2017-03-09T15:04:03Z</time>
      </trkpt>
      <trkpt lat="43.77244" lon="3.84589">
        <ele>169.33</ele>
        <time>2017-03-09T15:04:13Z</time>
      </trkpt>
      <trkpt lat="43.77242" lon="3.84584">
        <ele>169.81</ele>
        <time>2017-03-09T15:04:17Z</time>
      </trkpt>
      <trkpt lat="43.77242" lon="3.84583">
        <ele>170.29</ele>
        <time>2017-03-09T15:04:18Z</time>
      </trkpt>
      <trkpt lat="43.7724" lon="3.84579">
        <ele>171.25</ele>
        <time>2017-03-09T15:04:22Z</time>
      </trkpt>
      <trkpt lat="43.77238" lon="3.84575">
        <ele>172.69</ele>
        <time>2017-03-09T15:04:26Z</time>
      </trkpt>
      <trkpt lat="43.77235" lon="3.84567">
        <ele>173.17</ele>
        <time>2017-03-09T15:04:33Z</time>
      </trkpt>
      <trkpt lat="43.77235" lon="3.84566">
        <ele>173.66</ele>
        <time>2017-03-09T15:04:34Z</time>
      </trkpt>
      <trkpt lat="43.77234" lon="3.84565">
        <ele>173.66</ele>
        <time>2017-03-09T15:04:35Z</time>
      </trkpt>
      <trkpt lat="43.7723" lon="3.84558">
        <ele>176.54</ele>
        <time>2017-03-09T15:04:44Z</time>
      </trkpt>
      <trkpt lat="43.77226" lon="3.8455">
        <ele>177.02</ele>
        <time>2017-03-09T15:04:53Z</time>
      </trkpt>
      <trkpt lat="43.77225" lon="3.84544">
        <ele>178.94</ele>
        <time>2017-03-09T15:05:00Z</time>
      </trkpt>
      <trkpt lat="43.77223" lon="3.84539">
        <ele>180.38</ele>
        <time>2017-03-09T15:05:07Z</time>
      </trkpt>
      <trkpt lat="43.77224" lon="3.84532">
        <ele>182.79</ele>
        <time>2017-03-09T15:05:18Z</time>
      </trkpt>
      <trkpt lat="43.77223" lon="3.84531">
        <ele>185.19</ele>
        <time>2017-03-09T15:05:22Z</time>
      </trkpt>
      <trkpt lat="43.77224" lon="3.84524">
        <ele>185.19</ele>
        <time>2017-03-09T15:05:29Z</time>
      </trkpt>
      <trkpt lat="43.77222" lon="3.84518">
        <ele>187.11</ele>
        <time>2017-03-09T15:05:36Z</time>
      </trkpt>
      <trkpt lat="43.77221" lon="3.84506">
        <ele>189.52</ele>
        <time>2017-03-09T15:05:49Z</time>
      </trkpt>
      <trkpt lat="43.77223" lon="3.84498">
        <ele>191.44</ele>
        <time>2017-03-09T15:06:01Z</time>
      </trkpt>
      <trkpt lat="43.77223" lon="3.84491">
        <ele>193.84</ele>
        <time>2017-03-09T15:06:12Z</time>
      </trkpt>
      <trkpt lat="43.77221" lon="3.84485">
        <ele>197.21</ele>
        <time>2017-03-09T15:06:24Z</time>
      </trkpt>
      <trkpt lat="43.77216" lon="3.8448">
        <ele>197.69</ele>
        <time>2017-03-09T15:06:36Z</time>
      </trkpt>
      <trkpt lat="43.77212" lon="3.84478">
        <ele>197.21</ele>
        <time>2017-03-09T15:06:42Z</time>
      </trkpt>
      <trkpt lat="43.77207" lon="3.84471">
        <ele>198.17</ele>
        <time>2017-03-09T15:06:55Z</time>
      </trkpt>
      <trkpt lat="43.77204" lon="3.84466">
        <ele>201.05</ele>
        <time>2017-03-09T15:07:05Z</time>
      </trkpt>
      <trkpt lat="43.77205" lon="3.84465">
        <ele>201.05</ele>
        <time>2017-03-09T15:07:32Z</time>
      </trkpt>
      <trkpt lat="43.77208" lon="3.84468">
        <ele>202.98</ele>
        <time>2017-03-09T15:07:55Z</time>
      </trkpt>
      <trkpt lat="43.77213" lon="3.84464">
        <ele>203.46</ele>
        <time>2017-03-09T15:08:06Z</time>
      </trkpt>
      <trkpt lat="43.77216" lon="3.84463">
        <ele>203.46</ele>
        <time>2017-03-09T15:08:16Z</time>
      </trkpt>
      <trkpt lat="43.77218" lon="3.84456">
        <ele>204.9</ele>
        <time>2017-03-09T15:08:28Z</time>
      </trkpt>
      <trkpt lat="43.77218" lon="3.84456">
        <ele>204.9</ele>
        <time>2017-03-09T15:08:29Z</time>
      </trkpt>
      <trkpt lat="43.77218" lon="3.84451">
        <ele>208.26</ele>
        <time>2017-03-09T15:08:41Z</time>
      </trkpt>
      <trkpt lat="43.77219" lon="3.84446">
        <ele>212.11</ele>
        <time>2017-03-09T15:08:53Z</time>
      </trkpt>
      <trkpt lat="43.7722" lon="3.84442">
        <ele>213.55</ele>
        <time>2017-03-09T15:09:04Z</time>
      </trkpt>
      <trkpt lat="43.77218" lon="3.84437">
        <ele>213.55</ele>
        <time>2017-03-09T15:09:11Z</time>
      </trkpt>
      <trkpt lat="43.77214" lon="3.8443">
        <ele>214.99</ele>
        <time>2017-03-09T15:09:21Z</time>
      </trkpt>
      <trkpt lat="43.77215" lon="3.84428">
        <ele>216.91</ele>
        <time>2017-03-09T15:09:31Z</time>
      </trkpt>
      <trkpt lat="43.77216" lon="3.84424">
        <ele>217.4</ele>
        <time>2017-03-09T15:09:40Z</time>
      </trkpt>
      <trkpt lat="43.77215" lon="3.84417">
        <ele>219.8</ele>
        <time>2017-03-09T15:09:52Z</time>
      </trkpt>
      <trkpt lat="43.77212" lon="3.84411">
        <ele>219.8</ele>
        <time>2017-03-09T15:09:59Z</time>
      </trkpt>
      <trkpt lat="43.77207" lon="3.84408">
        <ele>222.68</ele>
        <time>2017-03-09T15:10:10Z</time>
      </trkpt>
      <trkpt lat="43.77207" lon="3.84404">
        <ele>224.61</ele>
        <time>2017-03-09T15:10:16Z</time>
      </trkpt>
      <trkpt lat="43.77207" lon="3.84399">
        <ele>227.01</ele>
        <time>2017-03-09T15:10:23Z</time>
      </trkpt>
      <trkpt lat="43.77208" lon="3.84389">
        <ele>230.85</ele>
        <time>2017-03-09T15:10:35Z</time>
      </trkpt>
      <trkpt lat="43.77208" lon="3.84382">
        <ele>232.78</ele>
        <time>2017-03-09T15:10:45Z</time>
      </trkpt>
      <trkpt lat="43.7721" lon="3.84374">
        <ele>235.18</ele>
        <time>2017-03-09T15:10:55Z</time>
      </trkpt>
      <trkpt lat="43.77211" lon="3.84372">
        <ele>235.18</ele>
        <time>2017-03-09T15:10:58Z</time>
      </trkpt>
      <trkpt lat="43.77214" lon="3.84364">
        <ele>238.54</ele>
        <time>2017-03-09T15:11:10Z</time>
      </trkpt>
      <trkpt lat="43.77218" lon="3.84354">
        <ele>240.95</ele>
        <time>2017-03-09T15:11:21Z</time>
      </trkpt>
      <trkpt lat="43.7722" lon="3.84352">
        <ele>241.91</ele>
        <time>2017-03-09T15:11:25Z</time>
      </trkpt>
      <trkpt lat="43.77224" lon="3.84344">
        <ele>243.35</ele>
        <time>2017-03-09T15:11:34Z</time>
      </trkpt>
      <trkpt lat="43.77228" lon="3.84331">
        <ele>244.79</ele>
        <time>2017-03-09T15:11:46Z</time>
      </trkpt>
      <trkpt lat="43.77229" lon="3.84318">
        <ele>246.72</ele>
        <time>2017-03-09T15:11:58Z</time>
      </trkpt>
      <trkpt lat="43.77228" lon="3.84316">
        <ele>247.2</ele>
        <time>2017-03-09T15:12:00Z</time>
      </trkpt>
      <trkpt lat="43.77226" lon="3.84309">
        <ele>249.12</ele>
        <time>2017-03-09T15:12:07Z</time>
      </trkpt>
      <trkpt lat="43.77225" lon="3.84301">
        <ele>249.6</ele>
        <time>2017-03-09T15:12:13Z</time>
      </trkpt>
      <trkpt lat="43.77227" lon="3.84294">
        <ele>250.08</ele>
        <time>2017-03-09T15:12:20Z</time>
      </trkpt>
      <trkpt lat="43.77226" lon="3.8429">
        <ele>250.56</ele>
        <time>2017-03-09T15:12:23Z</time>
      </trkpt>
      <trkpt lat="43.77224" lon="3.84274">
        <ele>252.96</ele>
        <time>2017-03-09T15:12:35Z</time>
      </trkpt>
      <trkpt lat="43.77225" lon="3.84262">
        <ele>254.89</ele>
        <time>2017-03-09T15:12:46Z</time>
      </trkpt>
      <trkpt lat="43.77228" lon="3.84258">
        <ele>255.85</ele>
        <time>2017-03-09T15:12:53Z</time>
      </trkpt>
      <trkpt lat="43.77231" lon="3.84256">
        <ele>255.85</ele>
        <time>2017-03-09T15:12:56Z</time>
      </trkpt>
      <trkpt lat="43.77233" lon="3.84252">
        <ele>256.81</ele>
        <time>2017-03-09T15:13:00Z</time>
      </trkpt>
      <trkpt lat="43.77237" lon="3.84241">
        <ele>256.33</ele>
        <time>2017-03-09T15:13:07Z</time>
      </trkpt>
      <trkpt lat="43.77242" lon="3.84237">
        <ele>256.33</ele>
        <time>2017-03-09T15:13:14Z</time>
      </trkpt>
      <trkpt lat="43.7725" lon="3.84231">
        <ele>257.77</ele>
        <time>2017-03-09T15:13:24Z</time>
      </trkpt>
      <trkpt lat="43.77251" lon="3.84223">
        <ele>258.73</ele>
        <time>2017-03-09T15:13:30Z</time>
      </trkpt>
      <trkpt lat="43.7725" lon="3.84203">
        <ele>259.21</ele>
        <time>2017-03-09T15:13:43Z</time>
      </trkpt>
      <trkpt lat="43.77251" lon="3.84199">
        <ele>259.69</ele>
        <time>2017-03-09T15:13:47Z</time>
      </trkpt>
      <trkpt lat="43.77253" lon="3.84198">
        <ele>259.69</ele>
        <time>2017-03-09T15:13:50Z</time>
      </trkpt>
      <trkpt lat="43.77256" lon="3.842">
        <ele>259.21</ele>
        <time>2017-03-09T15:13:54Z</time>
      </trkpt>
      <trkpt lat="43.77266" lon="3.84199">
        <ele>263.54</ele>
        <time>2017-03-09T15:14:06Z</time>
      </trkpt>
      <trkpt lat="43.77269" lon="3.84195">
        <ele>264.02</ele>
        <time>2017-03-09T15:14:24Z</time>
      </trkpt>
      <trkpt lat="43.77267" lon="3.84193">
        <ele>263.06</ele>
        <time>2017-03-09T15:14:54Z</time>
      </trkpt>
      <trkpt lat="43.77267" lon="3.84192">
        <ele>262.1</ele>
        <time>2017-03-09T15:15:18Z</time>
      </trkpt>
      <trkpt lat="43.77267" lon="3.84192">
        <ele>262.58</ele>
        <time>2017-03-09T15:15:43Z</time>
      </trkpt>
      <trkpt lat="43.77266" lon="3.84195">
        <ele>262.58</ele>
        <time>2017-03-09T15:16:02Z</time>
      </trkpt>
      <trkpt lat="43.77274" lon="3.84194">
        <ele>263.06</ele>
        <time>2017-03-09T15:16:25Z</time>
      </trkpt>
      <trkpt lat="43.77288" lon="3.84197">
        <ele>264.98</ele>
        <time>2017-03-09T15:16:41Z</time>
      </trkpt>
      <trkpt lat="43.77291" lon="3.84194">
        <ele>264.98</ele>
        <time>2017-03-09T15:16:50Z</time>
      </trkpt>
      <trkpt lat="43.77291" lon="3.84192">
        <ele>265.46</ele>
        <time>2017-03-09T15:16:52Z</time>
      </trkpt>
      <trkpt lat="43.77292" lon="3.84181">
        <ele>265.94</ele>
        <time>2017-03-09T15:17:02Z</time>
      </trkpt>
      <trkpt lat="43.77292" lon="3.84174">
        <ele>268.35</ele>
        <time>2017-03-09T15:17:11Z</time>
      </trkpt>
      <trkpt lat="43.77295" lon="3.84165">
        <ele>269.79</ele>
        <time>2017-03-09T15:17:22Z</time>
      </trkpt>
      <trkpt lat="43.77297" lon="3.84164">
        <ele>272.19</ele>
        <time>2017-03-09T15:17:30Z</time>
      </trkpt>
      <trkpt lat="43.77302" lon="3.84161">
        <ele>276.04</ele>
        <time>2017-03-09T15:17:40Z</time>
      </trkpt>
      <trkpt lat="43.77303" lon="3.84157">
        <ele>276.04</ele>
        <time>2017-03-09T15:17:43Z</time>
      </trkpt>
      <trkpt lat="43.77308" lon="3.84145">
        <ele>277.96</ele>
        <time>2017-03-09T15:17:55Z</time>
      </trkpt>
      <trkpt lat="43.77311" lon="3.84145">
        <ele>278.92</ele>
        <time>2017-03-09T15:18:04Z</time>
      </trkpt>
      <trkpt lat="43.77322" lon="3.84142">
        <ele>280.36</ele>
        <time>2017-03-09T15:18:15Z</time>
      </trkpt>
      <trkpt lat="43.77324" lon="3.84139">
        <ele>281.32</ele>
        <time>2017-03-09T15:18:18Z</time>
      </trkpt>
      <trkpt lat="43.77328" lon="3.84133">
        <ele>282.28</ele>
        <time>2017-03-09T15:18:25Z</time>
      </trkpt>
      <trkpt lat="43.7733" lon="3.84121">
        <ele>283.25</ele>
        <time>2017-03-09T15:18:35Z</time>
      </trkpt>
      <trkpt lat="43.77331" lon="3.84113">
        <ele>285.17</ele>
        <time>2017-03-09T15:18:41Z</time>
      </trkpt>
      <trkpt lat="43.77331" lon="3.84105">
        <ele>285.17</ele>
        <time>2017-03-09T15:18:45Z</time>
      </trkpt>
      <trkpt lat="43.77335" lon="3.84094">
        <ele>286.61</ele>
        <time>2017-03-09T15:18:53Z</time>
      </trkpt>
      <trkpt lat="43.77335" lon="3.8409">
        <ele>286.61</ele>
        <time>2017-03-09T15:18:55Z</time>
      </trkpt>
      <trkpt lat="43.77334" lon="3.84087">
        <ele>286.61</ele>
        <time>2017-03-09T15:18:56Z</time>
      </trkpt>
      <trkpt lat="43.77336" lon="3.84068">
        <ele>288.05</ele>
        <time>2017-03-09T15:19:11Z</time>
      </trkpt>
      <trkpt lat="43.77338" lon="3.84065">
        <ele>288.05</ele>
        <time>2017-03-09T15:19:13Z</time>
      </trkpt>
      <trkpt lat="43.77339" lon="3.84056">
        <ele>288.53</ele>
        <time>2017-03-09T15:19:20Z</time>
      </trkpt>
      <trkpt lat="43.7734" lon="3.84054">
        <ele>288.53</ele>
        <time>2017-03-09T15:19:21Z</time>
      </trkpt>
      <trkpt lat="43.77341" lon="3.84044">
        <ele>288.53</ele>
        <time>2017-03-09T15:19:28Z</time>
      </trkpt>
      <trkpt lat="43.77345" lon="3.84031">
        <ele>289.97</ele>
        <time>2017-03-09T15:19:38Z</time>
      </trkpt>
      <trkpt lat="43.77345" lon="3.84027">
        <ele>290.46</ele>
        <time>2017-03-09T15:19:41Z</time>
      </trkpt>
      <trkpt lat="43.77346" lon="3.84012">
        <ele>292.38</ele>
        <time>2017-03-09T15:19:51Z</time>
      </trkpt>
      <trkpt lat="43.77347" lon="3.8401">
        <ele>292.38</ele>
        <time>2017-03-09T15:19:52Z</time>
      </trkpt>
      <trkpt lat="43.77348" lon="3.84006">
        <ele>293.34</ele>
        <time>2017-03-09T15:19:56Z</time>
      </trkpt>
      <trkpt lat="43.77347" lon="3.83996">
        <ele>295.26</ele>
        <time>2017-03-09T15:20:03Z</time>
      </trkpt>
      <trkpt lat="43.77347" lon="3.83994">
        <ele>295.26</ele>
        <time>2017-03-09T15:20:04Z</time>
      </trkpt>
      <trkpt lat="43.77346" lon="3.83982">
        <ele>296.7</ele>
        <time>2017-03-09T15:20:12Z</time>
      </trkpt>
      <trkpt lat="43.77348" lon="3.83966">
        <ele>296.22</ele>
        <time>2017-03-09T15:20:21Z</time>
      </trkpt>
      <trkpt lat="43.77349" lon="3.83965">
        <ele>295.74</ele>
        <time>2017-03-09T15:20:23Z</time>
      </trkpt>
      <trkpt lat="43.77355" lon="3.83967">
        <ele>300.07</ele>
        <time>2017-03-09T15:20:35Z</time>
      </trkpt>
      <trkpt lat="43.77363" lon="3.83972">
        <ele>301.51</ele>
        <time>2017-03-09T15:20:45Z</time>
      </trkpt>
      <trkpt lat="43.7737" lon="3.83978">
        <ele>298.63</ele>
        <time>2017-03-09T15:20:52Z</time>
      </trkpt>
      <trkpt lat="43.77371" lon="3.83979">
        <ele>298.15</ele>
        <time>2017-03-09T15:20:53Z</time>
      </trkpt>
      <trkpt lat="43.77374" lon="3.83981">
        <ele>297.67</ele>
        <time>2017-03-09T15:20:56Z</time>
      </trkpt>
      <trkpt lat="43.77375" lon="3.83982">
        <ele>297.18</ele>
        <time>2017-03-09T15:20:57Z</time>
      </trkpt>
      <trkpt lat="43.77378" lon="3.83981">
        <ele>296.7</ele>
        <time>2017-03-09T15:21:00Z</time>
      </trkpt>
      <trkpt lat="43.77379" lon="3.8398">
        <ele>296.22</ele>
        <time>2017-03-09T15:21:01Z</time>
      </trkpt>
      <trkpt lat="43.77386" lon="3.8398">
        <ele>297.18</ele>
        <time>2017-03-09T15:21:12Z</time>
      </trkpt>
      <trkpt lat="43.77392" lon="3.83981">
        <ele>300.07</ele>
        <time>2017-03-09T15:21:19Z</time>
      </trkpt>
      <trkpt lat="43.774" lon="3.83976">
        <ele>304.88</ele>
        <time>2017-03-09T15:21:29Z</time>
      </trkpt>
      <trkpt lat="43.77408" lon="3.83965">
        <ele>307.28</ele>
        <time>2017-03-09T15:21:41Z</time>
      </trkpt>
      <trkpt lat="43.77414" lon="3.8396">
        <ele>312.09</ele>
        <time>2017-03-09T15:21:53Z</time>
      </trkpt>
      <trkpt lat="43.77418" lon="3.83958">
        <ele>314.97</ele>
        <time>2017-03-09T15:22:04Z</time>
      </trkpt>
      <trkpt lat="43.77421" lon="3.83961">
        <ele>318.33</ele>
        <time>2017-03-09T15:22:14Z</time>
      </trkpt>
      <trkpt lat="43.77426" lon="3.83958">
        <ele>321.7</ele>
        <time>2017-03-09T15:22:23Z</time>
      </trkpt>
      <trkpt lat="43.7743" lon="3.83956">
        <ele>322.66</ele>
        <time>2017-03-09T15:22:28Z</time>
      </trkpt>
      <trkpt lat="43.77435" lon="3.83956">
        <ele>324.1</ele>
        <time>2017-03-09T15:22:37Z</time>
      </trkpt>
      <trkpt lat="43.77437" lon="3.83956">
        <ele>325.06</ele>
        <time>2017-03-09T15:22:44Z</time>
      </trkpt>
      <trkpt lat="43.77445" lon="3.83952">
        <ele>326.5</ele>
        <time>2017-03-09T15:22:54Z</time>
      </trkpt>
      <trkpt lat="43.77451" lon="3.83948">
        <ele>329.87</ele>
        <time>2017-03-09T15:23:05Z</time>
      </trkpt>
      <trkpt lat="43.77452" lon="3.83947">
        <ele>329.87</ele>
        <time>2017-03-09T15:23:06Z</time>
      </trkpt>
      <trkpt lat="43.77454" lon="3.83947">
        <ele>331.31</ele>
        <time>2017-03-09T15:23:12Z</time>
      </trkpt>
      <trkpt lat="43.7746" lon="3.83946">
        <ele>333.23</ele>
        <time>2017-03-09T15:23:22Z</time>
      </trkpt>
      <trkpt lat="43.77463" lon="3.83945">
        <ele>335.16</ele>
        <time>2017-03-09T15:23:32Z</time>
      </trkpt>
      <trkpt lat="43.77468" lon="3.8395">
        <ele>336.6</ele>
        <time>2017-03-09T15:23:42Z</time>
      </trkpt>
      <trkpt lat="43.77474" lon="3.83952">
        <ele>337.56</ele>
        <time>2017-03-09T15:23:52Z</time>
      </trkpt>
      <trkpt lat="43.77478" lon="3.83954">
        <ele>339</ele>
        <time>2017-03-09T15:23:58Z</time>
      </trkpt>
      <trkpt lat="43.77481" lon="3.83963">
        <ele>340.92</ele>
        <time>2017-03-09T15:24:09Z</time>
      </trkpt>
      <trkpt lat="43.77485" lon="3.83969">
        <ele>344.29</ele>
        <time>2017-03-09T15:24:18Z</time>
      </trkpt>
      <trkpt lat="43.7749" lon="3.83973">
        <ele>347.65</ele>
        <time>2017-03-09T15:24:29Z</time>
      </trkpt>
      <trkpt lat="43.77494" lon="3.83974">
        <ele>351.02</ele>
        <time>2017-03-09T15:24:39Z</time>
      </trkpt>
      <trkpt lat="43.77496" lon="3.83972">
        <ele>353.42</ele>
        <time>2017-03-09T15:24:46Z</time>
      </trkpt>
      <trkpt lat="43.775" lon="3.83967">
        <ele>357.27</ele>
        <time>2017-03-09T15:24:57Z</time>
      </trkpt>
      <trkpt lat="43.77501" lon="3.83966">
        <ele>357.27</ele>
        <time>2017-03-09T15:25:12Z</time>
      </trkpt>
      <trkpt lat="43.77505" lon="3.83972">
        <ele>360.63</ele>
        <time>2017-03-09T15:25:24Z</time>
      </trkpt>
      <trkpt lat="43.77511" lon="3.83968">
        <ele>362.07</ele>
        <time>2017-03-09T15:25:36Z</time>
      </trkpt>
      <trkpt lat="43.77514" lon="3.83959">
        <ele>362.55</ele>
        <time>2017-03-09T15:25:43Z</time>
      </trkpt>
      <trkpt lat="43.7752" lon="3.83955">
        <ele>363.52</ele>
        <time>2017-03-09T15:25:54Z</time>
      </trkpt>
      <trkpt lat="43.77522" lon="3.83954">
        <ele>364</ele>
        <time>2017-03-09T15:26:20Z</time>
      </trkpt>
      <trkpt lat="43.77522" lon="3.83955">
        <ele>364.48</ele>
        <time>2017-03-09T15:26:22Z</time>
      </trkpt>
      <trkpt lat="43.77526" lon="3.83957">
        <ele>364.48</ele>
        <time>2017-03-09T15:26:29Z</time>
      </trkpt>
      <trkpt lat="43.7753" lon="3.83958">
        <ele>365.44</ele>
        <time>2017-03-09T15:26:35Z</time>
      </trkpt>
      <trkpt lat="43.77529" lon="3.83964">
        <ele>366.88</ele>
        <time>2017-03-09T15:26:41Z</time>
      </trkpt>
      <trkpt lat="43.77532" lon="3.83965">
        <ele>367.84</ele>
        <time>2017-03-09T15:26:45Z</time>
      </trkpt>
      <trkpt lat="43.77533" lon="3.83971">
        <ele>369.28</ele>
        <time>2017-03-09T15:26:54Z</time>
      </trkpt>
      <trkpt lat="43.77534" lon="3.83973">
        <ele>372.17</ele>
        <time>2017-03-09T15:27:04Z</time>
      </trkpt>
      <trkpt lat="43.77538" lon="3.83973">
        <ele>373.61</ele>
        <time>2017-03-09T15:27:17Z</time>
      </trkpt>
      <trkpt lat="43.7754" lon="3.83972">
        <ele>375.05</ele>
        <time>2017-03-09T15:27:33Z</time>
      </trkpt>
      <trkpt lat="43.77542" lon="3.83977">
        <ele>376.97</ele>
        <time>2017-03-09T15:27:42Z</time>
      </trkpt>
      <trkpt lat="43.77541" lon="3.83979">
        <ele>379.86</ele>
        <time>2017-03-09T15:27:54Z</time>
      </trkpt>
      <trkpt lat="43.77541" lon="3.8398">
        <ele>380.34</ele>
        <time>2017-03-09T15:27:56Z</time>
      </trkpt>
      <trkpt lat="43.77544" lon="3.83979">
        <ele>382.74</ele>
        <time>2017-03-09T15:28:06Z</time>
      </trkpt>
      <trkpt lat="43.77544" lon="3.8398">
        <ele>383.22</ele>
        <time>2017-03-09T15:28:09Z</time>
      </trkpt>
      <trkpt lat="43.77542" lon="3.83988">
        <ele>380.82</ele>
        <time>2017-03-09T15:28:19Z</time>
      </trkpt>
      <trkpt lat="43.77542" lon="3.83989">
        <ele>380.82</ele>
        <time>2017-03-09T15:28:32Z</time>
      </trkpt>
      <trkpt lat="43.77543" lon="3.83993">
        <ele>383.7</ele>
        <time>2017-03-09T15:28:45Z</time>
      </trkpt>
      <trkpt lat="43.77541" lon="3.83999">
        <ele>387.07</ele>
        <time>2017-03-09T15:28:55Z</time>
      </trkpt>
      <trkpt lat="43.77541" lon="3.8401">
        <ele>388.03</ele>
        <time>2017-03-09T15:29:06Z</time>
      </trkpt>
      <trkpt lat="43.77542" lon="3.84016">
        <ele>387.07</ele>
        <time>2017-03-09T15:29:16Z</time>
      </trkpt>
      <trkpt lat="43.77544" lon="3.84016">
        <ele>389.47</ele>
        <time>2017-03-09T15:29:31Z</time>
      </trkpt>
      <trkpt lat="43.77546" lon="3.84014">
        <ele>389.95</ele>
        <time>2017-03-09T15:29:44Z</time>
      </trkpt>
      <trkpt lat="43.77547" lon="3.84015">
        <ele>389.95</ele>
        <time>2017-03-09T15:29:49Z</time>
      </trkpt>
      <trkpt lat="43.77551" lon="3.84017">
        <ele>390.91</ele>
        <time>2017-03-09T15:29:57Z</time>
      </trkpt>
      <trkpt lat="43.77552" lon="3.84021">
        <ele>389.95</ele>
        <time>2017-03-09T15:30:01Z</time>
      </trkpt>
      <trkpt lat="43.77558" lon="3.84026">
        <ele>388.51</ele>
        <time>2017-03-09T15:30:10Z</time>
      </trkpt>
      <trkpt lat="43.77562" lon="3.84031">
        <ele>389.95</ele>
        <time>2017-03-09T15:30:25Z</time>
      </trkpt>
      <trkpt lat="43.77563" lon="3.84029">
        <ele>390.43</ele>
        <time>2017-03-09T15:30:38Z</time>
      </trkpt>
      <trkpt lat="43.77564" lon="3.84025">
        <ele>391.87</ele>
        <time>2017-03-09T15:30:42Z</time>
      </trkpt>
      <trkpt lat="43.77563" lon="3.84015">
        <ele>391.87</ele>
        <time>2017-03-09T15:30:51Z</time>
      </trkpt>
      <trkpt lat="43.77562" lon="3.84004">
        <ele>393.32</ele>
        <time>2017-03-09T15:31:01Z</time>
      </trkpt>
      <trkpt lat="43.77559" lon="3.84">
        <ele>394.28</ele>
        <time>2017-03-09T15:31:07Z</time>
      </trkpt>
      <trkpt lat="43.77554" lon="3.83995">
        <ele>395.24</ele>
        <time>2017-03-09T15:31:18Z</time>
      </trkpt>
      <trkpt lat="43.77549" lon="3.83996">
        <ele>396.2</ele>
        <time>2017-03-09T15:31:28Z</time>
      </trkpt>
      <trkpt lat="43.77548" lon="3.83995">
        <ele>394.76</ele>
        <time>2017-03-09T15:32:01Z</time>
      </trkpt>
      <trkpt lat="43.77548" lon="3.83995">
        <ele>394.76</ele>
        <time>2017-03-09T15:32:22Z</time>
      </trkpt>
      <trkpt lat="43.77549" lon="3.83997">
        <ele>395.24</ele>
        <time>2017-03-09T15:32:57Z</time>
      </trkpt>
      <trkpt lat="43.77552" lon="3.83993">
        <ele>396.2</ele>
        <time>2017-03-09T15:33:20Z</time>
      </trkpt>
      <trkpt lat="43.77552" lon="3.83994">
        <ele>396.2</ele>
        <time>2017-03-09T15:33:27Z</time>
      </trkpt>
      <trkpt lat="43.77548" lon="3.84001">
        <ele>395.72</ele>
        <time>2017-03-09T15:33:40Z</time>
      </trkpt>
      <trkpt lat="43.77548" lon="3.84006">
        <ele>392.84</ele>
        <time>2017-03-09T15:33:52Z</time>
      </trkpt>
      <trkpt lat="43.77546" lon="3.84007">
        <ele>390.91</ele>
        <time>2017-03-09T15:34:05Z</time>
      </trkpt>
      <trkpt lat="43.77546" lon="3.84012">
        <ele>388.03</ele>
        <time>2017-03-09T15:34:30Z</time>
      </trkpt>
      <trkpt lat="43.77546" lon="3.84011">
        <ele>387.07</ele>
        <time>2017-03-09T15:35:02Z</time>
      </trkpt>
      <trkpt lat="43.77546" lon="3.8401">
        <ele>386.59</ele>
        <time>2017-03-09T15:35:35Z</time>
      </trkpt>
      <trkpt lat="43.77546" lon="3.84011">
        <ele>383.7</ele>
        <time>2017-03-09T15:36:04Z</time>
      </trkpt>
      <trkpt lat="43.77548" lon="3.84013">
        <ele>383.7</ele>
        <time>2017-03-09T15:36:26Z</time>
      </trkpt>
      <trkpt lat="43.77548" lon="3.84016">
        <ele>382.26</ele>
        <time>2017-03-09T15:36:41Z</time>
      </trkpt>
      <trkpt lat="43.77549" lon="3.84017">
        <ele>379.86</ele>
        <time>2017-03-09T15:36:57Z</time>
      </trkpt>
      <trkpt lat="43.7755" lon="3.84017">
        <ele>378.42</ele>
        <time>2017-03-09T15:37:10Z</time>
      </trkpt>
      <trkpt lat="43.77549" lon="3.84015">
        <ele>378.42</ele>
        <time>2017-03-09T15:37:28Z</time>
      </trkpt>
      <trkpt lat="43.77548" lon="3.84015">
        <ele>381.3</ele>
        <time>2017-03-09T15:37:50Z</time>
      </trkpt>
      <trkpt lat="43.77548" lon="3.84015">
        <ele>382.74</ele>
        <time>2017-03-09T15:38:19Z</time>
      </trkpt>
      <trkpt lat="43.77547" lon="3.84015">
        <ele>384.66</ele>
        <time>2017-03-09T15:38:49Z</time>
      </trkpt>
      <trkpt lat="43.77545" lon="3.84018">
        <ele>382.74</ele>
        <time>2017-03-09T15:39:04Z</time>
      </trkpt>
      <trkpt lat="43.77543" lon="3.84019">
        <ele>381.3</ele>
        <time>2017-03-09T15:39:17Z</time>
      </trkpt>
      <trkpt lat="43.77541" lon="3.84023">
        <ele>376.97</ele>
        <time>2017-03-09T15:39:35Z</time>
      </trkpt>
      <trkpt lat="43.77544" lon="3.84021">
        <ele>375.05</ele>
        <time>2017-03-09T15:39:49Z</time>
      </trkpt>
      <trkpt lat="43.77542" lon="3.8402">
        <ele>372.17</ele>
        <time>2017-03-09T15:40:04Z</time>
      </trkpt>
      <trkpt lat="43.77536" lon="3.84024">
        <ele>373.13</ele>
        <time>2017-03-09T15:40:20Z</time>
      </trkpt>
      <trkpt lat="43.77537" lon="3.8402">
        <ele>372.65</ele>
        <time>2017-03-09T15:40:36Z</time>
      </trkpt>
      <trkpt lat="43.77535" lon="3.84018">
        <ele>368.8</ele>
        <time>2017-03-09T15:40:50Z</time>
      </trkpt>
      <trkpt lat="43.77535" lon="3.84013">
        <ele>370.24</ele>
        <time>2017-03-09T15:41:02Z</time>
      </trkpt>
      <trkpt lat="43.77534" lon="3.84005">
        <ele>369.76</ele>
        <time>2017-03-09T15:41:13Z</time>
      </trkpt>
      <trkpt lat="43.77534" lon="3.83998">
        <ele>368.8</ele>
        <time>2017-03-09T15:41:24Z</time>
      </trkpt>
      <trkpt lat="43.7753" lon="3.83994">
        <ele>368.32</ele>
        <time>2017-03-09T15:41:37Z</time>
      </trkpt>
      <trkpt lat="43.77531" lon="3.8399">
        <ele>368.8</ele>
        <time>2017-03-09T15:41:51Z</time>
      </trkpt>
      <trkpt lat="43.77534" lon="3.83985">
        <ele>371.69</ele>
        <time>2017-03-09T15:42:05Z</time>
      </trkpt>
      <trkpt lat="43.77537" lon="3.83978">
        <ele>370.73</ele>
        <time>2017-03-09T15:42:18Z</time>
      </trkpt>
      <trkpt lat="43.77538" lon="3.83976">
        <ele>367.36</ele>
        <time>2017-03-09T15:42:38Z</time>
      </trkpt>
      <trkpt lat="43.7754" lon="3.83975">
        <ele>367.36</ele>
        <time>2017-03-09T15:42:57Z</time>
      </trkpt>
      <trkpt lat="43.77534" lon="3.83967">
        <ele>364.48</ele>
        <time>2017-03-09T15:43:08Z</time>
      </trkpt>
      <trkpt lat="43.77529" lon="3.83962">
        <ele>362.07</ele>
        <time>2017-03-09T15:43:19Z</time>
      </trkpt>
      <trkpt lat="43.77528" lon="3.83959">
        <ele>361.59</ele>
        <time>2017-03-09T15:43:22Z</time>
      </trkpt>
      <trkpt lat="43.77521" lon="3.83948">
        <ele>361.59</ele>
        <time>2017-03-09T15:43:35Z</time>
      </trkpt>
      <trkpt lat="43.7752" lon="3.83952">
        <ele>360.15</ele>
        <time>2017-03-09T15:43:40Z</time>
      </trkpt>
      <trkpt lat="43.77524" lon="3.83953">
        <ele>360.15</ele>
        <time>2017-03-09T15:43:47Z</time>
      </trkpt>
      <trkpt lat="43.77521" lon="3.83944">
        <ele>361.11</ele>
        <time>2017-03-09T15:43:58Z</time>
      </trkpt>
      <trkpt lat="43.77521" lon="3.83939">
        <ele>360.15</ele>
        <time>2017-03-09T15:44:09Z</time>
      </trkpt>
      <trkpt lat="43.77517" lon="3.83935">
        <ele>359.67</ele>
        <time>2017-03-09T15:44:19Z</time>
      </trkpt>
      <trkpt lat="43.77518" lon="3.83928">
        <ele>358.71</ele>
        <time>2017-03-09T15:44:25Z</time>
      </trkpt>
      <trkpt lat="43.77522" lon="3.83922">
        <ele>357.27</ele>
        <time>2017-03-09T15:44:37Z</time>
      </trkpt>
      <trkpt lat="43.77523" lon="3.83919">
        <ele>356.79</ele>
        <time>2017-03-09T15:44:39Z</time>
      </trkpt>
      <trkpt lat="43.77521" lon="3.83917">
        <ele>353.9</ele>
        <time>2017-03-09T15:44:53Z</time>
      </trkpt>
      <trkpt lat="43.77524" lon="3.83913">
        <ele>356.31</ele>
        <time>2017-03-09T15:45:12Z</time>
      </trkpt>
      <trkpt lat="43.77525" lon="3.83907">
        <ele>355.83</ele>
        <time>2017-03-09T15:45:18Z</time>
      </trkpt>
      <trkpt lat="43.77524" lon="3.83886">
        <ele>353.9</ele>
        <time>2017-03-09T15:45:30Z</time>
      </trkpt>
      <trkpt lat="43.77522" lon="3.83867">
        <ele>353.9</ele>
        <time>2017-03-09T15:45:43Z</time>
      </trkpt>
      <trkpt lat="43.7752" lon="3.8385">
        <ele>352.46</ele>
        <time>2017-03-09T15:45:58Z</time>
      </trkpt>
      <trkpt lat="43.77518" lon="3.83836">
        <ele>351.5</ele>
        <time>2017-03-09T15:46:15Z</time>
      </trkpt>
      <trkpt lat="43.77515" lon="3.83818">
        <ele>350.54</ele>
        <time>2017-03-09T15:46:25Z</time>
      </trkpt>
      <trkpt lat="43.77511" lon="3.83803">
        <ele>351.5</ele>
        <time>2017-03-09T15:46:34Z</time>
      </trkpt>
      <trkpt lat="43.77505" lon="3.83785">
        <ele>350.06</ele>
        <time>2017-03-09T15:46:48Z</time>
      </trkpt>
      <trkpt lat="43.77506" lon="3.83778">
        <ele>348.62</ele>
        <time>2017-03-09T15:47:02Z</time>
      </trkpt>
      <trkpt lat="43.77506" lon="3.83777">
        <ele>348.62</ele>
        <time>2017-03-09T15:47:33Z</time>
      </trkpt>
      <trkpt lat="43.77506" lon="3.83776">
        <ele>347.17</ele>
        <time>2017-03-09T15:47:59Z</time>
      </trkpt>
      <trkpt lat="43.77506" lon="3.83774">
        <ele>347.65</ele>
        <time>2017-03-09T15:48:17Z</time>
      </trkpt>
      <trkpt lat="43.77502" lon="3.83758">
        <ele>345.73</ele>
        <time>2017-03-09T15:48:31Z</time>
      </trkpt>
      <trkpt lat="43.775" lon="3.83757">
        <ele>344.77</ele>
        <time>2017-03-09T15:48:51Z</time>
      </trkpt>
      <trkpt lat="43.775" lon="3.83757">
        <ele>342.85</ele>
        <time>2017-03-09T15:49:13Z</time>
      </trkpt>
      <trkpt lat="43.77498" lon="3.83749">
        <ele>341.41</ele>
        <time>2017-03-09T15:49:36Z</time>
      </trkpt>
      <trkpt lat="43.77498" lon="3.83728">
        <ele>338.04</ele>
        <time>2017-03-09T15:49:49Z</time>
      </trkpt>
      <trkpt lat="43.77498" lon="3.83704">
        <ele>335.64</ele>
        <time>2017-03-09T15:50:03Z</time>
      </trkpt>
      <trkpt lat="43.77497" lon="3.83698">
        <ele>335.64</ele>
        <time>2017-03-09T15:50:06Z</time>
      </trkpt>
      <trkpt lat="43.77498" lon="3.8368">
        <ele>334.2</ele>
        <time>2017-03-09T15:50:17Z</time>
      </trkpt>
      <trkpt lat="43.77496" lon="3.83664">
        <ele>333.23</ele>
        <time>2017-03-09T15:50:24Z</time>
      </trkpt>
      <trkpt lat="43.77491" lon="3.83638">
        <ele>332.27</ele>
        <time>2017-03-09T15:50:38Z</time>
      </trkpt>
      <trkpt lat="43.77489" lon="3.83615">
        <ele>331.31</ele>
        <time>2017-03-09T15:50:50Z</time>
      </trkpt>
      <trkpt lat="43.77487" lon="3.83597">
        <ele>331.31</ele>
        <time>2017-03-09T15:51:01Z</time>
      </trkpt>
      <trkpt lat="43.77486" lon="3.83586">
        <ele>330.83</ele>
        <time>2017-03-09T15:51:07Z</time>
      </trkpt>
      <trkpt lat="43.77482" lon="3.83559">
        <ele>329.87</ele>
        <time>2017-03-09T15:51:20Z</time>
      </trkpt>
      <trkpt lat="43.7748" lon="3.83548">
        <ele>330.83</ele>
        <time>2017-03-09T15:51:27Z</time>
      </trkpt>
      <trkpt lat="43.77474" lon="3.8353">
        <ele>331.79</ele>
        <time>2017-03-09T15:51:37Z</time>
      </trkpt>
      <trkpt lat="43.77469" lon="3.83508">
        <ele>329.87</ele>
        <time>2017-03-09T15:51:49Z</time>
      </trkpt>
      <trkpt lat="43.77465" lon="3.83499">
        <ele>329.87</ele>
        <time>2017-03-09T15:52:03Z</time>
      </trkpt>
      <trkpt lat="43.77462" lon="3.83498">
        <ele>329.39</ele>
        <time>2017-03-09T15:52:37Z</time>
      </trkpt>
      <trkpt lat="43.77463" lon="3.835">
        <ele>328.91</ele>
        <time>2017-03-09T15:52:55Z</time>
      </trkpt>
      <trkpt lat="43.7746" lon="3.83503">
        <ele>325.54</ele>
        <time>2017-03-09T15:53:12Z</time>
      </trkpt>
      <trkpt lat="43.77458" lon="3.83517">
        <ele>324.58</ele>
        <time>2017-03-09T15:53:24Z</time>
      </trkpt>
      <trkpt lat="43.77457" lon="3.83539">
        <ele>322.18</ele>
        <time>2017-03-09T15:53:36Z</time>
      </trkpt>
      <trkpt lat="43.77456" lon="3.83563">
        <ele>319.3</ele>
        <time>2017-03-09T15:53:47Z</time>
      </trkpt>
      <trkpt lat="43.77453" lon="3.83567">
        <ele>318.81</ele>
        <time>2017-03-09T15:53:53Z</time>
      </trkpt>
      <trkpt lat="43.77452" lon="3.83565">
        <ele>318.81</ele>
        <time>2017-03-09T15:53:55Z</time>
      </trkpt>
      <trkpt lat="43.77448" lon="3.83555">
        <ele>319.78</ele>
        <time>2017-03-09T15:54:01Z</time>
      </trkpt>
      <trkpt lat="43.7744" lon="3.83543">
        <ele>321.7</ele>
        <time>2017-03-09T15:54:10Z</time>
      </trkpt>
      <trkpt lat="43.77429" lon="3.83523">
        <ele>320.74</ele>
        <time>2017-03-09T15:54:23Z</time>
      </trkpt>
      <trkpt lat="43.77419" lon="3.83506">
        <ele>319.3</ele>
        <time>2017-03-09T15:54:35Z</time>
      </trkpt>
      <trkpt lat="43.77417" lon="3.83502">
        <ele>319.3</ele>
        <time>2017-03-09T15:54:37Z</time>
      </trkpt>
      <trkpt lat="43.77408" lon="3.8348">
        <ele>318.81</ele>
        <time>2017-03-09T15:54:50Z</time>
      </trkpt>
      <trkpt lat="43.77398" lon="3.83463">
        <ele>316.41</ele>
        <time>2017-03-09T15:55:01Z</time>
      </trkpt>
      <trkpt lat="43.77397" lon="3.83461">
        <ele>316.41</ele>
        <time>2017-03-09T15:55:03Z</time>
      </trkpt>
      <trkpt lat="43.77392" lon="3.83451">
        <ele>315.45</ele>
        <time>2017-03-09T15:55:10Z</time>
      </trkpt>
      <trkpt lat="43.77391" lon="3.8345">
        <ele>314.97</ele>
        <time>2017-03-09T15:55:11Z</time>
      </trkpt>
      <trkpt lat="43.77381" lon="3.83441">
        <ele>316.41</ele>
        <time>2017-03-09T15:55:21Z</time>
      </trkpt>
      <trkpt lat="43.77369" lon="3.83432">
        <ele>316.89</ele>
        <time>2017-03-09T15:55:32Z</time>
      </trkpt>
      <trkpt lat="43.77368" lon="3.83429">
        <ele>316.89</ele>
        <time>2017-03-09T15:55:33Z</time>
      </trkpt>
      <trkpt lat="43.77367" lon="3.83417">
        <ele>318.33</ele>
        <time>2017-03-09T15:55:44Z</time>
      </trkpt>
      <trkpt lat="43.77368" lon="3.83411">
        <ele>318.81</ele>
        <time>2017-03-09T15:55:47Z</time>
      </trkpt>
      <trkpt lat="43.77368" lon="3.83409">
        <ele>318.81</ele>
        <time>2017-03-09T15:55:48Z</time>
      </trkpt>
      <trkpt lat="43.7737" lon="3.83388">
        <ele>317.37</ele>
        <time>2017-03-09T15:55:59Z</time>
      </trkpt>
      <trkpt lat="43.77374" lon="3.83371">
        <ele>315.93</ele>
        <time>2017-03-09T15:56:11Z</time>
      </trkpt>
      <trkpt lat="43.77378" lon="3.83357">
        <ele>315.45</ele>
        <time>2017-03-09T15:56:19Z</time>
      </trkpt>
      <trkpt lat="43.77377" lon="3.83356">
        <ele>314.97</ele>
        <time>2017-03-09T15:56:20Z</time>
      </trkpt>
      <trkpt lat="43.77378" lon="3.83354">
        <ele>314.97</ele>
        <time>2017-03-09T15:56:21Z</time>
      </trkpt>
      <trkpt lat="43.77378" lon="3.83351">
        <ele>314.49</ele>
        <time>2017-03-09T15:56:22Z</time>
      </trkpt>
      <trkpt lat="43.77379" lon="3.83344">
        <ele>314.01</ele>
        <time>2017-03-09T15:56:27Z</time>
      </trkpt>
      <trkpt lat="43.77381" lon="3.83318">
        <ele>316.41</ele>
        <time>2017-03-09T15:56:39Z</time>
      </trkpt>
      <trkpt lat="43.77382" lon="3.83311">
        <ele>316.41</ele>
        <time>2017-03-09T15:56:43Z</time>
      </trkpt>
      <trkpt lat="43.77382" lon="3.83309">
        <ele>316.41</ele>
        <time>2017-03-09T15:56:44Z</time>
      </trkpt>
      <trkpt lat="43.7738" lon="3.83288">
        <ele>316.89</ele>
        <time>2017-03-09T15:56:55Z</time>
      </trkpt>
      <trkpt lat="43.7738" lon="3.83283">
        <ele>316.41</ele>
        <time>2017-03-09T15:56:57Z</time>
      </trkpt>
      <trkpt lat="43.7738" lon="3.83281">
        <ele>316.41</ele>
        <time>2017-03-09T15:56:58Z</time>
      </trkpt>
      <trkpt lat="43.7738" lon="3.83278">
        <ele>316.41</ele>
        <time>2017-03-09T15:56:59Z</time>
      </trkpt>
      <trkpt lat="43.7738" lon="3.83276">
        <ele>315.93</ele>
        <time>2017-03-09T15:57:00Z</time>
      </trkpt>
      <trkpt lat="43.77382" lon="3.83254">
        <ele>313.53</ele>
        <time>2017-03-09T15:57:12Z</time>
      </trkpt>
      <trkpt lat="43.77383" lon="3.83242">
        <ele>313.53</ele>
        <time>2017-03-09T15:57:19Z</time>
      </trkpt>
      <trkpt lat="43.77383" lon="3.8324">
        <ele>313.53</ele>
        <time>2017-03-09T15:57:20Z</time>
      </trkpt>
      <trkpt lat="43.77383" lon="3.83238">
        <ele>313.53</ele>
        <time>2017-03-09T15:57:21Z</time>
      </trkpt>
      <trkpt lat="43.77384" lon="3.8323">
        <ele>314.01</ele>
        <time>2017-03-09T15:57:26Z</time>
      </trkpt>
      <trkpt lat="43.77383" lon="3.83228">
        <ele>314.01</ele>
        <time>2017-03-09T15:57:27Z</time>
      </trkpt>
      <trkpt lat="43.77383" lon="3.83226">
        <ele>314.01</ele>
        <time>2017-03-09T15:57:28Z</time>
      </trkpt>
      <trkpt lat="43.77384" lon="3.8321">
        <ele>314.97</ele>
        <time>2017-03-09T15:57:36Z</time>
      </trkpt>
      <trkpt lat="43.77385" lon="3.83201">
        <ele>314.97</ele>
        <time>2017-03-09T15:57:40Z</time>
      </trkpt>
      <trkpt lat="43.77385" lon="3.83199">
        <ele>314.97</ele>
        <time>2017-03-09T15:57:41Z</time>
      </trkpt>
      <trkpt lat="43.77387" lon="3.83193">
        <ele>314.01</ele>
        <time>2017-03-09T15:57:46Z</time>
      </trkpt>
      <trkpt lat="43.77387" lon="3.83189">
        <ele>314.01</ele>
        <time>2017-03-09T15:57:48Z</time>
      </trkpt>
      <trkpt lat="43.77387" lon="3.83186">
        <ele>314.01</ele>
        <time>2017-03-09T15:57:49Z</time>
      </trkpt>
      <trkpt lat="43.77393" lon="3.83164">
        <ele>313.53</ele>
        <time>2017-03-09T15:57:59Z</time>
      </trkpt>
      <trkpt lat="43.77395" lon="3.83156">
        <ele>313.53</ele>
        <time>2017-03-09T15:58:02Z</time>
      </trkpt>
      <trkpt lat="43.77396" lon="3.83131">
        <ele>313.53</ele>
        <time>2017-03-09T15:58:14Z</time>
      </trkpt>
      <trkpt lat="43.77396" lon="3.83124">
        <ele>313.05</ele>
        <time>2017-03-09T15:58:18Z</time>
      </trkpt>
      <trkpt lat="43.77395" lon="3.83122">
        <ele>313.05</ele>
        <time>2017-03-09T15:58:19Z</time>
      </trkpt>
      <trkpt lat="43.77395" lon="3.83119">
        <ele>313.05</ele>
        <time>2017-03-09T15:58:20Z</time>
      </trkpt>
      <trkpt lat="43.77395" lon="3.83117">
        <ele>312.57</ele>
        <time>2017-03-09T15:58:21Z</time>
      </trkpt>
      <trkpt lat="43.77396" lon="3.83115">
        <ele>312.57</ele>
        <time>2017-03-09T15:58:22Z</time>
      </trkpt>
      <trkpt lat="43.77396" lon="3.83113">
        <ele>312.57</ele>
        <time>2017-03-09T15:58:23Z</time>
      </trkpt>
      <trkpt lat="43.77396" lon="3.83111">
        <ele>312.57</ele>
        <time>2017-03-09T15:58:24Z</time>
      </trkpt>
      <trkpt lat="43.77395" lon="3.83106">
        <ele>312.09</ele>
        <time>2017-03-09T15:58:27Z</time>
      </trkpt>
      <trkpt lat="43.77394" lon="3.83095">
        <ele>311.12</ele>
        <time>2017-03-09T15:58:32Z</time>
      </trkpt>
      <trkpt lat="43.77394" lon="3.83093">
        <ele>311.12</ele>
        <time>2017-03-09T15:58:33Z</time>
      </trkpt>
      <trkpt lat="43.77394" lon="3.8309">
        <ele>310.64</ele>
        <time>2017-03-09T15:58:39Z</time>
      </trkpt>
      <trkpt lat="43.77393" lon="3.83085">
        <ele>310.16</ele>
        <time>2017-03-09T15:58:52Z</time>
      </trkpt>
      <trkpt lat="43.77394" lon="3.8308">
        <ele>309.2</ele>
        <time>2017-03-09T15:59:09Z</time>
      </trkpt>
      <trkpt lat="43.77393" lon="3.83084">
        <ele>309.2</ele>
        <time>2017-03-09T15:59:31Z</time>
      </trkpt>
      <trkpt lat="43.77393" lon="3.83084">
        <ele>309.2</ele>
        <time>2017-03-09T15:59:47Z</time>
      </trkpt>
      <trkpt lat="43.77392" lon="3.83082">
        <ele>309.68</ele>
        <time>2017-03-09T16:00:14Z</time>
      </trkpt>
      <trkpt lat="43.77392" lon="3.83082">
        <ele>308.24</ele>
        <time>2017-03-09T16:00:40Z</time>
      </trkpt>
      <trkpt lat="43.77392" lon="3.83081">
        <ele>307.28</ele>
        <time>2017-03-09T16:01:04Z</time>
      </trkpt>
      <trkpt lat="43.77392" lon="3.83082">
        <ele>308.24</ele>
        <time>2017-03-09T16:01:18Z</time>
      </trkpt>
      <trkpt lat="43.77398" lon="3.83064">
        <ele>309.2</ele>
        <time>2017-03-09T16:01:32Z</time>
      </trkpt>
      <trkpt lat="43.77404" lon="3.83055">
        <ele>307.28</ele>
        <time>2017-03-09T16:01:40Z</time>
      </trkpt>
      <trkpt lat="43.77405" lon="3.83054">
        <ele>306.8</ele>
        <time>2017-03-09T16:01:41Z</time>
      </trkpt>
      <trkpt lat="43.77406" lon="3.83052">
        <ele>306.8</ele>
        <time>2017-03-09T16:01:42Z</time>
      </trkpt>
      <trkpt lat="43.77407" lon="3.8305">
        <ele>306.32</ele>
        <time>2017-03-09T16:01:43Z</time>
      </trkpt>
      <trkpt lat="43.77408" lon="3.83049">
        <ele>306.32</ele>
        <time>2017-03-09T16:01:44Z</time>
      </trkpt>
      <trkpt lat="43.77414" lon="3.83029">
        <ele>305.84</ele>
        <time>2017-03-09T16:01:58Z</time>
      </trkpt>
      <trkpt lat="43.77417" lon="3.83018">
        <ele>307.28</ele>
        <time>2017-03-09T16:02:03Z</time>
      </trkpt>
      <trkpt lat="43.77418" lon="3.83017">
        <ele>307.76</ele>
        <time>2017-03-09T16:02:04Z</time>
      </trkpt>
      <trkpt lat="43.77423" lon="3.82996">
        <ele>307.76</ele>
        <time>2017-03-09T16:02:16Z</time>
      </trkpt>
      <trkpt lat="43.77431" lon="3.82978">
        <ele>309.2</ele>
        <time>2017-03-09T16:02:27Z</time>
      </trkpt>
      <trkpt lat="43.77437" lon="3.82957">
        <ele>309.2</ele>
        <time>2017-03-09T16:02:39Z</time>
      </trkpt>
      <trkpt lat="43.77439" lon="3.82951">
        <ele>309.68</ele>
        <time>2017-03-09T16:02:42Z</time>
      </trkpt>
      <trkpt lat="43.7744" lon="3.82949">
        <ele>309.68</ele>
        <time>2017-03-09T16:02:43Z</time>
      </trkpt>
      <trkpt lat="43.77441" lon="3.82944">
        <ele>310.16</ele>
        <time>2017-03-09T16:02:47Z</time>
      </trkpt>
      <trkpt lat="43.77443" lon="3.82932">
        <ele>311.12</ele>
        <time>2017-03-09T16:02:55Z</time>
      </trkpt>
      <trkpt lat="43.77443" lon="3.8293">
        <ele>311.12</ele>
        <time>2017-03-09T16:02:56Z</time>
      </trkpt>
      <trkpt lat="43.77444" lon="3.82928">
        <ele>311.12</ele>
        <time>2017-03-09T16:02:57Z</time>
      </trkpt>
      <trkpt lat="43.77447" lon="3.8291">
        <ele>310.16</ele>
        <time>2017-03-09T16:03:07Z</time>
      </trkpt>
      <trkpt lat="43.77448" lon="3.82893">
        <ele>310.16</ele>
        <time>2017-03-09T16:03:16Z</time>
      </trkpt>
      <trkpt lat="43.77448" lon="3.82891">
        <ele>309.68</ele>
        <time>2017-03-09T16:03:21Z</time>
      </trkpt>
      <trkpt lat="43.77449" lon="3.82892">
        <ele>309.68</ele>
        <time>2017-03-09T16:03:24Z</time>
      </trkpt>
      <trkpt lat="43.77449" lon="3.82882">
        <ele>310.64</ele>
        <time>2017-03-09T16:03:35Z</time>
      </trkpt>
      <trkpt lat="43.77449" lon="3.8288">
        <ele>310.64</ele>
        <time>2017-03-09T16:03:49Z</time>
      </trkpt>
      <trkpt lat="43.7745" lon="3.82878">
        <ele>312.57</ele>
        <time>2017-03-09T16:04:16Z</time>
      </trkpt>
      <trkpt lat="43.7745" lon="3.82878">
        <ele>311.12</ele>
        <time>2017-03-09T16:04:43Z</time>
      </trkpt>
      <trkpt lat="43.77447" lon="3.82863">
        <ele>307.76</ele>
        <time>2017-03-09T16:04:52Z</time>
      </trkpt>
      <trkpt lat="43.77445" lon="3.82857">
        <ele>307.28</ele>
        <time>2017-03-09T16:04:55Z</time>
      </trkpt>
      <trkpt lat="43.77434" lon="3.82836">
        <ele>305.36</ele>
        <time>2017-03-09T16:05:07Z</time>
      </trkpt>
      <trkpt lat="43.77432" lon="3.82832">
        <ele>305.36</ele>
        <time>2017-03-09T16:05:10Z</time>
      </trkpt>
      <trkpt lat="43.77431" lon="3.82826">
        <ele>305.84</ele>
        <time>2017-03-09T16:05:13Z</time>
      </trkpt>
      <trkpt lat="43.77433" lon="3.82822">
        <ele>305.84</ele>
        <time>2017-03-09T16:05:16Z</time>
      </trkpt>
      <trkpt lat="43.77441" lon="3.82824">
        <ele>308.72</ele>
        <time>2017-03-09T16:05:33Z</time>
      </trkpt>
      <trkpt lat="43.77437" lon="3.82822">
        <ele>309.2</ele>
        <time>2017-03-09T16:06:04Z</time>
      </trkpt>
      <trkpt lat="43.7743" lon="3.82822">
        <ele>308.72</ele>
        <time>2017-03-09T16:06:19Z</time>
      </trkpt>
      <trkpt lat="43.77428" lon="3.82822">
        <ele>309.68</ele>
        <time>2017-03-09T16:06:41Z</time>
      </trkpt>
      <trkpt lat="43.77431" lon="3.82821">
        <ele>311.12</ele>
        <time>2017-03-09T16:07:04Z</time>
      </trkpt>
      <trkpt lat="43.77431" lon="3.82822">
        <ele>310.16</ele>
        <time>2017-03-09T16:07:34Z</time>
      </trkpt>
      <trkpt lat="43.77431" lon="3.82821">
        <ele>310.64</ele>
        <time>2017-03-09T16:08:01Z</time>
      </trkpt>
      <trkpt lat="43.7743" lon="3.82821">
        <ele>311.12</ele>
        <time>2017-03-09T16:08:13Z</time>
      </trkpt>
      <trkpt lat="43.7743" lon="3.82822">
        <ele>312.09</ele>
        <time>2017-03-09T16:08:32Z</time>
      </trkpt>
      <trkpt lat="43.77429" lon="3.82818">
        <ele>312.57</ele>
        <time>2017-03-09T16:08:45Z</time>
      </trkpt>
      <trkpt lat="43.77427" lon="3.82814">
        <ele>312.57</ele>
        <time>2017-03-09T16:08:49Z</time>
      </trkpt>
      <trkpt lat="43.77422" lon="3.82794">
        <ele>312.57</ele>
        <time>2017-03-09T16:09:05Z</time>
      </trkpt>
      <trkpt lat="43.77422" lon="3.82772">
        <ele>313.05</ele>
        <time>2017-03-09T16:09:20Z</time>
      </trkpt>
      <trkpt lat="43.77423" lon="3.82757">
        <ele>314.01</ele>
        <time>2017-03-09T16:09:27Z</time>
      </trkpt>
      <trkpt lat="43.77423" lon="3.82747">
        <ele>313.53</ele>
        <time>2017-03-09T16:09:33Z</time>
      </trkpt>
      <trkpt lat="43.77428" lon="3.82729">
        <ele>312.57</ele>
        <time>2017-03-09T16:09:43Z</time>
      </trkpt>
      <trkpt lat="43.77432" lon="3.82709">
        <ele>313.53</ele>
        <time>2017-03-09T16:09:55Z</time>
      </trkpt>
      <trkpt lat="43.77434" lon="3.82698">
        <ele>313.05</ele>
        <time>2017-03-09T16:10:02Z</time>
      </trkpt>
      <trkpt lat="43.77434" lon="3.82687">
        <ele>311.6</ele>
        <time>2017-03-09T16:10:08Z</time>
      </trkpt>
      <trkpt lat="43.77437" lon="3.82664">
        <ele>311.12</ele>
        <time>2017-03-09T16:10:20Z</time>
      </trkpt>
      <trkpt lat="43.77438" lon="3.82646">
        <ele>310.64</ele>
        <time>2017-03-09T16:10:30Z</time>
      </trkpt>
      <trkpt lat="43.77442" lon="3.82627">
        <ele>311.12</ele>
        <time>2017-03-09T16:10:41Z</time>
      </trkpt>
      <trkpt lat="43.77446" lon="3.82621">
        <ele>312.09</ele>
        <time>2017-03-09T16:10:56Z</time>
      </trkpt>
      <trkpt lat="43.77446" lon="3.8262">
        <ele>313.53</ele>
        <time>2017-03-09T16:11:29Z</time>
      </trkpt>
      <trkpt lat="43.77448" lon="3.82621">
        <ele>314.97</ele>
        <time>2017-03-09T16:11:59Z</time>
      </trkpt>
      <trkpt lat="43.77449" lon="3.82621">
        <ele>314.49</ele>
        <time>2017-03-09T16:12:17Z</time>
      </trkpt>
      <trkpt lat="43.77452" lon="3.82624">
        <ele>313.53</ele>
        <time>2017-03-09T16:12:36Z</time>
      </trkpt>
      <trkpt lat="43.77451" lon="3.82628">
        <ele>313.53</ele>
        <time>2017-03-09T16:12:59Z</time>
      </trkpt>
      <trkpt lat="43.77447" lon="3.82619">
        <ele>314.01</ele>
        <time>2017-03-09T16:13:11Z</time>
      </trkpt>
      <trkpt lat="43.77444" lon="3.8262">
        <ele>316.89</ele>
        <time>2017-03-09T16:13:27Z</time>
      </trkpt>
      <trkpt lat="43.77446" lon="3.82607">
        <ele>314.49</ele>
        <time>2017-03-09T16:13:43Z</time>
      </trkpt>
      <trkpt lat="43.77446" lon="3.826">
        <ele>312.57</ele>
        <time>2017-03-09T16:13:59Z</time>
      </trkpt>
      <trkpt lat="43.77448" lon="3.82594">
        <ele>313.05</ele>
        <time>2017-03-09T16:14:20Z</time>
      </trkpt>
      <trkpt lat="43.77447" lon="3.82587">
        <ele>313.05</ele>
        <time>2017-03-09T16:14:25Z</time>
      </trkpt>
      <trkpt lat="43.77455" lon="3.82567">
        <ele>311.12</ele>
        <time>2017-03-09T16:14:40Z</time>
      </trkpt>
      <trkpt lat="43.7746" lon="3.82556">
        <ele>309.2</ele>
        <time>2017-03-09T16:14:46Z</time>
      </trkpt>
      <trkpt lat="43.77464" lon="3.82552">
        <ele>308.72</ele>
        <time>2017-03-09T16:14:49Z</time>
      </trkpt>
      <trkpt lat="43.7747" lon="3.82538">
        <ele>307.76</ele>
        <time>2017-03-09T16:14:58Z</time>
      </trkpt>
      <trkpt lat="43.77474" lon="3.82516">
        <ele>309.2</ele>
        <time>2017-03-09T16:15:11Z</time>
      </trkpt>
      <trkpt lat="43.77476" lon="3.82498">
        <ele>313.05</ele>
        <time>2017-03-09T16:15:22Z</time>
      </trkpt>
      <trkpt lat="43.77475" lon="3.82494">
        <ele>314.97</ele>
        <time>2017-03-09T16:15:29Z</time>
      </trkpt>
      <trkpt lat="43.77477" lon="3.82486">
        <ele>316.89</ele>
        <time>2017-03-09T16:15:36Z</time>
      </trkpt>
      <trkpt lat="43.77481" lon="3.82476">
        <ele>319.3</ele>
        <time>2017-03-09T16:15:44Z</time>
      </trkpt>
      <trkpt lat="43.77482" lon="3.82465">
        <ele>319.78</ele>
        <time>2017-03-09T16:15:52Z</time>
      </trkpt>
      <trkpt lat="43.77484" lon="3.82458">
        <ele>320.74</ele>
        <time>2017-03-09T16:15:58Z</time>
      </trkpt>
      <trkpt lat="43.77487" lon="3.82445">
        <ele>322.18</ele>
        <time>2017-03-09T16:16:08Z</time>
      </trkpt>
      <trkpt lat="43.77493" lon="3.82434">
        <ele>324.58</ele>
        <time>2017-03-09T16:16:17Z</time>
      </trkpt>
      <trkpt lat="43.77497" lon="3.82427">
        <ele>326.99</ele>
        <time>2017-03-09T16:16:28Z</time>
      </trkpt>
      <trkpt lat="43.775" lon="3.82424">
        <ele>328.43</ele>
        <time>2017-03-09T16:16:34Z</time>
      </trkpt>
      <trkpt lat="43.77505" lon="3.82427">
        <ele>329.39</ele>
        <time>2017-03-09T16:16:39Z</time>
      </trkpt>
      <trkpt lat="43.7751" lon="3.82414">
        <ele>332.75</ele>
        <time>2017-03-09T16:16:49Z</time>
      </trkpt>
      <trkpt lat="43.77511" lon="3.82413">
        <ele>333.23</ele>
        <time>2017-03-09T16:16:51Z</time>
      </trkpt>
      <trkpt lat="43.7752" lon="3.82402">
        <ele>334.2</ele>
        <time>2017-03-09T16:17:02Z</time>
      </trkpt>
      <trkpt lat="43.77526" lon="3.82394">
        <ele>334.2</ele>
        <time>2017-03-09T16:17:11Z</time>
      </trkpt>
      <trkpt lat="43.77526" lon="3.82388">
        <ele>334.68</ele>
        <time>2017-03-09T16:17:17Z</time>
      </trkpt>
      <trkpt lat="43.77527" lon="3.82382">
        <ele>335.16</ele>
        <time>2017-03-09T16:17:24Z</time>
      </trkpt>
      <trkpt lat="43.77533" lon="3.82377">
        <ele>337.08</ele>
        <time>2017-03-09T16:17:32Z</time>
      </trkpt>
      <trkpt lat="43.77534" lon="3.82369">
        <ele>338.52</ele>
        <time>2017-03-09T16:17:39Z</time>
      </trkpt>
      <trkpt lat="43.77531" lon="3.82365">
        <ele>339</ele>
        <time>2017-03-09T16:17:43Z</time>
      </trkpt>
      <trkpt lat="43.77529" lon="3.8236">
        <ele>339.96</ele>
        <time>2017-03-09T16:17:48Z</time>
      </trkpt>
      <trkpt lat="43.77531" lon="3.82351">
        <ele>342.85</ele>
        <time>2017-03-09T16:17:57Z</time>
      </trkpt>
      <trkpt lat="43.77534" lon="3.82348">
        <ele>343.81</ele>
        <time>2017-03-09T16:18:01Z</time>
      </trkpt>
      <trkpt lat="43.77537" lon="3.82343">
        <ele>344.77</ele>
        <time>2017-03-09T16:18:06Z</time>
      </trkpt>
      <trkpt lat="43.77542" lon="3.82335">
        <ele>345.73</ele>
        <time>2017-03-09T16:18:16Z</time>
      </trkpt>
      <trkpt lat="43.77545" lon="3.82329">
        <ele>347.65</ele>
        <time>2017-03-09T16:18:23Z</time>
      </trkpt>
      <trkpt lat="43.77546" lon="3.82322">
        <ele>348.62</ele>
        <time>2017-03-09T16:18:28Z</time>
      </trkpt>
      <trkpt lat="43.77549" lon="3.82321">
        <ele>350.06</ele>
        <time>2017-03-09T16:18:33Z</time>
      </trkpt>
      <trkpt lat="43.77551" lon="3.82318">
        <ele>352.46</ele>
        <time>2017-03-09T16:18:45Z</time>
      </trkpt>
      <trkpt lat="43.77555" lon="3.82318">
        <ele>353.42</ele>
        <time>2017-03-09T16:18:59Z</time>
      </trkpt>
      <trkpt lat="43.77555" lon="3.82318">
        <ele>353.9</ele>
        <time>2017-03-09T16:19:01Z</time>
      </trkpt>
      <trkpt lat="43.77557" lon="3.82316">
        <ele>354.38</ele>
        <time>2017-03-09T16:19:05Z</time>
      </trkpt>
      <trkpt lat="43.7756" lon="3.82316">
        <ele>354.38</ele>
        <time>2017-03-09T16:19:09Z</time>
      </trkpt>
      <trkpt lat="43.77565" lon="3.82308">
        <ele>356.31</ele>
        <time>2017-03-09T16:19:16Z</time>
      </trkpt>
      <trkpt lat="43.77567" lon="3.823">
        <ele>357.75</ele>
        <time>2017-03-09T16:19:23Z</time>
      </trkpt>
      <trkpt lat="43.77572" lon="3.82293">
        <ele>360.15</ele>
        <time>2017-03-09T16:19:35Z</time>
      </trkpt>
      <trkpt lat="43.77582" lon="3.82282">
        <ele>362.07</ele>
        <time>2017-03-09T16:19:46Z</time>
      </trkpt>
      <trkpt lat="43.77587" lon="3.82269">
        <ele>364</ele>
        <time>2017-03-09T16:19:56Z</time>
      </trkpt>
      <trkpt lat="43.77587" lon="3.82265">
        <ele>364.96</ele>
        <time>2017-03-09T16:19:59Z</time>
      </trkpt>
      <trkpt lat="43.77589" lon="3.8225">
        <ele>368.32</ele>
        <time>2017-03-09T16:20:10Z</time>
      </trkpt>
      <trkpt lat="43.77591" lon="3.82246">
        <ele>368.8</ele>
        <time>2017-03-09T16:20:13Z</time>
      </trkpt>
      <trkpt lat="43.77594" lon="3.82241">
        <ele>368.8</ele>
        <time>2017-03-09T16:20:18Z</time>
      </trkpt>
      <trkpt lat="43.77596" lon="3.82229">
        <ele>368.8</ele>
        <time>2017-03-09T16:20:25Z</time>
      </trkpt>
      <trkpt lat="43.77595" lon="3.82216">
        <ele>371.21</ele>
        <time>2017-03-09T16:20:34Z</time>
      </trkpt>
      <trkpt lat="43.77595" lon="3.82212">
        <ele>371.69</ele>
        <time>2017-03-09T16:20:37Z</time>
      </trkpt>
      <trkpt lat="43.77596" lon="3.82207">
        <ele>371.69</ele>
        <time>2017-03-09T16:20:41Z</time>
      </trkpt>
      <trkpt lat="43.77596" lon="3.82201">
        <ele>372.17</ele>
        <time>2017-03-09T16:20:45Z</time>
      </trkpt>
      <trkpt lat="43.77602" lon="3.82187">
        <ele>373.13</ele>
        <time>2017-03-09T16:20:57Z</time>
      </trkpt>
      <trkpt lat="43.77602" lon="3.82185">
        <ele>373.13</ele>
        <time>2017-03-09T16:20:58Z</time>
      </trkpt>
      <trkpt lat="43.77602" lon="3.82175">
        <ele>374.09</ele>
        <time>2017-03-09T16:21:09Z</time>
      </trkpt>
      <trkpt lat="43.77601" lon="3.82175">
        <ele>373.61</ele>
        <time>2017-03-09T16:21:28Z</time>
      </trkpt>
      <trkpt lat="43.77599" lon="3.82174">
        <ele>374.09</ele>
        <time>2017-03-09T16:21:46Z</time>
      </trkpt>
      <trkpt lat="43.77602" lon="3.82173">
        <ele>373.61</ele>
        <time>2017-03-09T16:22:16Z</time>
      </trkpt>
      <trkpt lat="43.77595" lon="3.82171">
        <ele>373.13</ele>
        <time>2017-03-09T16:22:41Z</time>
      </trkpt>
      <trkpt lat="43.77592" lon="3.82171">
        <ele>372.65</ele>
        <time>2017-03-09T16:22:44Z</time>
      </trkpt>
      <trkpt lat="43.77576" lon="3.82163">
        <ele>372.17</ele>
        <time>2017-03-09T16:22:58Z</time>
      </trkpt>
      <trkpt lat="43.77571" lon="3.82156">
        <ele>372.17</ele>
        <time>2017-03-09T16:23:04Z</time>
      </trkpt>
      <trkpt lat="43.77563" lon="3.8214">
        <ele>372.65</ele>
        <time>2017-03-09T16:23:18Z</time>
      </trkpt>
      <trkpt lat="43.77553" lon="3.82132">
        <ele>371.69</ele>
        <time>2017-03-09T16:23:28Z</time>
      </trkpt>
      <trkpt lat="43.77544" lon="3.82123">
        <ele>370.73</ele>
        <time>2017-03-09T16:23:38Z</time>
      </trkpt>
      <trkpt lat="43.77535" lon="3.82115">
        <ele>370.73</ele>
        <time>2017-03-09T16:23:50Z</time>
      </trkpt>
      <trkpt lat="43.77527" lon="3.82109">
        <ele>370.24</ele>
        <time>2017-03-09T16:23:59Z</time>
      </trkpt>
      <trkpt lat="43.77517" lon="3.82097">
        <ele>370.24</ele>
        <time>2017-03-09T16:24:11Z</time>
      </trkpt>
      <trkpt lat="43.77514" lon="3.82096">
        <ele>370.24</ele>
        <time>2017-03-09T16:24:14Z</time>
      </trkpt>
      <trkpt lat="43.77495" lon="3.82087">
        <ele>368.8</ele>
        <time>2017-03-09T16:24:28Z</time>
      </trkpt>
      <trkpt lat="43.77484" lon="3.82085">
        <ele>367.84</ele>
        <time>2017-03-09T16:24:38Z</time>
      </trkpt>
      <trkpt lat="43.77462" lon="3.82082">
        <ele>364.96</ele>
        <time>2017-03-09T16:24:52Z</time>
      </trkpt>
      <trkpt lat="43.77459" lon="3.82087">
        <ele>364</ele>
        <time>2017-03-09T16:24:55Z</time>
      </trkpt>
      <trkpt lat="43.77453" lon="3.82105">
        <ele>360.15</ele>
        <time>2017-03-09T16:25:07Z</time>
      </trkpt>
      <trkpt lat="43.77451" lon="3.82109">
        <ele>359.67</ele>
        <time>2017-03-09T16:25:11Z</time>
      </trkpt>
      <trkpt lat="43.77446" lon="3.82128">
        <ele>358.23</ele>
        <time>2017-03-09T16:25:24Z</time>
      </trkpt>
      <trkpt lat="43.77445" lon="3.82138">
        <ele>357.75</ele>
        <time>2017-03-09T16:25:29Z</time>
      </trkpt>
      <trkpt lat="43.7744" lon="3.82159">
        <ele>354.86</ele>
        <time>2017-03-09T16:25:42Z</time>
      </trkpt>
      <trkpt lat="43.77439" lon="3.82161">
        <ele>354.86</ele>
        <time>2017-03-09T16:25:44Z</time>
      </trkpt>
      <trkpt lat="43.77436" lon="3.82179">
        <ele>351.98</ele>
        <time>2017-03-09T16:25:56Z</time>
      </trkpt>
      <trkpt lat="43.77436" lon="3.82197">
        <ele>346.69</ele>
        <time>2017-03-09T16:26:06Z</time>
      </trkpt>
      <trkpt lat="43.77436" lon="3.82204">
        <ele>345.25</ele>
        <time>2017-03-09T16:26:11Z</time>
      </trkpt>
      <trkpt lat="43.77434" lon="3.82226">
        <ele>340.92</ele>
        <time>2017-03-09T16:26:25Z</time>
      </trkpt>
      <trkpt lat="43.77433" lon="3.82228">
        <ele>340.92</ele>
        <time>2017-03-09T16:26:26Z</time>
      </trkpt>
      <trkpt lat="43.77433" lon="3.82237">
        <ele>339.48</ele>
        <time>2017-03-09T16:26:31Z</time>
      </trkpt>
      <trkpt lat="43.77432" lon="3.82255">
        <ele>338.04</ele>
        <time>2017-03-09T16:26:41Z</time>
      </trkpt>
      <trkpt lat="43.77429" lon="3.82273">
        <ele>340.44</ele>
        <time>2017-03-09T16:26:53Z</time>
      </trkpt>
      <trkpt lat="43.77429" lon="3.8228">
        <ele>340.92</ele>
        <time>2017-03-09T16:26:58Z</time>
      </trkpt>
      <trkpt lat="43.77436" lon="3.82303">
        <ele>339.48</ele>
        <time>2017-03-09T16:27:13Z</time>
      </trkpt>
      <trkpt lat="43.77435" lon="3.82321">
        <ele>337.56</ele>
        <time>2017-03-09T16:27:22Z</time>
      </trkpt>
      <trkpt lat="43.77432" lon="3.82339">
        <ele>335.64</ele>
        <time>2017-03-09T16:27:32Z</time>
      </trkpt>
      <trkpt lat="43.77432" lon="3.82357">
        <ele>334.68</ele>
        <time>2017-03-09T16:27:44Z</time>
      </trkpt>
      <trkpt lat="43.77429" lon="3.82381">
        <ele>330.83</ele>
        <time>2017-03-09T16:27:57Z</time>
      </trkpt>
      <trkpt lat="43.77429" lon="3.8239">
        <ele>329.39</ele>
        <time>2017-03-09T16:28:02Z</time>
      </trkpt>
      <trkpt lat="43.77428" lon="3.82399">
        <ele>328.43</ele>
        <time>2017-03-09T16:28:08Z</time>
      </trkpt>
      <trkpt lat="43.77429" lon="3.8241">
        <ele>326.5</ele>
        <time>2017-03-09T16:28:15Z</time>
      </trkpt>
      <trkpt lat="43.77429" lon="3.82415">
        <ele>325.06</ele>
        <time>2017-03-09T16:28:18Z</time>
      </trkpt>
      <trkpt lat="43.77422" lon="3.82429">
        <ele>323.62</ele>
        <time>2017-03-09T16:28:28Z</time>
      </trkpt>
      <trkpt lat="43.77421" lon="3.82434">
        <ele>321.22</ele>
        <time>2017-03-09T16:28:33Z</time>
      </trkpt>
      <trkpt lat="43.77411" lon="3.82447">
        <ele>318.81</ele>
        <time>2017-03-09T16:28:44Z</time>
      </trkpt>
      <trkpt lat="43.77399" lon="3.8246">
        <ele>316.41</ele>
        <time>2017-03-09T16:28:54Z</time>
      </trkpt>
      <trkpt lat="43.77389" lon="3.82467">
        <ele>314.01</ele>
        <time>2017-03-09T16:29:04Z</time>
      </trkpt>
      <trkpt lat="43.77389" lon="3.8247">
        <ele>313.53</ele>
        <time>2017-03-09T16:29:10Z</time>
      </trkpt>
      <trkpt lat="43.77391" lon="3.82479">
        <ele>311.6</ele>
        <time>2017-03-09T16:29:20Z</time>
      </trkpt>
      <trkpt lat="43.77396" lon="3.82488">
        <ele>309.2</ele>
        <time>2017-03-09T16:29:34Z</time>
      </trkpt>
      <trkpt lat="43.77397" lon="3.82488">
        <ele>308.24</ele>
        <time>2017-03-09T16:29:56Z</time>
      </trkpt>
      <trkpt lat="43.77396" lon="3.82493">
        <ele>307.76</ele>
        <time>2017-03-09T16:30:10Z</time>
      </trkpt>
      <trkpt lat="43.77398" lon="3.82496">
        <ele>307.76</ele>
        <time>2017-03-09T16:30:33Z</time>
      </trkpt>
      <trkpt lat="43.77398" lon="3.82489">
        <ele>309.68</ele>
        <time>2017-03-09T16:30:54Z</time>
      </trkpt>
      <trkpt lat="43.77397" lon="3.82487">
        <ele>309.2</ele>
        <time>2017-03-09T16:30:57Z</time>
      </trkpt>
      <trkpt lat="43.77395" lon="3.82486">
        <ele>309.68</ele>
        <time>2017-03-09T16:31:00Z</time>
      </trkpt>
      <trkpt lat="43.77394" lon="3.82474">
        <ele>311.6</ele>
        <time>2017-03-09T16:31:09Z</time>
      </trkpt>
      <trkpt lat="43.77386" lon="3.82462">
        <ele>310.64</ele>
        <time>2017-03-09T16:31:19Z</time>
      </trkpt>
      <trkpt lat="43.77383" lon="3.82457">
        <ele>309.2</ele>
        <time>2017-03-09T16:31:24Z</time>
      </trkpt>
      <trkpt lat="43.77381" lon="3.82454">
        <ele>308.72</ele>
        <time>2017-03-09T16:31:26Z</time>
      </trkpt>
      <trkpt lat="43.77374" lon="3.82446">
        <ele>305.84</ele>
        <time>2017-03-09T16:31:34Z</time>
      </trkpt>
      <trkpt lat="43.77369" lon="3.8244">
        <ele>303.91</ele>
        <time>2017-03-09T16:31:40Z</time>
      </trkpt>
      <trkpt lat="43.77367" lon="3.82434">
        <ele>303.43</ele>
        <time>2017-03-09T16:31:44Z</time>
      </trkpt>
      <trkpt lat="43.77364" lon="3.82434">
        <ele>302.47</ele>
        <time>2017-03-09T16:31:47Z</time>
      </trkpt>
      <trkpt lat="43.77359" lon="3.82436">
        <ele>301.03</ele>
        <time>2017-03-09T16:31:59Z</time>
      </trkpt>
      <trkpt lat="43.77359" lon="3.82435">
        <ele>301.99</ele>
        <time>2017-03-09T16:32:29Z</time>
      </trkpt>
      <trkpt lat="43.77358" lon="3.82435">
        <ele>301.99</ele>
        <time>2017-03-09T16:32:58Z</time>
      </trkpt>
      <trkpt lat="43.77358" lon="3.82435">
        <ele>302.47</ele>
        <time>2017-03-09T16:33:14Z</time>
      </trkpt>
      <trkpt lat="43.77359" lon="3.82434">
        <ele>301.51</ele>
        <time>2017-03-09T16:33:40Z</time>
      </trkpt>
      <trkpt lat="43.77359" lon="3.82436">
        <ele>300.55</ele>
        <time>2017-03-09T16:33:54Z</time>
      </trkpt>
      <trkpt lat="43.77361" lon="3.82435">
        <ele>300.07</ele>
        <time>2017-03-09T16:33:58Z</time>
      </trkpt>
      <trkpt lat="43.77364" lon="3.82432">
        <ele>299.59</ele>
        <time>2017-03-09T16:34:02Z</time>
      </trkpt>
      <trkpt lat="43.77365" lon="3.82417">
        <ele>296.7</ele>
        <time>2017-03-09T16:34:14Z</time>
      </trkpt>
      <trkpt lat="43.77367" lon="3.82409">
        <ele>298.15</ele>
        <time>2017-03-09T16:34:19Z</time>
      </trkpt>
      <trkpt lat="43.77363" lon="3.82396">
        <ele>297.67</ele>
        <time>2017-03-09T16:34:29Z</time>
      </trkpt>
      <trkpt lat="43.7736" lon="3.82388">
        <ele>296.22</ele>
        <time>2017-03-09T16:34:35Z</time>
      </trkpt>
      <trkpt lat="43.77357" lon="3.82373">
        <ele>292.38</ele>
        <time>2017-03-09T16:34:43Z</time>
      </trkpt>
      <trkpt lat="43.77348" lon="3.82349">
        <ele>289.97</ele>
        <time>2017-03-09T16:34:57Z</time>
      </trkpt>
      <trkpt lat="43.7734" lon="3.82334">
        <ele>288.05</ele>
        <time>2017-03-09T16:35:07Z</time>
      </trkpt>
      <trkpt lat="43.77335" lon="3.82311">
        <ele>283.25</ele>
        <time>2017-03-09T16:35:20Z</time>
      </trkpt>
      <trkpt lat="43.77333" lon="3.82306">
        <ele>281.8</ele>
        <time>2017-03-09T16:35:23Z</time>
      </trkpt>
      <trkpt lat="43.77331" lon="3.82298">
        <ele>279.88</ele>
        <time>2017-03-09T16:35:30Z</time>
      </trkpt>
      <trkpt lat="43.77325" lon="3.82285">
        <ele>277.96</ele>
        <time>2017-03-09T16:35:41Z</time>
      </trkpt>
      <trkpt lat="43.77324" lon="3.82284">
        <ele>277.48</ele>
        <time>2017-03-09T16:35:42Z</time>
      </trkpt>
      <trkpt lat="43.77321" lon="3.82274">
        <ele>276.04</ele>
        <time>2017-03-09T16:35:49Z</time>
      </trkpt>
      <trkpt lat="43.77315" lon="3.8226">
        <ele>272.67</ele>
        <time>2017-03-09T16:36:01Z</time>
      </trkpt>
      <trkpt lat="43.77311" lon="3.82246">
        <ele>270.75</ele>
        <time>2017-03-09T16:36:11Z</time>
      </trkpt>
      <trkpt lat="43.77305" lon="3.82236">
        <ele>269.31</ele>
        <time>2017-03-09T16:36:18Z</time>
      </trkpt>
      <trkpt lat="43.77297" lon="3.82219">
        <ele>266.42</ele>
        <time>2017-03-09T16:36:31Z</time>
      </trkpt>
      <trkpt lat="43.77292" lon="3.82206">
        <ele>263.54</ele>
        <time>2017-03-09T16:36:41Z</time>
      </trkpt>
      <trkpt lat="43.77288" lon="3.8219">
        <ele>261.14</ele>
        <time>2017-03-09T16:36:53Z</time>
      </trkpt>
      <trkpt lat="43.77284" lon="3.8218">
        <ele>256.81</ele>
        <time>2017-03-09T16:37:04Z</time>
      </trkpt>
      <trkpt lat="43.77279" lon="3.82167">
        <ele>251.04</ele>
        <time>2017-03-09T16:37:14Z</time>
      </trkpt>
      <trkpt lat="43.77274" lon="3.82153">
        <ele>246.72</ele>
        <time>2017-03-09T16:37:23Z</time>
      </trkpt>
      <trkpt lat="43.77266" lon="3.82141">
        <ele>243.35</ele>
        <time>2017-03-09T16:37:38Z</time>
      </trkpt>
      <trkpt lat="43.77259" lon="3.82121">
        <ele>243.35</ele>
        <time>2017-03-09T16:37:51Z</time>
      </trkpt>
      <trkpt lat="43.77256" lon="3.82114">
        <ele>240.47</ele>
        <time>2017-03-09T16:38:04Z</time>
      </trkpt>
      <trkpt lat="43.77254" lon="3.82111">
        <ele>236.62</ele>
        <time>2017-03-09T16:38:35Z</time>
      </trkpt>
      <trkpt lat="43.77256" lon="3.82101">
        <ele>240.47</ele>
        <time>2017-03-09T16:38:47Z</time>
      </trkpt>
      <trkpt lat="43.77256" lon="3.82091">
        <ele>248.64</ele>
        <time>2017-03-09T16:38:54Z</time>
      </trkpt>
      <trkpt lat="43.77253" lon="3.82074">
        <ele>253.93</ele>
        <time>2017-03-09T16:39:04Z</time>
      </trkpt>
      <trkpt lat="43.77251" lon="3.8205">
        <ele>256.33</ele>
        <time>2017-03-09T16:39:17Z</time>
      </trkpt>
      <trkpt lat="43.77248" lon="3.82031">
        <ele>257.77</ele>
        <time>2017-03-09T16:39:30Z</time>
      </trkpt>
      <trkpt lat="43.77243" lon="3.82012">
        <ele>256.33</ele>
        <time>2017-03-09T16:39:41Z</time>
      </trkpt>
      <trkpt lat="43.77237" lon="3.82006">
        <ele>256.81</ele>
        <time>2017-03-09T16:39:52Z</time>
      </trkpt>
      <trkpt lat="43.77234" lon="3.82002">
        <ele>255.37</ele>
        <time>2017-03-09T16:40:12Z</time>
      </trkpt>
      <trkpt lat="43.77233" lon="3.82002">
        <ele>254.41</ele>
        <time>2017-03-09T16:40:35Z</time>
      </trkpt>
      <trkpt lat="43.77229" lon="3.82018">
        <ele>257.29</ele>
        <time>2017-03-09T16:40:48Z</time>
      </trkpt>
      <trkpt lat="43.77228" lon="3.82026">
        <ele>258.73</ele>
        <time>2017-03-09T16:40:55Z</time>
      </trkpt>
      <trkpt lat="43.77226" lon="3.82051">
        <ele>254.89</ele>
        <time>2017-03-09T16:41:08Z</time>
      </trkpt>
      <trkpt lat="43.77225" lon="3.82071">
        <ele>248.64</ele>
        <time>2017-03-09T16:41:18Z</time>
      </trkpt>
      <trkpt lat="43.77223" lon="3.82074">
        <ele>249.12</ele>
        <time>2017-03-09T16:41:23Z</time>
      </trkpt>
      <trkpt lat="43.77219" lon="3.82067">
        <ele>246.72</ele>
        <time>2017-03-09T16:41:32Z</time>
      </trkpt>
      <trkpt lat="43.77218" lon="3.82063">
        <ele>246.23</ele>
        <time>2017-03-09T16:41:34Z</time>
      </trkpt>
      <trkpt lat="43.77217" lon="3.82059">
        <ele>245.27</ele>
        <time>2017-03-09T16:41:37Z</time>
      </trkpt>
      <trkpt lat="43.77209" lon="3.82056">
        <ele>240.47</ele>
        <time>2017-03-09T16:41:48Z</time>
      </trkpt>
      <trkpt lat="43.77204" lon="3.82062">
        <ele>238.54</ele>
        <time>2017-03-09T16:41:54Z</time>
      </trkpt>
      <trkpt lat="43.77202" lon="3.82068">
        <ele>236.62</ele>
        <time>2017-03-09T16:42:00Z</time>
      </trkpt>
      <trkpt lat="43.77201" lon="3.82085">
        <ele>235.18</ele>
        <time>2017-03-09T16:42:11Z</time>
      </trkpt>
      <trkpt lat="43.77195" lon="3.82096">
        <ele>233.26</ele>
        <time>2017-03-09T16:42:22Z</time>
      </trkpt>
      <trkpt lat="43.77194" lon="3.82097">
        <ele>232.78</ele>
        <time>2017-03-09T16:42:24Z</time>
      </trkpt>
      <trkpt lat="43.7719" lon="3.82098">
        <ele>231.81</ele>
        <time>2017-03-09T16:42:28Z</time>
      </trkpt>
      <trkpt lat="43.77186" lon="3.82114">
        <ele>228.93</ele>
        <time>2017-03-09T16:42:40Z</time>
      </trkpt>
      <trkpt lat="43.7718" lon="3.82132">
        <ele>227.49</ele>
        <time>2017-03-09T16:42:50Z</time>
      </trkpt>
      <trkpt lat="43.77177" lon="3.82147">
        <ele>225.57</ele>
        <time>2017-03-09T16:43:01Z</time>
      </trkpt>
      <trkpt lat="43.77172" lon="3.82165">
        <ele>223.16</ele>
        <time>2017-03-09T16:43:13Z</time>
      </trkpt>
      <trkpt lat="43.77172" lon="3.82167">
        <ele>222.68</ele>
        <time>2017-03-09T16:43:14Z</time>
      </trkpt>
      <trkpt lat="43.77171" lon="3.82168">
        <ele>222.68</ele>
        <time>2017-03-09T16:43:15Z</time>
      </trkpt>
      <trkpt lat="43.77168" lon="3.82181">
        <ele>221.72</ele>
        <time>2017-03-09T16:43:23Z</time>
      </trkpt>
      <trkpt lat="43.77167" lon="3.82183">
        <ele>222.2</ele>
        <time>2017-03-09T16:43:24Z</time>
      </trkpt>
      <trkpt lat="43.77166" lon="3.82185">
        <ele>222.2</ele>
        <time>2017-03-09T16:43:25Z</time>
      </trkpt>
      <trkpt lat="43.77166" lon="3.82187">
        <ele>222.2</ele>
        <time>2017-03-09T16:43:26Z</time>
      </trkpt>
      <trkpt lat="43.77165" lon="3.82189">
        <ele>222.2</ele>
        <time>2017-03-09T16:43:27Z</time>
      </trkpt>
      <trkpt lat="43.77164" lon="3.82192">
        <ele>222.2</ele>
        <time>2017-03-09T16:43:28Z</time>
      </trkpt>
      <trkpt lat="43.77162" lon="3.82197">
        <ele>222.2</ele>
        <time>2017-03-09T16:43:32Z</time>
      </trkpt>
      <trkpt lat="43.77161" lon="3.82199">
        <ele>222.2</ele>
        <time>2017-03-09T16:43:33Z</time>
      </trkpt>
      <trkpt lat="43.7716" lon="3.82201">
        <ele>222.2</ele>
        <time>2017-03-09T16:43:34Z</time>
      </trkpt>
      <trkpt lat="43.7716" lon="3.82202">
        <ele>222.2</ele>
        <time>2017-03-09T16:43:35Z</time>
      </trkpt>
      <trkpt lat="43.77159" lon="3.82204">
        <ele>222.2</ele>
        <time>2017-03-09T16:43:36Z</time>
      </trkpt>
      <trkpt lat="43.77159" lon="3.82206">
        <ele>222.2</ele>
        <time>2017-03-09T16:43:37Z</time>
      </trkpt>
      <trkpt lat="43.77154" lon="3.8222">
        <ele>220.76</ele>
        <time>2017-03-09T16:43:48Z</time>
      </trkpt>
      <trkpt lat="43.77152" lon="3.82222">
        <ele>220.76</ele>
        <time>2017-03-09T16:43:50Z</time>
      </trkpt>
      <trkpt lat="43.77151" lon="3.82223">
        <ele>220.76</ele>
        <time>2017-03-09T16:43:51Z</time>
      </trkpt>
      <trkpt lat="43.77147" lon="3.82225">
        <ele>219.8</ele>
        <time>2017-03-09T16:43:54Z</time>
      </trkpt>
      <trkpt lat="43.77145" lon="3.82227">
        <ele>219.8</ele>
        <time>2017-03-09T16:43:56Z</time>
      </trkpt>
      <trkpt lat="43.77143" lon="3.82238">
        <ele>218.84</ele>
        <time>2017-03-09T16:44:03Z</time>
      </trkpt>
      <trkpt lat="43.77151" lon="3.82258">
        <ele>214.99</ele>
        <time>2017-03-09T16:44:15Z</time>
      </trkpt>
      <trkpt lat="43.77151" lon="3.82265">
        <ele>214.99</ele>
        <time>2017-03-09T16:44:19Z</time>
      </trkpt>
      <trkpt lat="43.77152" lon="3.82291">
        <ele>211.63</ele>
        <time>2017-03-09T16:44:34Z</time>
      </trkpt>
      <trkpt lat="43.77149" lon="3.8231">
        <ele>209.7</ele>
        <time>2017-03-09T16:44:45Z</time>
      </trkpt>
      <trkpt lat="43.77145" lon="3.82326">
        <ele>208.74</ele>
        <time>2017-03-09T16:44:55Z</time>
      </trkpt>
      <trkpt lat="43.77145" lon="3.82328">
        <ele>208.74</ele>
        <time>2017-03-09T16:44:56Z</time>
      </trkpt>
      <trkpt lat="43.77145" lon="3.82331">
        <ele>208.26</ele>
        <time>2017-03-09T16:44:57Z</time>
      </trkpt>
      <trkpt lat="43.77146" lon="3.82353">
        <ele>205.38</ele>
        <time>2017-03-09T16:45:08Z</time>
      </trkpt>
      <trkpt lat="43.77146" lon="3.82355">
        <ele>205.38</ele>
        <time>2017-03-09T16:45:09Z</time>
      </trkpt>
      <trkpt lat="43.77146" lon="3.82357">
        <ele>204.9</ele>
        <time>2017-03-09T16:45:10Z</time>
      </trkpt>
      <trkpt lat="43.77146" lon="3.82359">
        <ele>204.9</ele>
        <time>2017-03-09T16:45:11Z</time>
      </trkpt>
      <trkpt lat="43.77146" lon="3.82362">
        <ele>204.9</ele>
        <time>2017-03-09T16:45:12Z</time>
      </trkpt>
      <trkpt lat="43.77142" lon="3.8238">
        <ele>206.34</ele>
        <time>2017-03-09T16:45:22Z</time>
      </trkpt>
      <trkpt lat="43.77141" lon="3.82385">
        <ele>206.82</ele>
        <time>2017-03-09T16:45:25Z</time>
      </trkpt>
      <trkpt lat="43.7714" lon="3.82386">
        <ele>206.82</ele>
        <time>2017-03-09T16:45:26Z</time>
      </trkpt>
      <trkpt lat="43.77139" lon="3.82388">
        <ele>207.3</ele>
        <time>2017-03-09T16:45:27Z</time>
      </trkpt>
      <trkpt lat="43.77139" lon="3.8239">
        <ele>207.3</ele>
        <time>2017-03-09T16:45:28Z</time>
      </trkpt>
      <trkpt lat="43.77138" lon="3.82392">
        <ele>207.3</ele>
        <time>2017-03-09T16:45:29Z</time>
      </trkpt>
      <trkpt lat="43.77137" lon="3.82395">
        <ele>207.78</ele>
        <time>2017-03-09T16:45:30Z</time>
      </trkpt>
      <trkpt lat="43.77137" lon="3.82397">
        <ele>207.78</ele>
        <time>2017-03-09T16:45:31Z</time>
      </trkpt>
      <trkpt lat="43.77136" lon="3.82421">
        <ele>207.3</ele>
        <time>2017-03-09T16:45:43Z</time>
      </trkpt>
      <trkpt lat="43.77133" lon="3.82445">
        <ele>205.38</ele>
        <time>2017-03-09T16:45:55Z</time>
      </trkpt>
      <trkpt lat="43.7713" lon="3.82472">
        <ele>205.86</ele>
        <time>2017-03-09T16:46:08Z</time>
      </trkpt>
      <trkpt lat="43.77129" lon="3.82486">
        <ele>206.82</ele>
        <time>2017-03-09T16:46:16Z</time>
      </trkpt>
      <trkpt lat="43.77129" lon="3.82488">
        <ele>206.82</ele>
        <time>2017-03-09T16:46:17Z</time>
      </trkpt>
      <trkpt lat="43.7713" lon="3.8249">
        <ele>206.82</ele>
        <time>2017-03-09T16:46:18Z</time>
      </trkpt>
      <trkpt lat="43.7713" lon="3.82492">
        <ele>206.82</ele>
        <time>2017-03-09T16:46:19Z</time>
      </trkpt>
      <trkpt lat="43.7713" lon="3.82495">
        <ele>206.82</ele>
        <time>2017-03-09T16:46:20Z</time>
      </trkpt>
      <trkpt lat="43.77127" lon="3.82505">
        <ele>207.3</ele>
        <time>2017-03-09T16:46:28Z</time>
      </trkpt>
      <trkpt lat="43.77125" lon="3.82506">
        <ele>207.78</ele>
        <time>2017-03-09T16:46:29Z</time>
      </trkpt>
      <trkpt lat="43.77124" lon="3.82507">
        <ele>208.26</ele>
        <time>2017-03-09T16:46:30Z</time>
      </trkpt>
      <trkpt lat="43.77122" lon="3.82508">
        <ele>208.74</ele>
        <time>2017-03-09T16:46:31Z</time>
      </trkpt>
      <trkpt lat="43.77114" lon="3.82515">
        <ele>212.59</ele>
        <time>2017-03-09T16:46:39Z</time>
      </trkpt>
      <trkpt lat="43.77112" lon="3.82516">
        <ele>212.59</ele>
        <time>2017-03-09T16:46:40Z</time>
      </trkpt>
      <trkpt lat="43.77111" lon="3.82518">
        <ele>212.59</ele>
        <time>2017-03-09T16:46:41Z</time>
      </trkpt>
      <trkpt lat="43.7711" lon="3.82519">
        <ele>212.11</ele>
        <time>2017-03-09T16:46:42Z</time>
      </trkpt>
      <trkpt lat="43.77106" lon="3.82529">
        <ele>211.15</ele>
        <time>2017-03-09T16:46:48Z</time>
      </trkpt>
      <trkpt lat="43.77105" lon="3.82531">
        <ele>211.63</ele>
        <time>2017-03-09T16:46:49Z</time>
      </trkpt>
      <trkpt lat="43.77104" lon="3.82532">
        <ele>211.63</ele>
        <time>2017-03-09T16:46:50Z</time>
      </trkpt>
      <trkpt lat="43.77103" lon="3.82533">
        <ele>211.63</ele>
        <time>2017-03-09T16:46:51Z</time>
      </trkpt>
      <trkpt lat="43.77102" lon="3.82534">
        <ele>211.15</ele>
        <time>2017-03-09T16:46:52Z</time>
      </trkpt>
      <trkpt lat="43.771" lon="3.82535">
        <ele>211.15</ele>
        <time>2017-03-09T16:46:53Z</time>
      </trkpt>
      <trkpt lat="43.77099" lon="3.82536">
        <ele>210.67</ele>
        <time>2017-03-09T16:46:54Z</time>
      </trkpt>
      <trkpt lat="43.77083" lon="3.82547">
        <ele>209.7</ele>
        <time>2017-03-09T16:47:06Z</time>
      </trkpt>
      <trkpt lat="43.77079" lon="3.82552">
        <ele>208.26</ele>
        <time>2017-03-09T16:47:11Z</time>
      </trkpt>
      <trkpt lat="43.77077" lon="3.82556">
        <ele>208.26</ele>
        <time>2017-03-09T16:47:13Z</time>
      </trkpt>
      <trkpt lat="43.77076" lon="3.82557">
        <ele>207.78</ele>
        <time>2017-03-09T16:47:14Z</time>
      </trkpt>
      <trkpt lat="43.77075" lon="3.82558">
        <ele>207.78</ele>
        <time>2017-03-09T16:47:15Z</time>
      </trkpt>
      <trkpt lat="43.77074" lon="3.82559">
        <ele>207.3</ele>
        <time>2017-03-09T16:47:16Z</time>
      </trkpt>
      <trkpt lat="43.77073" lon="3.8256">
        <ele>207.3</ele>
        <time>2017-03-09T16:47:17Z</time>
      </trkpt>
      <trkpt lat="43.77072" lon="3.82561">
        <ele>207.78</ele>
        <time>2017-03-09T16:47:18Z</time>
      </trkpt>
      <trkpt lat="43.77071" lon="3.82564">
        <ele>206.82</ele>
        <time>2017-03-09T16:47:26Z</time>
      </trkpt>
      <trkpt lat="43.7707" lon="3.82566">
        <ele>207.3</ele>
        <time>2017-03-09T16:47:27Z</time>
      </trkpt>
      <trkpt lat="43.77069" lon="3.82567">
        <ele>207.3</ele>
        <time>2017-03-09T16:47:28Z</time>
      </trkpt>
      <trkpt lat="43.77068" lon="3.82568">
        <ele>207.78</ele>
        <time>2017-03-09T16:47:29Z</time>
      </trkpt>
      <trkpt lat="43.77066" lon="3.82569">
        <ele>207.78</ele>
        <time>2017-03-09T16:47:30Z</time>
      </trkpt>
      <trkpt lat="43.77051" lon="3.82571">
        <ele>207.78</ele>
        <time>2017-03-09T16:47:41Z</time>
      </trkpt>
      <trkpt lat="43.77049" lon="3.82571">
        <ele>207.78</ele>
        <time>2017-03-09T16:47:42Z</time>
      </trkpt>
      <trkpt lat="43.77048" lon="3.82572">
        <ele>207.78</ele>
        <time>2017-03-09T16:47:43Z</time>
      </trkpt>
      <trkpt lat="43.77042" lon="3.82573">
        <ele>206.34</ele>
        <time>2017-03-09T16:47:48Z</time>
      </trkpt>
      <trkpt lat="43.77041" lon="3.82574">
        <ele>206.34</ele>
        <time>2017-03-09T16:47:49Z</time>
      </trkpt>
      <trkpt lat="43.77039" lon="3.82574">
        <ele>206.34</ele>
        <time>2017-03-09T16:47:50Z</time>
      </trkpt>
      <trkpt lat="43.77038" lon="3.82575">
        <ele>206.82</ele>
        <time>2017-03-09T16:47:51Z</time>
      </trkpt>
      <trkpt lat="43.77037" lon="3.82577">
        <ele>206.82</ele>
        <time>2017-03-09T16:47:52Z</time>
      </trkpt>
      <trkpt lat="43.77036" lon="3.82579">
        <ele>206.82</ele>
        <time>2017-03-09T16:47:53Z</time>
      </trkpt>
      <trkpt lat="43.77035" lon="3.82582">
        <ele>207.3</ele>
        <time>2017-03-09T16:47:54Z</time>
      </trkpt>
      <trkpt lat="43.77034" lon="3.82584">
        <ele>207.78</ele>
        <time>2017-03-09T16:47:55Z</time>
      </trkpt>
      <trkpt lat="43.77024" lon="3.82601">
        <ele>209.7</ele>
        <time>2017-03-09T16:48:06Z</time>
      </trkpt>
      <trkpt lat="43.77019" lon="3.82614">
        <ele>211.15</ele>
        <time>2017-03-09T16:48:14Z</time>
      </trkpt>
      <trkpt lat="43.77019" lon="3.82616">
        <ele>210.67</ele>
        <time>2017-03-09T16:48:15Z</time>
      </trkpt>
      <trkpt lat="43.77019" lon="3.82618">
        <ele>210.67</ele>
        <time>2017-03-09T16:48:16Z</time>
      </trkpt>
      <trkpt lat="43.77019" lon="3.8262">
        <ele>211.15</ele>
        <time>2017-03-09T16:48:17Z</time>
      </trkpt>
      <trkpt lat="43.77017" lon="3.82627">
        <ele>211.15</ele>
        <time>2017-03-09T16:48:22Z</time>
      </trkpt>
      <trkpt lat="43.77017" lon="3.82629">
        <ele>211.15</ele>
        <time>2017-03-09T16:48:23Z</time>
      </trkpt>
      <trkpt lat="43.77011" lon="3.82643">
        <ele>213.07</ele>
        <time>2017-03-09T16:48:32Z</time>
      </trkpt>
      <trkpt lat="43.77003" lon="3.82661">
        <ele>216.91</ele>
        <time>2017-03-09T16:48:44Z</time>
      </trkpt>
      <trkpt lat="43.77003" lon="3.82682">
        <ele>220.28</ele>
        <time>2017-03-09T16:48:55Z</time>
      </trkpt>
      <trkpt lat="43.77003" lon="3.82685">
        <ele>220.28</ele>
        <time>2017-03-09T16:48:56Z</time>
      </trkpt>
      <trkpt lat="43.77003" lon="3.82687">
        <ele>220.76</ele>
        <time>2017-03-09T16:48:57Z</time>
      </trkpt>
      <trkpt lat="43.77" lon="3.82697">
        <ele>221.24</ele>
        <time>2017-03-09T16:49:04Z</time>
      </trkpt>
      <trkpt lat="43.76999" lon="3.82699">
        <ele>221.24</ele>
        <time>2017-03-09T16:49:05Z</time>
      </trkpt>
      <trkpt lat="43.76998" lon="3.827">
        <ele>221.72</ele>
        <time>2017-03-09T16:49:06Z</time>
      </trkpt>
      <trkpt lat="43.76996" lon="3.82702">
        <ele>221.72</ele>
        <time>2017-03-09T16:49:07Z</time>
      </trkpt>
      <trkpt lat="43.76992" lon="3.82707">
        <ele>221.24</ele>
        <time>2017-03-09T16:49:13Z</time>
      </trkpt>
      <trkpt lat="43.76991" lon="3.82709">
        <ele>221.24</ele>
        <time>2017-03-09T16:49:14Z</time>
      </trkpt>
      <trkpt lat="43.7699" lon="3.82711">
        <ele>220.76</ele>
        <time>2017-03-09T16:49:15Z</time>
      </trkpt>
      <trkpt lat="43.7699" lon="3.82714">
        <ele>220.76</ele>
        <time>2017-03-09T16:49:16Z</time>
      </trkpt>
      <trkpt lat="43.7699" lon="3.82716">
        <ele>220.76</ele>
        <time>2017-03-09T16:49:17Z</time>
      </trkpt>
      <trkpt lat="43.7699" lon="3.82725">
        <ele>216.91</ele>
        <time>2017-03-09T16:49:27Z</time>
      </trkpt>
      <trkpt lat="43.76992" lon="3.8273">
        <ele>214.03</ele>
        <time>2017-03-09T16:49:55Z</time>
      </trkpt>
      <trkpt lat="43.76992" lon="3.8273">
        <ele>212.11</ele>
        <time>2017-03-09T16:50:21Z</time>
      </trkpt>
      <trkpt lat="43.76994" lon="3.8273">
        <ele>211.63</ele>
        <time>2017-03-09T16:50:42Z</time>
      </trkpt>
      <trkpt lat="43.76991" lon="3.82739">
        <ele>210.19</ele>
        <time>2017-03-09T16:51:05Z</time>
      </trkpt>
      <trkpt lat="43.7699" lon="3.82742">
        <ele>209.7</ele>
        <time>2017-03-09T16:51:08Z</time>
      </trkpt>
      <trkpt lat="43.76989" lon="3.82743">
        <ele>209.7</ele>
        <time>2017-03-09T16:51:09Z</time>
      </trkpt>
      <trkpt lat="43.76989" lon="3.82745">
        <ele>209.7</ele>
        <time>2017-03-09T16:51:10Z</time>
      </trkpt>
      <trkpt lat="43.76982" lon="3.8276">
        <ele>209.7</ele>
        <time>2017-03-09T16:51:21Z</time>
      </trkpt>
      <trkpt lat="43.76975" lon="3.82775">
        <ele>211.15</ele>
        <time>2017-03-09T16:51:32Z</time>
      </trkpt>
      <trkpt lat="43.76965" lon="3.82791">
        <ele>214.51</ele>
        <time>2017-03-09T16:51:44Z</time>
      </trkpt>
      <trkpt lat="43.76953" lon="3.82806">
        <ele>216.43</ele>
        <time>2017-03-09T16:51:55Z</time>
      </trkpt>
      <trkpt lat="43.76938" lon="3.82819">
        <ele>217.88</ele>
        <time>2017-03-09T16:52:07Z</time>
      </trkpt>
      <trkpt lat="43.76935" lon="3.82822">
        <ele>218.84</ele>
        <time>2017-03-09T16:52:11Z</time>
      </trkpt>
      <trkpt lat="43.76934" lon="3.82823">
        <ele>219.32</ele>
        <time>2017-03-09T16:52:12Z</time>
      </trkpt>
      <trkpt lat="43.76932" lon="3.82824">
        <ele>219.32</ele>
        <time>2017-03-09T16:52:13Z</time>
      </trkpt>
      <trkpt lat="43.76931" lon="3.82825">
        <ele>219.8</ele>
        <time>2017-03-09T16:52:14Z</time>
      </trkpt>
      <trkpt lat="43.76929" lon="3.82826">
        <ele>220.28</ele>
        <time>2017-03-09T16:52:15Z</time>
      </trkpt>
      <trkpt lat="43.76927" lon="3.82827">
        <ele>220.28</ele>
        <time>2017-03-09T16:52:16Z</time>
      </trkpt>
      <trkpt lat="43.76926" lon="3.82827">
        <ele>220.76</ele>
        <time>2017-03-09T16:52:17Z</time>
      </trkpt>
      <trkpt lat="43.76918" lon="3.82834">
        <ele>221.24</ele>
        <time>2017-03-09T16:52:25Z</time>
      </trkpt>
      <trkpt lat="43.76917" lon="3.82835">
        <ele>221.24</ele>
        <time>2017-03-09T16:52:26Z</time>
      </trkpt>
      <trkpt lat="43.76915" lon="3.82837">
        <ele>221.24</ele>
        <time>2017-03-09T16:52:27Z</time>
      </trkpt>
      <trkpt lat="43.76914" lon="3.82838">
        <ele>221.24</ele>
        <time>2017-03-09T16:52:28Z</time>
      </trkpt>
      <trkpt lat="43.76912" lon="3.82839">
        <ele>221.24</ele>
        <time>2017-03-09T16:52:29Z</time>
      </trkpt>
      <trkpt lat="43.76907" lon="3.82841">
        <ele>220.76</ele>
        <time>2017-03-09T16:52:34Z</time>
      </trkpt>
      <trkpt lat="43.76906" lon="3.82842">
        <ele>220.76</ele>
        <time>2017-03-09T16:52:35Z</time>
      </trkpt>
      <trkpt lat="43.76904" lon="3.82843">
        <ele>220.76</ele>
        <time>2017-03-09T16:52:36Z</time>
      </trkpt>
      <trkpt lat="43.76903" lon="3.82844">
        <ele>220.76</ele>
        <time>2017-03-09T16:52:37Z</time>
      </trkpt>
      <trkpt lat="43.76902" lon="3.82845">
        <ele>220.76</ele>
        <time>2017-03-09T16:52:38Z</time>
      </trkpt>
      <trkpt lat="43.76888" lon="3.82858">
        <ele>219.8</ele>
        <time>2017-03-09T16:52:50Z</time>
      </trkpt>
      <trkpt lat="43.76887" lon="3.8286">
        <ele>219.8</ele>
        <time>2017-03-09T16:52:51Z</time>
      </trkpt>
      <trkpt lat="43.76885" lon="3.82861">
        <ele>219.8</ele>
        <time>2017-03-09T16:52:52Z</time>
      </trkpt>
      <trkpt lat="43.76884" lon="3.82862">
        <ele>219.8</ele>
        <time>2017-03-09T16:52:53Z</time>
      </trkpt>
      <trkpt lat="43.76876" lon="3.82871">
        <ele>219.8</ele>
        <time>2017-03-09T16:53:01Z</time>
      </trkpt>
      <trkpt lat="43.76866" lon="3.82887">
        <ele>219.8</ele>
        <time>2017-03-09T16:53:13Z</time>
      </trkpt>
      <trkpt lat="43.76856" lon="3.82903">
        <ele>219.32</ele>
        <time>2017-03-09T16:53:24Z</time>
      </trkpt>
      <trkpt lat="43.76853" lon="3.82909">
        <ele>218.36</ele>
        <time>2017-03-09T16:53:29Z</time>
      </trkpt>
      <trkpt lat="43.76842" lon="3.82923">
        <ele>216.91</ele>
        <time>2017-03-09T16:53:41Z</time>
      </trkpt>
      <trkpt lat="43.76841" lon="3.82923">
        <ele>216.91</ele>
        <time>2017-03-09T16:53:42Z</time>
      </trkpt>
      <trkpt lat="43.76839" lon="3.82924">
        <ele>216.91</ele>
        <time>2017-03-09T16:53:43Z</time>
      </trkpt>
      <trkpt lat="43.76838" lon="3.82926">
        <ele>216.91</ele>
        <time>2017-03-09T16:53:44Z</time>
      </trkpt>
      <trkpt lat="43.76829" lon="3.82933">
        <ele>216.43</ele>
        <time>2017-03-09T16:53:53Z</time>
      </trkpt>
      <trkpt lat="43.76817" lon="3.82948">
        <ele>216.43</ele>
        <time>2017-03-09T16:54:04Z</time>
      </trkpt>
      <trkpt lat="43.76807" lon="3.8296">
        <ele>217.4</ele>
        <time>2017-03-09T16:54:13Z</time>
      </trkpt>
      <trkpt lat="43.76804" lon="3.82964">
        <ele>217.88</ele>
        <time>2017-03-09T16:54:16Z</time>
      </trkpt>
      <trkpt lat="43.76795" lon="3.82972">
        <ele>219.8</ele>
        <time>2017-03-09T16:54:24Z</time>
      </trkpt>
      <trkpt lat="43.76794" lon="3.82975">
        <ele>219.8</ele>
        <time>2017-03-09T16:54:25Z</time>
      </trkpt>
      <trkpt lat="43.76792" lon="3.82977">
        <ele>219.32</ele>
        <time>2017-03-09T16:54:26Z</time>
      </trkpt>
      <trkpt lat="43.76785" lon="3.8299">
        <ele>219.8</ele>
        <time>2017-03-09T16:54:35Z</time>
      </trkpt>
      <trkpt lat="43.76784" lon="3.82992">
        <ele>219.8</ele>
        <time>2017-03-09T16:54:36Z</time>
      </trkpt>
      <trkpt lat="43.76783" lon="3.82993">
        <ele>219.8</ele>
        <time>2017-03-09T16:54:37Z</time>
      </trkpt>
      <trkpt lat="43.76781" lon="3.82994">
        <ele>219.8</ele>
        <time>2017-03-09T16:54:38Z</time>
      </trkpt>
      <trkpt lat="43.76771" lon="3.83011">
        <ele>220.76</ele>
        <time>2017-03-09T16:54:50Z</time>
      </trkpt>
      <trkpt lat="43.76763" lon="3.83033">
        <ele>221.24</ele>
        <time>2017-03-09T16:55:02Z</time>
      </trkpt>
      <trkpt lat="43.76754" lon="3.83052">
        <ele>222.68</ele>
        <time>2017-03-09T16:55:15Z</time>
      </trkpt>
      <trkpt lat="43.76754" lon="3.83054">
        <ele>222.68</ele>
        <time>2017-03-09T16:55:16Z</time>
      </trkpt>
      <trkpt lat="43.76752" lon="3.8306">
        <ele>222.68</ele>
        <time>2017-03-09T16:55:19Z</time>
      </trkpt>
      <trkpt lat="43.76743" lon="3.83079">
        <ele>223.64</ele>
        <time>2017-03-09T16:55:31Z</time>
      </trkpt>
      <trkpt lat="43.76737" lon="3.83091">
        <ele>222.2</ele>
        <time>2017-03-09T16:55:39Z</time>
      </trkpt>
      <trkpt lat="43.76736" lon="3.83093">
        <ele>221.72</ele>
        <time>2017-03-09T16:55:40Z</time>
      </trkpt>
      <trkpt lat="43.76735" lon="3.83095">
        <ele>221.72</ele>
        <time>2017-03-09T16:55:41Z</time>
      </trkpt>
      <trkpt lat="43.76734" lon="3.83097">
        <ele>221.24</ele>
        <time>2017-03-09T16:55:42Z</time>
      </trkpt>
      <trkpt lat="43.76726" lon="3.83117">
        <ele>220.28</ele>
        <time>2017-03-09T16:55:54Z</time>
      </trkpt>
      <trkpt lat="43.76718" lon="3.83138">
        <ele>218.36</ele>
        <time>2017-03-09T16:56:07Z</time>
      </trkpt>
      <trkpt lat="43.76711" lon="3.83156">
        <ele>218.36</ele>
        <time>2017-03-09T16:56:19Z</time>
      </trkpt>
      <trkpt lat="43.7671" lon="3.8316">
        <ele>218.36</ele>
        <time>2017-03-09T16:56:22Z</time>
      </trkpt>
      <trkpt lat="43.76708" lon="3.83163">
        <ele>218.84</ele>
        <time>2017-03-09T16:56:24Z</time>
      </trkpt>
      <trkpt lat="43.76707" lon="3.83165">
        <ele>218.84</ele>
        <time>2017-03-09T16:56:25Z</time>
      </trkpt>
      <trkpt lat="43.76697" lon="3.83187">
        <ele>221.72</ele>
        <time>2017-03-09T16:56:37Z</time>
      </trkpt>
      <trkpt lat="43.76686" lon="3.8321">
        <ele>227.49</ele>
        <time>2017-03-09T16:56:52Z</time>
      </trkpt>
      <trkpt lat="43.76679" lon="3.83223">
        <ele>231.81</ele>
        <time>2017-03-09T16:56:59Z</time>
      </trkpt>
      <trkpt lat="43.76668" lon="3.83243">
        <ele>233.74</ele>
        <time>2017-03-09T16:57:12Z</time>
      </trkpt>
      <trkpt lat="43.76659" lon="3.83263">
        <ele>233.26</ele>
        <time>2017-03-09T16:57:24Z</time>
      </trkpt>
      <trkpt lat="43.7665" lon="3.83282">
        <ele>231.33</ele>
        <time>2017-03-09T16:57:36Z</time>
      </trkpt>
      <trkpt lat="43.76643" lon="3.83298">
        <ele>230.85</ele>
        <time>2017-03-09T16:57:48Z</time>
      </trkpt>
      <trkpt lat="43.76642" lon="3.83303">
        <ele>231.81</ele>
        <time>2017-03-09T16:57:52Z</time>
      </trkpt>
      <trkpt lat="43.76642" lon="3.83305">
        <ele>231.81</ele>
        <time>2017-03-09T16:57:53Z</time>
      </trkpt>
      <trkpt lat="43.76641" lon="3.83307">
        <ele>232.3</ele>
        <time>2017-03-09T16:57:54Z</time>
      </trkpt>
      <trkpt lat="43.76641" lon="3.83309">
        <ele>232.3</ele>
        <time>2017-03-09T16:57:55Z</time>
      </trkpt>
      <trkpt lat="43.76638" lon="3.83318">
        <ele>236.62</ele>
        <time>2017-03-09T16:58:07Z</time>
      </trkpt>
      <trkpt lat="43.76638" lon="3.83319">
        <ele>239.02</ele>
        <time>2017-03-09T16:58:30Z</time>
      </trkpt>
      <trkpt lat="43.76637" lon="3.8332">
        <ele>239.51</ele>
        <time>2017-03-09T16:58:57Z</time>
      </trkpt>
      <trkpt lat="43.7664" lon="3.83329">
        <ele>235.18</ele>
        <time>2017-03-09T16:59:16Z</time>
      </trkpt>
      <trkpt lat="43.76638" lon="3.83355">
        <ele>229.89</ele>
        <time>2017-03-09T16:59:30Z</time>
      </trkpt>
      <trkpt lat="43.76637" lon="3.8336">
        <ele>230.37</ele>
        <time>2017-03-09T16:59:32Z</time>
      </trkpt>
      <trkpt lat="43.76637" lon="3.83363">
        <ele>230.85</ele>
        <time>2017-03-09T16:59:33Z</time>
      </trkpt>
      <trkpt lat="43.76636" lon="3.83364">
        <ele>231.33</ele>
        <time>2017-03-09T16:59:34Z</time>
      </trkpt>
      <trkpt lat="43.7663" lon="3.83379">
        <ele>235.66</ele>
        <time>2017-03-09T16:59:47Z</time>
      </trkpt>
      <trkpt lat="43.7663" lon="3.83396">
        <ele>239.99</ele>
        <time>2017-03-09T17:00:01Z</time>
      </trkpt>
      <trkpt lat="43.7663" lon="3.83399">
        <ele>240.95</ele>
        <time>2017-03-09T17:00:03Z</time>
      </trkpt>
      <trkpt lat="43.76629" lon="3.83402">
        <ele>241.43</ele>
        <time>2017-03-09T17:00:04Z</time>
      </trkpt>
      <trkpt lat="43.7663" lon="3.83424">
        <ele>247.2</ele>
        <time>2017-03-09T17:00:16Z</time>
      </trkpt>
      <trkpt lat="43.76631" lon="3.83428">
        <ele>248.16</ele>
        <time>2017-03-09T17:00:18Z</time>
      </trkpt>
      <trkpt lat="43.76633" lon="3.83449">
        <ele>251.52</ele>
        <time>2017-03-09T17:00:28Z</time>
      </trkpt>
      <trkpt lat="43.76633" lon="3.83451">
        <ele>251.52</ele>
        <time>2017-03-09T17:00:29Z</time>
      </trkpt>
      <trkpt lat="43.76634" lon="3.83453">
        <ele>251.52</ele>
        <time>2017-03-09T17:00:30Z</time>
      </trkpt>
      <trkpt lat="43.76638" lon="3.83479">
        <ele>250.56</ele>
        <time>2017-03-09T17:00:41Z</time>
      </trkpt>
      <trkpt lat="43.76638" lon="3.83482">
        <ele>250.08</ele>
        <time>2017-03-09T17:00:42Z</time>
      </trkpt>
      <trkpt lat="43.76638" lon="3.83505">
        <ele>247.2</ele>
        <time>2017-03-09T17:00:56Z</time>
      </trkpt>
      <trkpt lat="43.76636" lon="3.83518">
        <ele>246.23</ele>
        <time>2017-03-09T17:01:02Z</time>
      </trkpt>
      <trkpt lat="43.76635" lon="3.8352">
        <ele>246.23</ele>
        <time>2017-03-09T17:01:03Z</time>
      </trkpt>
      <trkpt lat="43.76634" lon="3.83522">
        <ele>246.72</ele>
        <time>2017-03-09T17:01:04Z</time>
      </trkpt>
      <trkpt lat="43.76633" lon="3.83524">
        <ele>247.2</ele>
        <time>2017-03-09T17:01:05Z</time>
      </trkpt>
      <trkpt lat="43.76628" lon="3.83541">
        <ele>247.2</ele>
        <time>2017-03-09T17:01:18Z</time>
      </trkpt>
      <trkpt lat="43.76627" lon="3.83573">
        <ele>240.95</ele>
        <time>2017-03-09T17:01:31Z</time>
      </trkpt>
      <trkpt lat="43.76628" lon="3.83577">
        <ele>239.02</ele>
        <time>2017-03-09T17:01:32Z</time>
      </trkpt>
      <trkpt lat="43.76628" lon="3.83581">
        <ele>237.58</ele>
        <time>2017-03-09T17:01:33Z</time>
      </trkpt>
      <trkpt lat="43.76628" lon="3.83585">
        <ele>237.1</ele>
        <time>2017-03-09T17:01:34Z</time>
      </trkpt>
      <trkpt lat="43.76628" lon="3.83589">
        <ele>236.14</ele>
        <time>2017-03-09T17:01:35Z</time>
      </trkpt>
      <trkpt lat="43.76628" lon="3.83593">
        <ele>235.18</ele>
        <time>2017-03-09T17:01:36Z</time>
      </trkpt>
      <trkpt lat="43.76627" lon="3.83596">
        <ele>234.22</ele>
        <time>2017-03-09T17:01:37Z</time>
      </trkpt>
      <trkpt lat="43.76627" lon="3.83601">
        <ele>231.81</ele>
        <time>2017-03-09T17:01:39Z</time>
      </trkpt>
      <trkpt lat="43.76627" lon="3.83604">
        <ele>231.33</ele>
        <time>2017-03-09T17:01:40Z</time>
      </trkpt>
      <trkpt lat="43.76627" lon="3.83607">
        <ele>230.85</ele>
        <time>2017-03-09T17:01:41Z</time>
      </trkpt>
      <trkpt lat="43.76626" lon="3.8361">
        <ele>230.37</ele>
        <time>2017-03-09T17:01:42Z</time>
      </trkpt>
      <trkpt lat="43.76626" lon="3.83613">
        <ele>229.41</ele>
        <time>2017-03-09T17:01:43Z</time>
      </trkpt>
      <trkpt lat="43.76626" lon="3.83616">
        <ele>228.45</ele>
        <time>2017-03-09T17:01:44Z</time>
      </trkpt>
      <trkpt lat="43.76626" lon="3.83618">
        <ele>227.97</ele>
        <time>2017-03-09T17:01:45Z</time>
      </trkpt>
      <trkpt lat="43.76627" lon="3.83629">
        <ele>224.61</ele>
        <time>2017-03-09T17:01:50Z</time>
      </trkpt>
      <trkpt lat="43.76627" lon="3.83631">
        <ele>224.61</ele>
        <time>2017-03-09T17:01:51Z</time>
      </trkpt>
      <trkpt lat="43.76626" lon="3.83633">
        <ele>224.12</ele>
        <time>2017-03-09T17:01:52Z</time>
      </trkpt>
      <trkpt lat="43.76625" lon="3.83634">
        <ele>223.64</ele>
        <time>2017-03-09T17:01:53Z</time>
      </trkpt>
      <trkpt lat="43.76624" lon="3.83636">
        <ele>223.64</ele>
        <time>2017-03-09T17:01:54Z</time>
      </trkpt>
      <trkpt lat="43.76623" lon="3.83639">
        <ele>223.16</ele>
        <time>2017-03-09T17:01:56Z</time>
      </trkpt>
      <trkpt lat="43.7662" lon="3.83647">
        <ele>222.2</ele>
        <time>2017-03-09T17:02:00Z</time>
      </trkpt>
      <trkpt lat="43.76619" lon="3.83649">
        <ele>222.2</ele>
        <time>2017-03-09T17:02:01Z</time>
      </trkpt>
      <trkpt lat="43.76618" lon="3.8365">
        <ele>222.2</ele>
        <time>2017-03-09T17:02:02Z</time>
      </trkpt>
      <trkpt lat="43.76617" lon="3.83651">
        <ele>222.68</ele>
        <time>2017-03-09T17:02:03Z</time>
      </trkpt>
      <trkpt lat="43.76616" lon="3.83653">
        <ele>223.16</ele>
        <time>2017-03-09T17:02:04Z</time>
      </trkpt>
      <trkpt lat="43.76615" lon="3.83655">
        <ele>223.64</ele>
        <time>2017-03-09T17:02:05Z</time>
      </trkpt>
      <trkpt lat="43.7661" lon="3.83672">
        <ele>227.97</ele>
        <time>2017-03-09T17:02:17Z</time>
      </trkpt>
      <trkpt lat="43.76604" lon="3.83679">
        <ele>230.37</ele>
        <time>2017-03-09T17:02:27Z</time>
      </trkpt>
      <trkpt lat="43.76603" lon="3.83679">
        <ele>231.33</ele>
        <time>2017-03-09T17:02:28Z</time>
      </trkpt>
      <trkpt lat="43.76598" lon="3.83683">
        <ele>237.1</ele>
        <time>2017-03-09T17:02:36Z</time>
      </trkpt>
      <trkpt lat="43.76597" lon="3.83684">
        <ele>238.06</ele>
        <time>2017-03-09T17:02:37Z</time>
      </trkpt>
      <trkpt lat="43.76596" lon="3.83685">
        <ele>239.02</ele>
        <time>2017-03-09T17:02:38Z</time>
      </trkpt>
      <trkpt lat="43.76587" lon="3.8368">
        <ele>240.47</ele>
        <time>2017-03-09T17:02:49Z</time>
      </trkpt>
      <trkpt lat="43.76584" lon="3.83677">
        <ele>239.51</ele>
        <time>2017-03-09T17:02:52Z</time>
      </trkpt>
      <trkpt lat="43.76571" lon="3.8367">
        <ele>232.3</ele>
        <time>2017-03-09T17:03:03Z</time>
      </trkpt>
      <trkpt lat="43.76555" lon="3.83666">
        <ele>230.85</ele>
        <time>2017-03-09T17:03:15Z</time>
      </trkpt>
      <trkpt lat="43.76544" lon="3.83659">
        <ele>227.49</ele>
        <time>2017-03-09T17:03:23Z</time>
      </trkpt>
      <trkpt lat="43.76527" lon="3.83647">
        <ele>218.36</ele>
        <time>2017-03-09T17:03:34Z</time>
      </trkpt>
      <trkpt lat="43.76515" lon="3.83633">
        <ele>210.19</ele>
        <time>2017-03-09T17:03:46Z</time>
      </trkpt>
      <trkpt lat="43.76498" lon="3.83627">
        <ele>203.94</ele>
        <time>2017-03-09T17:03:59Z</time>
      </trkpt>
      <trkpt lat="43.76495" lon="3.83625">
        <ele>202.98</ele>
        <time>2017-03-09T17:04:02Z</time>
      </trkpt>
      <trkpt lat="43.76487" lon="3.83626">
        <ele>199.13</ele>
        <time>2017-03-09T17:04:10Z</time>
      </trkpt>
      <trkpt lat="43.76477" lon="3.8363">
        <ele>200.09</ele>
        <time>2017-03-09T17:04:17Z</time>
      </trkpt>
      <trkpt lat="43.76467" lon="3.83631">
        <ele>200.09</ele>
        <time>2017-03-09T17:04:26Z</time>
      </trkpt>
      <trkpt lat="43.76459" lon="3.83625">
        <ele>202.49</ele>
        <time>2017-03-09T17:04:39Z</time>
      </trkpt>
      <trkpt lat="43.76453" lon="3.83624">
        <ele>203.46</ele>
        <time>2017-03-09T17:04:44Z</time>
      </trkpt>
      <trkpt lat="43.7645" lon="3.83624">
        <ele>202.98</ele>
        <time>2017-03-09T17:04:46Z</time>
      </trkpt>
      <trkpt lat="43.76437" lon="3.83621">
        <ele>201.53</ele>
        <time>2017-03-09T17:04:57Z</time>
      </trkpt>
      <trkpt lat="43.76427" lon="3.83616">
        <ele>201.05</ele>
        <time>2017-03-09T17:05:08Z</time>
      </trkpt>
      <trkpt lat="43.76419" lon="3.83613">
        <ele>202.01</ele>
        <time>2017-03-09T17:05:16Z</time>
      </trkpt>
      <trkpt lat="43.7641" lon="3.83612">
        <ele>204.9</ele>
        <time>2017-03-09T17:05:22Z</time>
      </trkpt>
      <trkpt lat="43.76405" lon="3.8361">
        <ele>205.86</ele>
        <time>2017-03-09T17:05:27Z</time>
      </trkpt>
      <trkpt lat="43.76396" lon="3.83605">
        <ele>211.15</ele>
        <time>2017-03-09T17:05:38Z</time>
      </trkpt>
      <trkpt lat="43.76393" lon="3.83606">
        <ele>212.11</ele>
        <time>2017-03-09T17:05:40Z</time>
      </trkpt>
      <trkpt lat="43.7638" lon="3.83605">
        <ele>216.43</ele>
        <time>2017-03-09T17:05:50Z</time>
      </trkpt>
      <trkpt lat="43.76363" lon="3.83597">
        <ele>219.32</ele>
        <time>2017-03-09T17:06:04Z</time>
      </trkpt>
      <trkpt lat="43.7635" lon="3.83592">
        <ele>220.76</ele>
        <time>2017-03-09T17:06:17Z</time>
      </trkpt>
      <trkpt lat="43.76342" lon="3.83589">
        <ele>220.28</ele>
        <time>2017-03-09T17:06:23Z</time>
      </trkpt>
      <trkpt lat="43.76328" lon="3.83589">
        <ele>222.2</ele>
        <time>2017-03-09T17:06:35Z</time>
      </trkpt>
      <trkpt lat="43.76318" lon="3.83585">
        <ele>224.12</ele>
        <time>2017-03-09T17:06:45Z</time>
      </trkpt>
      <trkpt lat="43.76316" lon="3.83584">
        <ele>224.12</ele>
        <time>2017-03-09T17:06:46Z</time>
      </trkpt>
      <trkpt lat="43.76298" lon="3.83585">
        <ele>221.72</ele>
        <time>2017-03-09T17:07:00Z</time>
      </trkpt>
      <trkpt lat="43.76289" lon="3.83587">
        <ele>222.68</ele>
        <time>2017-03-09T17:07:07Z</time>
      </trkpt>
      <trkpt lat="43.76276" lon="3.83576">
        <ele>219.32</ele>
        <time>2017-03-09T17:07:19Z</time>
      </trkpt>
      <trkpt lat="43.76262" lon="3.83568">
        <ele>215.47</ele>
        <time>2017-03-09T17:07:29Z</time>
      </trkpt>
      <trkpt lat="43.76253" lon="3.83565">
        <ele>211.15</ele>
        <time>2017-03-09T17:07:37Z</time>
      </trkpt>
      <trkpt lat="43.76239" lon="3.83549">
        <ele>204.9</ele>
        <time>2017-03-09T17:07:50Z</time>
      </trkpt>
      <trkpt lat="43.76229" lon="3.83542">
        <ele>202.49</ele>
        <time>2017-03-09T17:07:59Z</time>
      </trkpt>
      <trkpt lat="43.76219" lon="3.83532">
        <ele>197.69</ele>
        <time>2017-03-09T17:08:08Z</time>
      </trkpt>
      <trkpt lat="43.76216" lon="3.83531">
        <ele>196.73</ele>
        <time>2017-03-09T17:08:10Z</time>
      </trkpt>
      <trkpt lat="43.76205" lon="3.83521">
        <ele>193.36</ele>
        <time>2017-03-09T17:08:19Z</time>
      </trkpt>
      <trkpt lat="43.76191" lon="3.83509">
        <ele>191.44</ele>
        <time>2017-03-09T17:08:29Z</time>
      </trkpt>
      <trkpt lat="43.76182" lon="3.83497">
        <ele>185.19</ele>
        <time>2017-03-09T17:08:39Z</time>
      </trkpt>
      <trkpt lat="43.76169" lon="3.83486">
        <ele>181.83</ele>
        <time>2017-03-09T17:08:51Z</time>
      </trkpt>
      <trkpt lat="43.76168" lon="3.83481">
        <ele>181.35</ele>
        <time>2017-03-09T17:08:53Z</time>
      </trkpt>
      <trkpt lat="43.76161" lon="3.83468">
        <ele>182.79</ele>
        <time>2017-03-09T17:09:04Z</time>
      </trkpt>
      <trkpt lat="43.76155" lon="3.83453">
        <ele>186.63</ele>
        <time>2017-03-09T17:09:11Z</time>
      </trkpt>
      <trkpt lat="43.76152" lon="3.83446">
        <ele>189.04</ele>
        <time>2017-03-09T17:09:16Z</time>
      </trkpt>
      <trkpt lat="43.76134" lon="3.83423">
        <ele>194.32</ele>
        <time>2017-03-09T17:09:29Z</time>
      </trkpt>
      <trkpt lat="43.76127" lon="3.83408">
        <ele>194.8</ele>
        <time>2017-03-09T17:09:41Z</time>
      </trkpt>
      <trkpt lat="43.76125" lon="3.83405">
        <ele>193.84</ele>
        <time>2017-03-09T17:09:43Z</time>
      </trkpt>
      <trkpt lat="43.76111" lon="3.83403">
        <ele>187.59</ele>
        <time>2017-03-09T17:09:55Z</time>
      </trkpt>
      <trkpt lat="43.76108" lon="3.83405">
        <ele>187.11</ele>
        <time>2017-03-09T17:09:57Z</time>
      </trkpt>
      <trkpt lat="43.761" lon="3.83409">
        <ele>185.67</ele>
        <time>2017-03-09T17:10:02Z</time>
      </trkpt>
      <trkpt lat="43.76083" lon="3.83424">
        <ele>189.52</ele>
        <time>2017-03-09T17:10:15Z</time>
      </trkpt>
      <trkpt lat="43.76071" lon="3.83437">
        <ele>194.8</ele>
        <time>2017-03-09T17:10:26Z</time>
      </trkpt>
      <trkpt lat="43.76068" lon="3.83441">
        <ele>195.77</ele>
        <time>2017-03-09T17:10:29Z</time>
      </trkpt>
      <trkpt lat="43.76058" lon="3.83453">
        <ele>200.57</ele>
        <time>2017-03-09T17:10:39Z</time>
      </trkpt>
      <trkpt lat="43.76058" lon="3.83454">
        <ele>200.57</ele>
        <time>2017-03-09T17:10:40Z</time>
      </trkpt>
      <trkpt lat="43.76053" lon="3.8346">
        <ele>201.05</ele>
        <time>2017-03-09T17:10:44Z</time>
      </trkpt>
      <trkpt lat="43.76051" lon="3.83461">
        <ele>201.05</ele>
        <time>2017-03-09T17:10:45Z</time>
      </trkpt>
      <trkpt lat="43.7605" lon="3.83462">
        <ele>201.05</ele>
        <time>2017-03-09T17:10:46Z</time>
      </trkpt>
      <trkpt lat="43.76048" lon="3.83462">
        <ele>201.53</ele>
        <time>2017-03-09T17:10:47Z</time>
      </trkpt>
      <trkpt lat="43.76041" lon="3.83468">
        <ele>203.46</ele>
        <time>2017-03-09T17:10:54Z</time>
      </trkpt>
      <trkpt lat="43.7604" lon="3.83468">
        <ele>203.46</ele>
        <time>2017-03-09T17:10:55Z</time>
      </trkpt>
      <trkpt lat="43.76038" lon="3.83468">
        <ele>203.46</ele>
        <time>2017-03-09T17:10:56Z</time>
      </trkpt>
      <trkpt lat="43.76036" lon="3.83468">
        <ele>203.94</ele>
        <time>2017-03-09T17:10:57Z</time>
      </trkpt>
      <trkpt lat="43.76034" lon="3.83469">
        <ele>204.42</ele>
        <time>2017-03-09T17:10:58Z</time>
      </trkpt>
      <trkpt lat="43.7603" lon="3.83469">
        <ele>205.38</ele>
        <time>2017-03-09T17:11:03Z</time>
      </trkpt>
      <trkpt lat="43.76019" lon="3.83458">
        <ele>202.98</ele>
        <time>2017-03-09T17:11:12Z</time>
      </trkpt>
      <trkpt lat="43.76019" lon="3.83458">
        <ele>204.9</ele>
        <time>2017-03-09T17:11:28Z</time>
      </trkpt>
      <trkpt lat="43.76022" lon="3.83463">
        <ele>203.46</ele>
        <time>2017-03-09T17:11:50Z</time>
      </trkpt>
      <trkpt lat="43.76024" lon="3.83466">
        <ele>202.98</ele>
        <time>2017-03-09T17:12:08Z</time>
      </trkpt>
      <trkpt lat="43.76017" lon="3.83449">
        <ele>203.46</ele>
        <time>2017-03-09T17:12:24Z</time>
      </trkpt>
      <trkpt lat="43.7601" lon="3.83426">
        <ele>199.61</ele>
        <time>2017-03-09T17:12:37Z</time>
      </trkpt>
      <trkpt lat="43.76006" lon="3.83407">
        <ele>198.17</ele>
        <time>2017-03-09T17:12:48Z</time>
      </trkpt>
      <trkpt lat="43.75999" lon="3.83378">
        <ele>199.61</ele>
        <time>2017-03-09T17:13:02Z</time>
      </trkpt>
      <trkpt lat="43.75993" lon="3.83347">
        <ele>198.17</ele>
        <time>2017-03-09T17:13:16Z</time>
      </trkpt>
      <trkpt lat="43.75985" lon="3.83328">
        <ele>196.25</ele>
        <time>2017-03-09T17:13:29Z</time>
      </trkpt>
      <trkpt lat="43.75971" lon="3.83314">
        <ele>195.28</ele>
        <time>2017-03-09T17:13:41Z</time>
      </trkpt>
      <trkpt lat="43.75963" lon="3.83303">
        <ele>194.8</ele>
        <time>2017-03-09T17:13:50Z</time>
      </trkpt>
      <trkpt lat="43.75962" lon="3.83303">
        <ele>194.8</ele>
        <time>2017-03-09T17:13:51Z</time>
      </trkpt>
      <trkpt lat="43.7596" lon="3.833">
        <ele>198.65</ele>
        <time>2017-03-09T17:14:04Z</time>
      </trkpt>
      <trkpt lat="43.7596" lon="3.833">
        <ele>202.98</ele>
        <time>2017-03-09T17:14:30Z</time>
      </trkpt>
      <trkpt lat="43.7596" lon="3.833">
        <ele>201.53</ele>
        <time>2017-03-09T17:14:52Z</time>
      </trkpt>
      <trkpt lat="43.75961" lon="3.833">
        <ele>199.61</ele>
        <time>2017-03-09T17:15:12Z</time>
      </trkpt>
      <trkpt lat="43.75962" lon="3.83299">
        <ele>201.53</ele>
        <time>2017-03-09T17:15:40Z</time>
      </trkpt>
      <trkpt lat="43.75961" lon="3.83301">
        <ele>204.42</ele>
        <time>2017-03-09T17:15:59Z</time>
      </trkpt>
      <trkpt lat="43.75959" lon="3.83304">
        <ele>204.9</ele>
        <time>2017-03-09T17:16:06Z</time>
      </trkpt>
      <trkpt lat="43.75958" lon="3.83305">
        <ele>204.9</ele>
        <time>2017-03-09T17:16:07Z</time>
      </trkpt>
      <trkpt lat="43.75958" lon="3.83306">
        <ele>204.42</ele>
        <time>2017-03-09T17:16:08Z</time>
      </trkpt>
      <trkpt lat="43.75958" lon="3.83308">
        <ele>203.94</ele>
        <time>2017-03-09T17:16:09Z</time>
      </trkpt>
      <trkpt lat="43.75958" lon="3.83309">
        <ele>203.94</ele>
        <time>2017-03-09T17:16:10Z</time>
      </trkpt>
      <trkpt lat="43.75957" lon="3.83311">
        <ele>203.46</ele>
        <time>2017-03-09T17:16:11Z</time>
      </trkpt>
      <trkpt lat="43.75957" lon="3.83312">
        <ele>203.46</ele>
        <time>2017-03-09T17:16:12Z</time>
      </trkpt>
      <trkpt lat="43.75952" lon="3.83345">
        <ele>202.49</ele>
        <time>2017-03-09T17:16:31Z</time>
      </trkpt>
      <trkpt lat="43.75952" lon="3.83371">
        <ele>201.53</ele>
        <time>2017-03-09T17:16:46Z</time>
      </trkpt>
      <trkpt lat="43.75946" lon="3.83409">
        <ele>200.57</ele>
        <time>2017-03-09T17:17:05Z</time>
      </trkpt>
      <trkpt lat="43.75937" lon="3.83433">
        <ele>199.13</ele>
        <time>2017-03-09T17:17:19Z</time>
      </trkpt>
      <trkpt lat="43.75936" lon="3.83435">
        <ele>199.13</ele>
        <time>2017-03-09T17:17:20Z</time>
      </trkpt>
      <trkpt lat="43.75935" lon="3.83437">
        <ele>198.65</ele>
        <time>2017-03-09T17:17:21Z</time>
      </trkpt>
      <trkpt lat="43.75921" lon="3.83457">
        <ele>199.13</ele>
        <time>2017-03-09T17:17:37Z</time>
      </trkpt>
      <trkpt lat="43.75914" lon="3.83472">
        <ele>199.61</ele>
        <time>2017-03-09T17:17:44Z</time>
      </trkpt>
      <trkpt lat="43.75913" lon="3.83476">
        <ele>199.13</ele>
        <time>2017-03-09T17:17:46Z</time>
      </trkpt>
      <trkpt lat="43.75914" lon="3.83475">
        <ele>198.65</ele>
        <time>2017-03-09T17:17:50Z</time>
      </trkpt>
      <trkpt lat="43.75913" lon="3.83473">
        <ele>198.17</ele>
        <time>2017-03-09T17:17:51Z</time>
      </trkpt>
      <trkpt lat="43.75903" lon="3.83465">
        <ele>198.17</ele>
        <time>2017-03-09T17:18:02Z</time>
      </trkpt>
      <trkpt lat="43.75895" lon="3.8346">
        <ele>199.61</ele>
        <time>2017-03-09T17:18:14Z</time>
      </trkpt>
      <trkpt lat="43.7589" lon="3.83453">
        <ele>199.61</ele>
        <time>2017-03-09T17:18:26Z</time>
      </trkpt>
      <trkpt lat="43.7587" lon="3.83451">
        <ele>197.69</ele>
        <time>2017-03-09T17:18:38Z</time>
      </trkpt>
      <trkpt lat="43.75867" lon="3.83447">
        <ele>197.21</ele>
        <time>2017-03-09T17:18:43Z</time>
      </trkpt>
      <trkpt lat="43.75866" lon="3.83445">
        <ele>197.21</ele>
        <time>2017-03-09T17:18:44Z</time>
      </trkpt>
      <trkpt lat="43.75859" lon="3.83428">
        <ele>196.25</ele>
        <time>2017-03-09T17:18:53Z</time>
      </trkpt>
      <trkpt lat="43.75859" lon="3.83426">
        <ele>196.25</ele>
        <time>2017-03-09T17:18:54Z</time>
      </trkpt>
      <trkpt lat="43.75859" lon="3.83423">
        <ele>196.73</ele>
        <time>2017-03-09T17:18:55Z</time>
      </trkpt>
      <trkpt lat="43.75858" lon="3.83421">
        <ele>196.73</ele>
        <time>2017-03-09T17:18:56Z</time>
      </trkpt>
      <trkpt lat="43.75858" lon="3.83418">
        <ele>196.25</ele>
        <time>2017-03-09T17:18:57Z</time>
      </trkpt>
      <trkpt lat="43.75857" lon="3.83416">
        <ele>196.25</ele>
        <time>2017-03-09T17:18:58Z</time>
      </trkpt>
      <trkpt lat="43.7585" lon="3.83408">
        <ele>195.28</ele>
        <time>2017-03-09T17:19:08Z</time>
      </trkpt>
      <trkpt lat="43.75849" lon="3.83406">
        <ele>195.28</ele>
        <time>2017-03-09T17:19:09Z</time>
      </trkpt>
      <trkpt lat="43.75848" lon="3.83404">
        <ele>195.77</ele>
        <time>2017-03-09T17:19:10Z</time>
      </trkpt>
      <trkpt lat="43.75847" lon="3.83402">
        <ele>195.77</ele>
        <time>2017-03-09T17:19:11Z</time>
      </trkpt>
      <trkpt lat="43.75847" lon="3.83399">
        <ele>195.77</ele>
        <time>2017-03-09T17:19:12Z</time>
      </trkpt>
      <trkpt lat="43.75846" lon="3.83397">
        <ele>195.77</ele>
        <time>2017-03-09T17:19:13Z</time>
      </trkpt>
      <trkpt lat="43.75845" lon="3.83396">
        <ele>195.28</ele>
        <time>2017-03-09T17:19:14Z</time>
      </trkpt>
      <trkpt lat="43.75844" lon="3.83394">
        <ele>195.28</ele>
        <time>2017-03-09T17:19:15Z</time>
      </trkpt>
      <trkpt lat="43.75843" lon="3.83392">
        <ele>195.28</ele>
        <time>2017-03-09T17:19:16Z</time>
      </trkpt>
      <trkpt lat="43.75841" lon="3.8339">
        <ele>194.8</ele>
        <time>2017-03-09T17:19:17Z</time>
      </trkpt>
      <trkpt lat="43.7584" lon="3.83388">
        <ele>194.8</ele>
        <time>2017-03-09T17:19:18Z</time>
      </trkpt>
      <trkpt lat="43.75839" lon="3.83386">
        <ele>194.32</ele>
        <time>2017-03-09T17:19:19Z</time>
      </trkpt>
      <trkpt lat="43.75838" lon="3.83385">
        <ele>194.32</ele>
        <time>2017-03-09T17:19:20Z</time>
      </trkpt>
      <trkpt lat="43.75827" lon="3.83373">
        <ele>191.92</ele>
        <time>2017-03-09T17:19:31Z</time>
      </trkpt>
      <trkpt lat="43.75809" lon="3.83357">
        <ele>190.96</ele>
        <time>2017-03-09T17:19:43Z</time>
      </trkpt>
      <trkpt lat="43.75795" lon="3.83349">
        <ele>189.04</ele>
        <time>2017-03-09T17:19:55Z</time>
      </trkpt>
      <trkpt lat="43.75793" lon="3.83349">
        <ele>188.56</ele>
        <time>2017-03-09T17:19:57Z</time>
      </trkpt>
      <trkpt lat="43.75791" lon="3.83349">
        <ele>188.08</ele>
        <time>2017-03-09T17:19:58Z</time>
      </trkpt>
      <trkpt lat="43.75789" lon="3.83348">
        <ele>188.08</ele>
        <time>2017-03-09T17:19:59Z</time>
      </trkpt>
      <trkpt lat="43.75787" lon="3.83348">
        <ele>187.59</ele>
        <time>2017-03-09T17:20:00Z</time>
      </trkpt>
      <trkpt lat="43.75786" lon="3.83348">
        <ele>187.59</ele>
        <time>2017-03-09T17:20:01Z</time>
      </trkpt>
      <trkpt lat="43.75765" lon="3.83346">
        <ele>186.15</ele>
        <time>2017-03-09T17:20:14Z</time>
      </trkpt>
      <trkpt lat="43.75755" lon="3.83345">
        <ele>187.11</ele>
        <time>2017-03-09T17:20:22Z</time>
      </trkpt>
      <trkpt lat="43.75754" lon="3.83345">
        <ele>187.11</ele>
        <time>2017-03-09T17:20:23Z</time>
      </trkpt>
      <trkpt lat="43.75752" lon="3.83346">
        <ele>187.11</ele>
        <time>2017-03-09T17:20:24Z</time>
      </trkpt>
      <trkpt lat="43.7575" lon="3.83347">
        <ele>187.11</ele>
        <time>2017-03-09T17:20:25Z</time>
      </trkpt>
      <trkpt lat="43.75749" lon="3.83347">
        <ele>186.63</ele>
        <time>2017-03-09T17:20:26Z</time>
      </trkpt>
      <trkpt lat="43.75747" lon="3.83347">
        <ele>186.63</ele>
        <time>2017-03-09T17:20:27Z</time>
      </trkpt>
      <trkpt lat="43.75732" lon="3.83343">
        <ele>186.15</ele>
        <time>2017-03-09T17:20:38Z</time>
      </trkpt>
      <trkpt lat="43.75728" lon="3.8334">
        <ele>186.15</ele>
        <time>2017-03-09T17:20:41Z</time>
      </trkpt>
      <trkpt lat="43.75726" lon="3.8334">
        <ele>185.67</ele>
        <time>2017-03-09T17:20:42Z</time>
      </trkpt>
      <trkpt lat="43.75706" lon="3.83345">
        <ele>184.71</ele>
        <time>2017-03-09T17:20:53Z</time>
      </trkpt>
      <trkpt lat="43.75695" lon="3.83353">
        <ele>182.79</ele>
        <time>2017-03-09T17:21:06Z</time>
      </trkpt>
      <trkpt lat="43.7569" lon="3.83355">
        <ele>182.79</ele>
        <time>2017-03-09T17:21:10Z</time>
      </trkpt>
      <trkpt lat="43.75689" lon="3.83356">
        <ele>182.79</ele>
        <time>2017-03-09T17:21:11Z</time>
      </trkpt>
      <trkpt lat="43.75688" lon="3.83357">
        <ele>182.79</ele>
        <time>2017-03-09T17:21:12Z</time>
      </trkpt>
      <trkpt lat="43.75687" lon="3.83358">
        <ele>182.79</ele>
        <time>2017-03-09T17:21:13Z</time>
      </trkpt>
      <trkpt lat="43.75685" lon="3.83359">
        <ele>182.79</ele>
        <time>2017-03-09T17:21:14Z</time>
      </trkpt>
      <trkpt lat="43.75684" lon="3.8336">
        <ele>182.79</ele>
        <time>2017-03-09T17:21:15Z</time>
      </trkpt>
      <trkpt lat="43.75682" lon="3.83362">
        <ele>182.79</ele>
        <time>2017-03-09T17:21:16Z</time>
      </trkpt>
      <trkpt lat="43.75677" lon="3.83367">
        <ele>182.31</ele>
        <time>2017-03-09T17:21:20Z</time>
      </trkpt>
      <trkpt lat="43.75676" lon="3.83369">
        <ele>181.83</ele>
        <time>2017-03-09T17:21:21Z</time>
      </trkpt>
      <trkpt lat="43.75675" lon="3.83371">
        <ele>181.83</ele>
        <time>2017-03-09T17:21:22Z</time>
      </trkpt>
      <trkpt lat="43.75674" lon="3.83372">
        <ele>181.35</ele>
        <time>2017-03-09T17:21:23Z</time>
      </trkpt>
      <trkpt lat="43.75673" lon="3.83374">
        <ele>180.87</ele>
        <time>2017-03-09T17:21:24Z</time>
      </trkpt>
      <trkpt lat="43.75672" lon="3.83376">
        <ele>180.38</ele>
        <time>2017-03-09T17:21:25Z</time>
      </trkpt>
      <trkpt lat="43.75671" lon="3.83377">
        <ele>179.42</ele>
        <time>2017-03-09T17:21:26Z</time>
      </trkpt>
      <trkpt lat="43.75669" lon="3.83378">
        <ele>178.94</ele>
        <time>2017-03-09T17:21:27Z</time>
      </trkpt>
      <trkpt lat="43.75668" lon="3.83379">
        <ele>178.94</ele>
        <time>2017-03-09T17:21:28Z</time>
      </trkpt>
      <trkpt lat="43.75666" lon="3.83381">
        <ele>178.46</ele>
        <time>2017-03-09T17:21:29Z</time>
      </trkpt>
      <trkpt lat="43.75665" lon="3.83383">
        <ele>178.46</ele>
        <time>2017-03-09T17:21:30Z</time>
      </trkpt>
      <trkpt lat="43.75662" lon="3.83406">
        <ele>176.54</ele>
        <time>2017-03-09T17:21:42Z</time>
      </trkpt>
      <trkpt lat="43.75664" lon="3.83433">
        <ele>173.66</ele>
        <time>2017-03-09T17:21:56Z</time>
      </trkpt>
      <trkpt lat="43.75663" lon="3.83443">
        <ele>173.66</ele>
        <time>2017-03-09T17:22:02Z</time>
      </trkpt>
      <trkpt lat="43.75662" lon="3.83445">
        <ele>173.66</ele>
        <time>2017-03-09T17:22:03Z</time>
      </trkpt>
      <trkpt lat="43.75662" lon="3.83447">
        <ele>173.66</ele>
        <time>2017-03-09T17:22:04Z</time>
      </trkpt>
      <trkpt lat="43.75661" lon="3.83449">
        <ele>173.66</ele>
        <time>2017-03-09T17:22:05Z</time>
      </trkpt>
      <trkpt lat="43.75659" lon="3.83451">
        <ele>173.66</ele>
        <time>2017-03-09T17:22:06Z</time>
      </trkpt>
      <trkpt lat="43.75658" lon="3.83452">
        <ele>173.66</ele>
        <time>2017-03-09T17:22:07Z</time>
      </trkpt>
      <trkpt lat="43.75656" lon="3.83453">
        <ele>173.66</ele>
        <time>2017-03-09T17:22:08Z</time>
      </trkpt>
      <trkpt lat="43.75655" lon="3.83453">
        <ele>173.66</ele>
        <time>2017-03-09T17:22:09Z</time>
      </trkpt>
      <trkpt lat="43.75654" lon="3.83452">
        <ele>173.66</ele>
        <time>2017-03-09T17:22:10Z</time>
      </trkpt>
      <trkpt lat="43.75642" lon="3.83453">
        <ele>172.21</ele>
        <time>2017-03-09T17:22:21Z</time>
      </trkpt>
      <trkpt lat="43.7564" lon="3.8345">
        <ele>171.25</ele>
        <time>2017-03-09T17:22:25Z</time>
      </trkpt>
      <trkpt lat="43.75638" lon="3.83447">
        <ele>171.25</ele>
        <time>2017-03-09T17:22:27Z</time>
      </trkpt>
      <trkpt lat="43.75637" lon="3.83445">
        <ele>170.77</ele>
        <time>2017-03-09T17:22:28Z</time>
      </trkpt>
      <trkpt lat="43.75636" lon="3.83444">
        <ele>170.77</ele>
        <time>2017-03-09T17:22:29Z</time>
      </trkpt>
      <trkpt lat="43.75635" lon="3.83443">
        <ele>170.77</ele>
        <time>2017-03-09T17:22:30Z</time>
      </trkpt>
      <trkpt lat="43.75633" lon="3.83442">
        <ele>170.77</ele>
        <time>2017-03-09T17:22:31Z</time>
      </trkpt>
      <trkpt lat="43.75623" lon="3.83446">
        <ele>170.77</ele>
        <time>2017-03-09T17:22:41Z</time>
      </trkpt>
      <trkpt lat="43.75622" lon="3.83446">
        <ele>170.29</ele>
        <time>2017-03-09T17:22:42Z</time>
      </trkpt>
      <trkpt lat="43.7562" lon="3.83447">
        <ele>170.29</ele>
        <time>2017-03-09T17:22:43Z</time>
      </trkpt>
      <trkpt lat="43.75618" lon="3.83447">
        <ele>170.77</ele>
        <time>2017-03-09T17:22:44Z</time>
      </trkpt>
      <trkpt lat="43.75616" lon="3.83448">
        <ele>170.77</ele>
        <time>2017-03-09T17:22:45Z</time>
      </trkpt>
      <trkpt lat="43.75615" lon="3.83449">
        <ele>170.77</ele>
        <time>2017-03-09T17:22:46Z</time>
      </trkpt>
      <trkpt lat="43.75613" lon="3.8345">
        <ele>170.77</ele>
        <time>2017-03-09T17:22:47Z</time>
      </trkpt>
      <trkpt lat="43.75612" lon="3.83452">
        <ele>170.29</ele>
        <time>2017-03-09T17:22:48Z</time>
      </trkpt>
      <trkpt lat="43.75606" lon="3.83454">
        <ele>168.37</ele>
        <time>2017-03-09T17:22:55Z</time>
      </trkpt>
      <trkpt lat="43.75605" lon="3.83455">
        <ele>168.37</ele>
        <time>2017-03-09T17:22:56Z</time>
      </trkpt>
      <trkpt lat="43.756" lon="3.83457">
        <ele>167.89</ele>
        <time>2017-03-09T17:23:00Z</time>
      </trkpt>
      <trkpt lat="43.75599" lon="3.83457">
        <ele>167.41</ele>
        <time>2017-03-09T17:23:01Z</time>
      </trkpt>
      <trkpt lat="43.75598" lon="3.83457">
        <ele>167.41</ele>
        <time>2017-03-09T17:23:02Z</time>
      </trkpt>
      <trkpt lat="43.75596" lon="3.83457">
        <ele>166.93</ele>
        <time>2017-03-09T17:23:03Z</time>
      </trkpt>
      <trkpt lat="43.75595" lon="3.83458">
        <ele>166.93</ele>
        <time>2017-03-09T17:23:04Z</time>
      </trkpt>
      <trkpt lat="43.75593" lon="3.83458">
        <ele>166.93</ele>
        <time>2017-03-09T17:23:05Z</time>
      </trkpt>
      <trkpt lat="43.75592" lon="3.83459">
        <ele>167.41</ele>
        <time>2017-03-09T17:23:06Z</time>
      </trkpt>
      <trkpt lat="43.7559" lon="3.8346">
        <ele>167.41</ele>
        <time>2017-03-09T17:23:07Z</time>
      </trkpt>
      <trkpt lat="43.75584" lon="3.83461">
        <ele>166.93</ele>
        <time>2017-03-09T17:23:12Z</time>
      </trkpt>
      <trkpt lat="43.75577" lon="3.83461">
        <ele>165.48</ele>
        <time>2017-03-09T17:23:18Z</time>
      </trkpt>
      <trkpt lat="43.75576" lon="3.83461">
        <ele>165.48</ele>
        <time>2017-03-09T17:23:19Z</time>
      </trkpt>
      <trkpt lat="43.75567" lon="3.83462">
        <ele>163.08</ele>
        <time>2017-03-09T17:23:25Z</time>
      </trkpt>
      <trkpt lat="43.75566" lon="3.83463">
        <ele>163.08</ele>
        <time>2017-03-09T17:23:26Z</time>
      </trkpt>
      <trkpt lat="43.75565" lon="3.83464">
        <ele>162.6</ele>
        <time>2017-03-09T17:23:27Z</time>
      </trkpt>
      <trkpt lat="43.75557" lon="3.8348">
        <ele>159.24</ele>
        <time>2017-03-09T17:23:36Z</time>
      </trkpt>
      <trkpt lat="43.75543" lon="3.83496">
        <ele>154.43</ele>
        <time>2017-03-09T17:23:49Z</time>
      </trkpt>
      <trkpt lat="43.75533" lon="3.83511">
        <ele>151.06</ele>
        <time>2017-03-09T17:24:01Z</time>
      </trkpt>
      <trkpt lat="43.75516" lon="3.83525">
        <ele>148.18</ele>
        <time>2017-03-09T17:24:14Z</time>
      </trkpt>
      <trkpt lat="43.75512" lon="3.83528">
        <ele>147.22</ele>
        <time>2017-03-09T17:24:17Z</time>
      </trkpt>
      <trkpt lat="43.75495" lon="3.83535">
        <ele>144.34</ele>
        <time>2017-03-09T17:24:32Z</time>
      </trkpt>
      <trkpt lat="43.75479" lon="3.8354">
        <ele>145.78</ele>
        <time>2017-03-09T17:24:45Z</time>
      </trkpt>
      <trkpt lat="43.75478" lon="3.8354">
        <ele>145.78</ele>
        <time>2017-03-09T17:24:47Z</time>
      </trkpt>
      <trkpt lat="43.75479" lon="3.83536">
        <ele>145.3</ele>
        <time>2017-03-09T17:24:53Z</time>
      </trkpt>
      <trkpt lat="43.75462" lon="3.83541">
        <ele>143.85</ele>
        <time>2017-03-09T17:25:05Z</time>
      </trkpt>
      <trkpt lat="43.75447" lon="3.83544">
        <ele>144.34</ele>
        <time>2017-03-09T17:25:16Z</time>
      </trkpt>
      <trkpt lat="43.75422" lon="3.83534">
        <ele>144.34</ele>
        <time>2017-03-09T17:25:35Z</time>
      </trkpt>
      <trkpt lat="43.75398" lon="3.8352">
        <ele>144.34</ele>
        <time>2017-03-09T17:25:54Z</time>
      </trkpt>
      <trkpt lat="43.75378" lon="3.83509">
        <ele>144.34</ele>
        <time>2017-03-09T17:26:11Z</time>
      </trkpt>
      <trkpt lat="43.75352" lon="3.83506">
        <ele>144.34</ele>
        <time>2017-03-09T17:26:30Z</time>
      </trkpt>
      <trkpt lat="43.7534" lon="3.83506">
        <ele>145.78</ele>
        <time>2017-03-09T17:26:47Z</time>
      </trkpt>
    </trkseg>
  </trk>
</gpx>